[[{"header":{"parameterUnit":"m.s-1","parameterCategory":1,"la1":30.6,"la2":29.2853,"lo1":-89.7004,"lo2":-87.6739,"dy":0.0162,"dx":0.0183,"nx":112,"ny":82,"refTime":"2023-07-15T00:00:00:Z","depth":0,"parameterNumber":2,"parameterNumberName":"U-component_of_WINDS"},"data":[0.0,0.0,0.0,0.0,0.0,0.0,0.0,0.0,0.0,0.0,0.0,0.0,0.0,0.0,0.0,0.0,0.0,0.0,0.0,0.0,0.0,0.0,0.0,0.0,0.0,0.0,0.0,0.0,0.0,0.0,0.0,0.0,0.0,0.0,0.0,0.0,0.0,0.0,0.0,0.0,0.0,0.0,0.0,0.0,0.0,0.0,0.0,0.0,0.0,0.0,0.0,0.0,0.0,0.0,0.0,0.0,0.0,0.0,0.0,0.0,0.0,0.0,0.0,0.0,0.0,0.0,0.0,0.0,0.0,0.0,0.0,0.0,0.0,0.0,0.0,0.0,0.0,0.0,0.0,0.0,0.0,0.0,0.0,0.0,0.0,0.0,0.0,0.0,0.0,0.0,0.0,-1.4756,-1.644,-1.7421,-1.735,-1.635,-1.5029,-1.3364,0.0,0.0,0.0,0.0,0.0,0.0,0.0,0.0,0.0,0.0,0.0,0.0,0.0,0.0,0.0,0.0,0.0,0.0,0.0,0.0,0.0,0.0,0.0,0.0,0.0,0.0,0.0,0.0,0.0,0.0,0.0,0.0,0.0,0.0,0.0,0.0,0.0,0.0,0.0,0.0,0.0,0.0,0.0,0.0,0.0,0.0,0.0,0.0,0.0,0.0,0.0,0.0,0.0,0.0,0.0,0.0,0.0,0.0,0.0,0.0,0.0,0.0,0.0,0.0,0.0,0.0,0.0,0.0,0.0,0.0,0.0,0.0,0.0,0.0,0.0,0.0,0.0,0.0,0.0,0.0,0.0,0.0,0.0,0.0,0.0,0.0,0.0,0.0,0.0,0.0,0.0,0.0,0.0,0.0,0.0,0.0,0.0,0.0,0.0,0.0,0.0,0.0,0.0,0.0,-1.3791,-1.6499,-1.7904,-1.8476,-1.8087,-1.7015,-1.566,-1.4059,0.0,0.0,0.0,0.0,0.0,0.0,0.0,0.0,0.0,0.0,0.0,0.0,0.0,0.0,0.0,0.0,0.0,0.0,0.0,0.0,0.0,0.0,0.0,0.0,0.0,0.0,0.0,0.0,0.0,0.0,0.0,0.0,0.0,0.0,0.0,0.0,0.0,0.0,0.0,0.0,0.0,0.0,0.0,0.0,0.0,0.0,0.0,0.0,0.0,0.0,0.0,0.0,0.0,0.0,0.0,0.0,0.0,0.0,0.0,0.0,0.0,0.0,0.0,0.0,0.0,0.0,0.0,0.0,0.0,0.0,0.0,0.0,0.0,0.0,0.0,0.0,0.0,0.0,0.0,0.0,0.0,0.0,0.0,0.0,0.0,0.0,0.0,0.0,0.0,0.0,0.0,0.0,0.0,0.0,0.0,0.0,0.0,0.0,0.0,0.0,0.0,0.0,0.0,-1.393,-1.5574,-1.7891,-1.8597,-1.8852,-1.8715,-1.7372,-1.5848,-1.4196,-1.2532,0.0,0.0,0.0,0.0,0.0,0.0,0.0,0.0,0.0,0.0,0.0,0.0,0.0,0.0,0.0,0.0,0.0,0.0,0.0,0.0,0.0,0.0,0.0,0.0,0.0,0.0,0.0,0.0,0.0,0.0,0.0,0.0,0.0,0.0,0.0,0.0,0.0,0.0,0.0,0.0,0.0,0.0,0.0,0.0,0.0,0.0,0.0,0.0,0.0,0.0,0.0,0.0,0.0,0.0,0.0,0.0,0.0,0.0,0.0,0.0,0.0,0.0,0.0,0.0,0.0,0.0,0.0,0.0,0.0,0.0,0.0,0.0,0.0,0.0,0.0,0.0,0.0,0.0,0.0,0.0,0.0,0.0,0.0,0.0,0.0,0.0,0.0,0.0,0.0,0.0,0.0,0.0,0.0,0.0,0.0,0.0,0.0,0.0,0.0,0.0,0.0,0.0,-1.5808,-1.7282,-1.8754,-1.9182,-1.9317,-1.9146,-1.7747,-1.607,-1.4259,-1.2739,0.0,0.0,0.0,0.0,0.0,0.0,0.0,0.0,0.0,0.0,0.0,0.0,0.0,0.0,0.0,0.0,0.0,0.0,0.0,0.0,0.0,0.0,0.0,0.0,0.0,0.0,0.0,0.0,0.0,0.0,0.0,0.0,0.0,0.0,0.0,0.0,0.0,0.0,0.0,0.0,0.0,0.0,0.0,0.0,0.0,0.0,0.0,0.0,0.0,0.0,0.0,0.0,0.0,0.0,0.0,0.0,0.0,0.0,0.0,0.0,0.0,0.0,0.0,0.0,0.0,0.0,0.0,0.0,0.0,0.0,0.0,0.0,0.0,0.0,0.0,0.0,0.0,0.0,0.0,0.0,0.0,0.0,0.0,0.0,0.0,0.0,0.0,0.0,0.0,0.0,0.0,0.0,0.0,0.0,0.0,0.0,0.0,0.0,0.0,0.0,0.0,0.0,-1.6571,-1.8218,-1.8832,-2.0024,-2.0369,-1.9372,-1.8259,-1.6658,-1.4433,-1.3191,0.0,0.0,0.0,0.0,0.0,0.0,0.0,0.0,0.0,0.0,0.0,0.0,0.0,0.0,0.0,0.0,0.0,0.0,0.0,0.0,0.0,0.0,0.0,0.0,0.0,0.0,0.0,0.0,0.0,0.0,0.0,0.0,0.0,0.0,0.0,0.0,0.0,0.0,0.0,0.0,0.0,0.0,0.0,0.0,0.0,0.0,0.0,0.0,0.0,0.0,0.0,0.0,0.0,0.0,0.0,0.0,0.0,0.0,0.0,0.0,0.0,0.0,0.0,0.0,0.0,0.0,0.0,0.0,0.0,0.0,0.0,0.0,0.0,0.0,0.0,0.0,0.0,0.0,0.0,0.0,0.0,0.0,0.0,0.0,0.0,0.0,0.0,0.0,0.0,0.0,0.0,0.0,0.0,0.0,0.0,0.0,0.0,0.0,0.0,0.0,0.0,0.0,-1.6872,-1.831,0.0,-2.0103,-2.0461,-1.9385,-1.8655,-1.7289,-1.5006,0.0,0.0,0.0,0.0,0.0,0.0,0.0,0.0,0.0,0.0,0.0,0.0,0.0,0.0,0.0,0.0,0.0,0.0,0.0,0.0,0.0,0.0,0.0,0.0,0.0,0.0,0.0,0.0,0.0,0.0,0.0,0.0,0.0,0.0,0.0,0.0,0.0,0.0,0.0,0.0,0.0,0.0,0.0,0.0,0.0,0.0,0.0,0.0,0.0,0.0,0.0,0.0,0.0,0.0,0.0,0.0,0.0,0.0,0.0,0.0,0.0,0.0,0.0,0.0,0.0,0.0,0.0,0.0,0.0,0.0,0.0,0.0,0.0,0.0,0.0,0.0,0.0,0.0,0.0,0.0,0.0,0.0,0.0,0.0,0.0,0.0,0.0,0.0,0.0,0.0,0.0,0.0,0.0,0.0,0.0,0.0,0.0,0.0,0.0,0.0,0.0,0.0,-1.5552,-1.729,-1.8593,0.0,-2.0257,-2.0576,-1.972,-1.9051,-1.7747,-1.5616,0.0,0.0,0.0,0.0,0.0,0.0,0.0,0.0,0.0,0.0,0.0,0.0,0.0,0.0,0.0,0.0,0.0,0.0,0.0,0.0,0.0,0.0,0.0,0.0,0.0,0.0,0.0,0.0,0.0,0.0,0.0,0.0,0.0,0.0,0.0,0.0,0.0,0.0,0.0,0.0,0.0,0.0,0.0,0.0,0.0,0.0,0.0,0.0,0.0,0.0,0.0,0.0,0.0,0.0,0.0,0.0,0.0,0.0,0.0,0.0,0.0,0.0,0.0,0.0,0.0,0.0,0.0,0.0,0.0,0.0,0.0,0.0,0.0,0.0,0.0,0.0,0.0,0.0,0.0,0.0,0.0,0.0,0.0,0.0,0.0,0.0,0.0,0.0,0.0,0.0,0.0,0.0,0.0,0.0,0.0,0.0,0.0,0.0,0.0,0.0,0.0,0.0,-1.6186,-1.7865,-1.9179,-1.9925,-2.0603,-2.0844,-2.0425,-1.9425,-1.8038,0.0,0.0,0.0,0.0,0.0,0.0,0.0,0.0,0.0,0.0,0.0,0.0,0.0,0.0,0.0,0.0,0.0,0.0,0.0,0.0,0.0,0.0,0.0,0.0,0.0,0.0,0.0,0.0,0.0,0.0,0.0,0.0,0.0,0.0,0.0,0.0,0.0,0.0,0.0,0.0,0.0,0.0,0.0,0.0,0.0,0.0,0.0,0.0,0.0,0.0,0.0,0.0,0.0,0.0,0.0,0.0,0.0,0.0,0.0,0.0,0.0,0.0,0.0,0.0,0.0,0.0,0.0,0.0,0.0,0.0,0.0,0.0,0.0,0.0,0.0,0.0,0.0,0.0,0.0,0.0,0.0,0.0,0.0,0.0,0.0,0.0,0.0,0.0,0.0,0.0,0.0,0.0,0.0,0.0,0.0,0.0,0.0,0.0,0.0,0.0,0.0,0.0,0.0,-1.6367,-1.8115,-1.9423,-2.0066,-2.0735,-2.0941,-2.0449,-1.9809,-1.8655,-1.6851,0.0,0.0,0.0,0.0,0.0,0.0,0.0,0.0,0.0,0.0,0.0,0.0,0.0,0.0,0.0,0.0,0.0,0.0,0.0,0.0,0.0,0.0,0.0,0.0,0.0,0.0,0.0,0.0,0.0,0.0,0.0,0.0,0.0,0.0,0.0,0.0,0.0,0.0,0.0,0.0,0.0,0.0,0.0,0.0,0.0,0.0,0.0,0.0,0.0,0.0,0.0,0.0,0.0,0.0,0.0,0.0,0.0,0.0,0.0,0.0,0.0,0.0,0.0,0.0,0.0,0.0,0.0,0.0,0.0,0.0,0.0,0.0,0.0,0.0,0.0,0.0,0.0,0.0,0.0,0.0,0.0,0.0,0.0,0.0,0.0,0.0,0.0,0.0,0.0,0.0,0.0,0.0,0.0,0.0,0.0,0.0,0.0,0.0,0.0,0.0,0.0,0.0,-1.6757,-1.8355,-1.963,-2.0505,-2.0954,-2.1094,-2.083,-2.0116,-1.9043,-1.7507,0.0,0.0,0.0,0.0,0.0,0.0,0.0,0.0,0.0,0.0,0.0,0.0,0.0,0.0,0.0,0.0,0.0,0.0,0.0,0.0,0.0,0.0,0.0,0.0,0.0,0.0,0.0,0.0,0.0,0.0,0.0,0.0,0.0,0.0,0.0,0.0,0.0,0.0,0.0,0.0,0.0,0.0,0.0,0.0,0.0,0.0,0.0,0.0,0.0,0.0,0.0,0.0,0.0,0.0,0.0,0.0,0.0,0.0,0.0,0.0,0.0,0.0,0.0,0.0,0.0,0.0,0.0,0.0,0.0,0.0,0.0,0.0,0.0,0.0,0.0,0.0,0.0,0.0,0.0,0.0,0.0,0.0,0.0,0.0,0.0,0.0,0.0,0.0,0.0,0.0,0.0,0.0,0.0,0.0,0.0,0.0,0.0,0.0,0.0,0.0,0.0,0.0,-1.7323,-1.8617,-1.9823,-2.1083,-2.1229,-2.1277,-2.1399,-2.0365,-1.9241,-1.8153,0.0,0.0,0.0,0.0,0.0,0.0,0.0,0.0,0.0,0.0,0.0,0.0,0.0,0.0,0.0,0.0,0.0,0.0,0.0,0.0,0.0,0.0,0.0,0.0,0.0,0.0,0.0,0.0,0.0,0.0,0.0,0.0,0.0,0.0,0.0,0.0,0.0,0.0,0.0,0.0,0.0,0.0,0.0,0.0,0.0,0.0,0.0,0.0,0.0,0.0,0.0,0.0,0.0,0.0,0.0,0.0,0.0,0.0,0.0,0.0,-1.6756,0.0,0.0,0.0,0.0,0.0,0.0,0.0,0.0,0.0,0.0,0.0,0.0,0.0,0.0,0.0,0.0,0.0,0.0,0.0,0.0,0.0,0.0,0.0,0.0,0.0,0.0,0.0,0.0,0.0,0.0,0.0,0.0,0.0,0.0,0.0,0.0,0.0,0.0,0.0,0.0,0.0,-1.8221,-1.916,-2.0066,-2.1229,-2.135,-2.1375,-2.1399,-2.0407,-1.9478,-1.8754,-1.6739,0.0,0.0,0.0,0.0,0.0,0.0,0.0,0.0,0.0,0.0,0.0,0.0,0.0,0.0,0.0,0.0,0.0,0.0,0.0,0.0,0.0,0.0,0.0,0.0,0.0,0.0,0.0,0.0,0.0,0.0,0.0,0.0,0.0,0.0,0.0,0.0,0.0,0.0,0.0,0.0,0.0,0.0,0.0,0.0,0.0,0.0,0.0,0.0,0.0,0.0,0.0,0.0,0.0,0.0,0.0,0.0,0.0,0.0,0.0,0.0,-1.8326,0.0,0.0,0.0,0.0,0.0,0.0,0.0,0.0,0.0,0.0,0.0,0.0,0.0,0.0,0.0,0.0,0.0,0.0,0.0,0.0,0.0,0.0,0.0,0.0,0.0,0.0,0.0,0.0,0.0,0.0,0.0,0.0,0.0,0.0,0.0,0.0,0.0,0.0,0.0,0.0,-1.8575,-1.9551,-2.041,-2.1304,-2.1399,-2.1423,-2.1496,-2.0735,-1.9899,-1.9093,-1.7699,0.0,0.0,0.0,0.0,0.0,0.0,0.0,0.0,0.0,0.0,0.0,0.0,0.0,0.0,0.0,0.0,0.0,0.0,0.0,0.0,0.0,0.0,0.0,0.0,0.0,0.0,0.0,0.0,0.0,0.0,0.0,0.0,0.0,0.0,0.0,0.0,0.0,0.0,0.0,0.0,0.0,0.0,0.0,0.0,0.0,0.0,0.0,0.0,0.0,0.0,0.0,0.0,0.0,-2.2773,-2.3228,-2.3976,-2.3976,-2.4111,-2.4163,-2.2014,-2.0816,-2.0382,0.0,0.0,0.0,0.0,0.0,0.0,0.0,0.0,0.0,0.0,0.0,0.0,0.0,0.0,0.0,0.0,0.0,0.0,0.0,0.0,0.0,0.0,0.0,0.0,0.0,-2.07,-1.9973,0.0,0.0,0.0,0.0,0.0,0.0,0.0,0.0,0.0,0.0,0.0,0.0,-1.9006,-1.9998,-2.0805,-2.1403,-2.1471,-2.152,-2.164,-2.1101,-2.0359,-1.9426,-1.8723,-1.7427,0.0,0.0,0.0,0.0,0.0,0.0,0.0,0.0,0.0,0.0,0.0,0.0,0.0,0.0,0.0,0.0,0.0,0.0,0.0,0.0,0.0,0.0,0.0,0.0,0.0,0.0,0.0,0.0,0.0,0.0,0.0,0.0,-1.16,-1.2888,0.0,0.0,0.0,0.0,0.0,0.0,0.0,0.0,0.0,0.0,0.0,0.0,0.0,-2.1355,-2.21,-2.3499,-2.4549,-2.5324,-2.5905,-2.6338,-2.6691,-2.6691,-2.6827,-2.7046,-2.6701,0.0,-2.3086,-2.3086,0.0,0.0,0.0,0.0,0.0,0.0,0.0,0.0,0.0,0.0,0.0,0.0,0.0,0.0,0.0,0.0,0.0,0.0,0.0,0.0,0.0,0.0,-2.2768,-2.3419,-2.3475,-2.3235,0.0,-2.0805,-1.8905,-1.8214,-1.7497,0.0,0.0,0.0,0.0,0.0,0.0,0.0,-2.0395,-2.0753,-2.1084,-2.169,-2.1746,-2.1746,-2.1769,-2.1324,-2.0762,-2.0123,-1.9055,-1.8105,-1.7267,-1.5595,0.0,0.0,0.0,0.0,0.0,0.0,0.0,0.0,0.0,0.0,0.0,0.0,0.0,0.0,0.0,0.0,0.0,0.0,0.0,0.0,0.0,0.0,0.0,0.0,0.0,0.0,0.0,0.0,0.0,-1.1804,-1.3568,-1.4772,-1.5453,-1.5978,0.0,0.0,0.0,0.0,0.0,0.0,0.0,0.0,0.0,-2.2117,-2.3188,-2.4251,-2.5325,-2.6454,-2.7316,-2.794,-2.8706,-2.9152,-2.9405,-2.9474,-2.9389,-2.922,-2.922,-2.8353,-2.6901,-2.6162,-2.5638,-2.5181,0.0,0.0,0.0,0.0,-2.2184,-2.25,-2.2876,-2.2755,0.0,-2.2787,0.0,0.0,0.0,0.0,0.0,0.0,0.0,0.0,0.0,0.0,-2.5648,-2.6161,-2.6247,-2.6156,-2.6002,-2.493,-2.3416,0.0,-1.9976,-1.9216,-1.9162,0.0,0.0,0.0,0.0,0.0,-2.1329,-2.1734,-2.2152,-2.2799,-2.2525,-2.2329,-2.2401,-2.1917,-2.1387,-2.0862,-2.0028,-1.9136,-1.8152,-1.6663,-1.5272,0.0,0.0,0.0,0.0,0.0,0.0,0.0,0.0,0.0,0.0,0.0,0.0,0.0,0.0,0.0,0.0,0.0,0.0,0.0,0.0,0.0,0.0,0.0,0.0,0.0,0.0,0.0,0.0,-1.3717,-1.5263,-1.6634,-1.7487,-1.8242,0.0,0.0,0.0,0.0,0.0,0.0,-2.218,-2.3015,-2.3996,-2.5216,-2.5999,-2.7078,-2.8454,-2.9102,-2.9755,-3.0438,-3.104,-3.1424,-3.1664,-3.1768,-3.1603,-3.127,-3.127,-3.1029,-3.0546,-2.8839,-2.785,-2.735,-2.6666,-2.6135,-2.5671,-2.5085,-2.4979,-2.5191,-2.5689,-2.5538,-2.5183,-2.5604,0.0,-2.4657,-2.4657,0.0,0.0,0.0,0.0,-2.6338,-2.6242,-2.7055,-2.7999,-2.8275,-2.8311,-2.8215,-2.8052,-2.7927,-2.6965,0.0,-2.242,-2.1554,-2.1375,0.0,0.0,0.0,0.0,-2.1843,-2.239,-2.28,-2.3245,-2.3756,-2.3203,-2.2853,-2.2951,-2.2393,-2.1848,-2.1322,-2.0723,-1.9908,-1.8779,-1.7576,-1.6326,-1.5061,0.0,0.0,0.0,0.0,0.0,0.0,0.0,0.0,0.0,0.0,0.0,0.0,0.0,0.0,0.0,0.0,0.0,0.0,0.0,0.0,0.0,0.0,0.0,0.0,0.0,0.0,0.0,0.0,0.0,-1.8445,-1.9819,0.0,0.0,0.0,0.0,-2.2756,-2.348,-2.4134,-2.4781,-2.6126,-2.7158,-2.7783,-2.8713,-2.9823,-3.1092,-3.1259,-3.1776,-3.2635,-3.2679,-3.2882,-3.3179,-3.3209,-3.3241,-3.335,-3.335,-3.3426,-3.3367,-3.0636,-2.9552,-2.958,-2.8891,-2.8707,-2.8713,-2.8029,-2.8181,-2.8728,-2.8774,-2.8758,-2.8728,-2.8774,-2.8248,-2.7595,-2.7595,-2.7505,0.0,0.0,-2.7914,-2.8457,-2.8442,-2.8871,-2.9312,-2.9315,-2.9178,-2.8998,-2.8873,-2.8817,-2.8177,0.0,-2.4823,-2.4104,-2.3545,0.0,-2.2603,-2.3046,-2.3164,-2.3384,-2.3909,-2.4022,-2.4025,-2.4092,-2.3477,-2.3073,-2.3097,-2.2536,-2.194,-2.1344,-2.0723,-2.0105,-1.9376,-1.8189,-1.6972,-1.5677,-1.5005,0.0,0.0,0.0,0.0,0.0,0.0,0.0,0.0,0.0,0.0,0.0,0.0,0.0,0.0,0.0,0.0,0.0,0.0,0.0,0.0,0.0,0.0,0.0,0.0,0.0,0.0,0.0,0.0,-2.0443,-2.1849,0.0,-2.3636,-2.4102,-2.4668,-2.5404,-2.609,-2.6807,-2.7541,-2.8774,-2.9675,-3.0119,-3.0857,-3.1544,-3.2055,-3.262,-3.3068,-3.3381,-3.4033,-3.4401,-3.453,-3.4673,-3.453,-3.4159,-3.4237,-3.4105,-3.3728,-3.2822,-3.1944,-3.1197,-3.0955,-3.0346,-2.962,-2.9469,-2.9571,-2.977,-2.977,-3.0044,-3.0487,-3.0818,-3.0749,-3.0512,-3.0512,-3.047,-3.0416,-3.0322,-3.0779,-3.1277,-3.1149,-3.157,-3.2005,-3.1931,-3.1872,-3.1634,-3.1029,-3.0896,-3.0397,-2.869,-2.7004,-2.5779,-2.5563,-2.4583,-2.3869,-2.4048,-2.4077,-2.428,-2.4856,-2.4941,-2.5097,-2.5469,-2.4944,-2.4429,-2.4031,-2.3406,-2.2767,-2.2178,-2.1161,-2.0465,-2.0119,-1.8525,-1.742,-1.6926,-1.5525,-1.4373,0.0,0.0,0.0,0.0,0.0,0.0,0.0,0.0,0.0,0.0,0.0,0.0,0.0,0.0,0.0,0.0,0.0,0.0,0.0,0.0,0.0,0.0,0.0,0.0,0.0,0.0,-2.0414,-2.2451,-2.367,-2.4729,-2.5632,-2.633,-2.7002,-2.7677,-2.8412,-2.9122,-2.9867,-3.0817,-3.1518,-3.1942,-3.2641,-3.3187,-3.3583,-3.4295,-3.475,-3.4883,-3.5337,-3.5573,-3.5639,-3.5579,-3.5332,-3.4928,-3.5071,-3.4938,-3.4607,-3.4714,-3.412,-3.3157,-3.2871,-3.2244,-3.1534,-3.1631,-3.1631,-3.1631,-3.1631,-3.1922,-3.2366,-3.2726,-3.2806,-3.2734,-3.2734,-3.272,-3.2663,-3.2562,-3.2866,-3.3155,-3.3021,-3.3291,-3.3576,-3.3499,-3.3437,-3.3211,-3.2566,-3.2255,-3.1826,-3.0808,-2.904,-2.7625,-2.7353,-2.6349,-2.5555,-2.5529,-2.5317,-2.5292,-2.5669,-2.5685,-2.5857,-2.627,-2.5757,-2.5155,-2.4551,-2.3907,-2.325,-2.2644,-2.1405,-2.0656,-2.0571,-1.8972,-1.794,-1.7701,-1.6044,-1.5149,-1.5087,0.0,0.0,0.0,0.0,0.0,0.0,0.0,0.0,0.0,0.0,0.0,0.0,0.0,0.0,0.0,0.0,0.0,0.0,0.0,0.0,0.0,0.0,0.0,-1.9183,-2.0291,-2.1993,-2.4374,-2.5341,-2.6287,-2.7459,-2.8304,-2.9026,-2.9617,-3.0408,-3.1112,-3.1707,-3.2137,-3.2648,-3.3268,-3.4037,-3.4879,-3.5712,-3.6327,-3.681,-3.7193,-3.6554,-3.6324,-3.6525,-3.5984,-3.575,-3.575,-3.5941,-3.6085,-3.6196,-3.6211,-3.5922,-3.5445,-3.4588,-3.4358,-3.4505,-3.4505,-3.4505,-3.4505,-3.452,-3.4536,-3.4536,-3.4566,-3.4433,-3.4254,-3.4254,-3.418,-3.4076,-3.4076,-3.4076,-3.4076,-3.4076,-3.397,-3.3864,-3.3864,-3.3727,-3.3529,-3.3374,-3.2823,-3.2287,-3.2032,-3.0896,-2.9695,-2.8868,-2.8173,-2.7697,-2.756,-2.6957,0.0,-2.6369,-2.6328,-2.6313,-2.6313,-2.5797,-2.5209,-2.458,-2.3922,-2.3278,-2.2672,-2.1448,-2.0726,-2.0719,-1.9503,-1.855,-1.7924,-1.6621,-1.5894,-1.5733,0.0,0.0,0.0,0.0,0.0,0.0,0.0,0.0,0.0,0.0,0.0,0.0,0.0,0.0,0.0,0.0,0.0,0.0,0.0,0.0,0.0,0.0,-2.1792,-2.1199,-2.2634,-2.4325,-2.5869,-2.7517,-2.8657,-2.8993,-3.0048,-3.0847,-3.1086,-3.1773,-3.2364,-3.2786,-3.3763,-3.4475,-3.4801,-3.5578,-3.6091,-3.6351,-3.6807,-3.7089,-3.7193,-3.7103,-3.7199,-3.7353,-3.6709,-3.6491,-3.6624,-3.6298,-3.6179,-3.6211,-3.6352,-3.6337,-3.6138,-3.543,-3.4877,-3.4505,-3.4505,-3.4505,-3.4582,-3.5075,-3.5244,-3.5321,-3.5799,-3.5907,-3.5861,-3.5861,-3.583,-3.5769,-3.563,-3.5599,-3.5568,-3.5489,-3.5427,-3.5411,-3.5411,-3.5223,-3.4961,-3.4418,-3.3725,-3.2974,-3.2346,-3.1516,-3.0673,-2.9866,-2.9065,-2.8557,-2.8529,-2.7853,0.0,-2.7326,-2.6922,-2.6674,-2.6674,-2.6515,-2.6153,-2.5488,-2.4813,-2.4178,-2.3565,-2.2351,-2.1398,-2.0873,-2.0053,-1.907,-1.7906,-1.753,-1.706,0.0,0.0,0.0,0.0,0.0,0.0,0.0,0.0,0.0,0.0,0.0,0.0,0.0,0.0,0.0,0.0,0.0,0.0,0.0,0.0,0.0,0.0,-2.3213,-2.4308,-2.4361,-2.5114,-2.619,-2.7687,-2.8881,-2.9845,-3.0429,-3.142,-3.2065,-3.2203,-3.2867,-3.3507,-3.3955,-3.4779,-3.5439,-3.5904,-3.6637,-3.7116,-3.7258,-3.7736,-3.8046,-3.8132,-3.8008,-3.8011,-3.8084,-3.7268,-3.696,0.0,-3.6548,-3.6352,-3.6352,-3.646,-3.6492,0.0,0.0,0.0,0.0,0.0,-3.5352,-3.5398,-3.5768,-3.5907,-3.5968,-3.6368,-3.6676,-3.6923,-3.6923,-3.7107,-3.7291,-3.7195,-3.7148,-3.7163,-3.7067,-3.6789,-3.6511,-3.6511,-3.6171,-3.5725,-3.5332,-3.4407,-3.3486,-3.3021,-3.2094,0.0,-3.0759,-2.9966,-2.9411,-2.9411,-2.8772,-2.828,-2.828,-2.7752,-2.7384,-2.7384,-2.715,-2.67,-2.6027,-2.5345,0.0,0.0,0.0,-2.1756,-2.0963,-2.0573,0.0,0.0,0.0,-1.8927,-1.8423,0.0,0.0,0.0,-1.6322,-1.6351,0.0,0.0,0.0,0.0,0.0,0.0,0.0,0.0,0.0,0.0,0.0,0.0,0.0,0.0,0.0,0.0,-2.5541,-2.675,-2.7975,-2.7708,-2.7989,-2.9549,-2.9873,-3.0443,-3.1707,-3.2434,-3.2871,-3.3025,-3.3709,-3.4401,-3.5105,0.0,0.0,0.0,0.0,-3.792,-3.8279,-3.8858,-3.9213,-3.9409,-3.9023,-3.8842,-3.8832,-3.7849,-3.7388,-3.7313,-3.6829,-3.6569,-3.6492,-3.6492,-3.6523,-3.6523,-3.6523,-3.6554,-3.6554,-3.6554,-3.6554,-3.6554,-3.6554,0.0,0.0,-3.6631,-3.7062,-3.7571,-3.7664,-3.8111,-3.8541,-3.8541,-3.8541,-3.8541,-3.8508,-3.7916,-3.7344,-3.7252,-3.6665,-3.6128,-3.6052,-3.494,-3.391,-3.3849,-3.2645,-3.1629,-3.1554,-3.0802,-3.0245,-3.0245,-2.9656,-2.9215,-2.9215,-2.8682,-2.8281,-2.8207,0.0,0.0,-2.6385,-2.5634,-2.497,-2.4448,-2.301,-2.1892,-2.1154,-2.1052,-2.0996,-2.0907,-2.0907,-2.0845,-2.0719,-2.0592,-2.0557,-2.0585,-1.8759,-1.8464,0.0,0.0,0.0,0.0,0.0,0.0,0.0,0.0,0.0,0.0,0.0,0.0,0.0,0.0,0.0,-2.6891,-2.8233,-2.9397,-3.0117,-3.0668,-3.0885,-3.0584,-3.1476,-3.225,-3.2644,-3.3257,-3.3731,-3.3839,-3.4022,-3.447,-3.5294,-3.5991,0.0,-3.7396,-3.8332,-3.8839,-3.8926,-3.919,-3.9445,-3.9661,0.0,0.0,-3.9978,-3.9173,-3.8601,-3.8196,-3.7568,-3.6999,-3.6492,-3.6492,-3.6569,-3.6662,-3.6662,-3.677,-3.6908,-3.6908,-3.6908,-3.6908,-3.6908,-3.6908,-3.7001,-3.753,-3.7779,-3.7997,-3.862,-3.8885,0.0,-3.8801,-3.8736,-3.8704,-3.8541,-3.8367,-3.8104,-3.7551,-3.7192,-3.6836,-3.6286,-3.5429,-3.4607,-3.4061,-3.32,-3.2388,-3.1846,-3.1377,-3.1056,-3.1056,-3.0421,-2.9907,-2.9907,-2.9319,-2.8741,-2.8252,-2.8089,-2.775,-2.7074,-2.5899,-2.5147,-2.5029,-2.3297,-2.2188,-2.1986,-2.1439,-2.1105,-2.0982,-2.0982,-2.0934,-2.0845,-2.0824,-2.1019,-2.1361,-2.0352,-1.9993,0.0,0.0,0.0,0.0,0.0,0.0,0.0,0.0,0.0,0.0,0.0,-2.5453,0.0,0.0,-2.872,-2.9359,-3.0316,-3.1059,-3.1372,-3.2021,-3.2292,-3.1913,-3.2407,-3.2986,-3.3455,-3.3819,-3.4074,-3.423,-3.4636,-3.5238,-3.5948,-3.6816,-3.7605,-3.831,-3.8832,-3.9141,-3.9265,-3.9445,-3.9589,-3.9681,-3.991,-4.0086,-4.0281,-3.9646,-3.9039,-3.8477,-3.78,-3.7154,-3.66,-3.6708,-3.6831,-3.6952,-3.6952,-3.6968,-3.7015,-3.7015,-3.7015,-3.7015,-3.7015,-3.7218,-3.7561,-3.7873,-3.8497,-3.9105,-3.9512,-3.9822,-4.0088,-3.9973,-3.994,-3.994,-3.984,-3.9544,-3.917,-3.8749,-3.8049,-3.7384,-3.6951,-3.5936,-3.4988,-3.4653,-3.3666,-3.2775,-3.2371,-3.188,-3.1511,-3.1409,-3.1068,-3.0802,-3.0802,-3.0208,-2.9555,-2.8985,-2.8586,-2.8125,-2.7457,-2.6169,-2.5239,-2.4858,-2.3615,-2.2868,-2.2738,-2.2365,-2.2125,-2.2061,-2.1997,-2.2091,-2.2402,-2.2336,-2.2585,-2.3134,-2.2321,-2.1753,0.0,0.0,0.0,0.0,0.0,0.0,0.0,0.0,-2.5417,-2.6076,-2.761,-2.8842,-2.8842,-3.0172,-3.13,-3.1429,-3.189,-3.2276,-3.2391,-3.2849,-3.3197,-3.3197,-3.3164,-3.3398,-3.407,-3.4196,-3.4264,-3.4448,-3.5249,-3.601,-3.662,-3.7479,-3.8307,-3.909,-3.9141,-3.925,-3.9445,-3.9625,-3.9753,-3.9839,-4.0156,-4.0296,-4.0316,-3.9902,-3.9244,-3.8462,-3.7678,-3.711,-3.6754,-3.6953,-3.7089,-3.7194,-3.7254,-3.718,-3.709,-3.709,-3.709,-3.7122,-3.7247,-3.7653,-3.8122,-3.8435,-3.9248,-4.0202,-4.0343,-4.0765,-4.1203,-4.1135,-4.1135,-4.1135,-4.1117,-4.0712,-4.0211,-3.9922,-3.8911,-3.7917,-3.7619,-3.646,-3.5431,-3.5294,-3.4286,-3.3316,-3.2927,-3.2414,-3.1891,-3.1554,-3.1511,-3.1511,-3.1511,-3.1017,-3.0417,-2.9696,-2.9101,-2.8412,-2.748,-2.6408,-2.5478,-2.4759,-2.4216,-2.3837,-2.3711,-2.3606,-2.3553,-2.353,-2.3402,-2.358,-2.4127,-2.4008,-2.4211,-2.4702,-2.4023,-2.3317,-2.3661,-2.3528,-2.363,-2.4297,-2.4809,-2.5513,0.0,0.0,-2.8054,-2.867,-2.9857,-3.0802,-3.0802,-3.1386,-3.2086,-3.2611,-3.2901,-3.3245,-3.3806,-3.4086,-3.423,-3.423,-3.4061,-3.409,-3.4332,-3.4515,-3.4631,-3.4664,-3.5404,-3.6168,-3.6831,-3.7677,-3.8436,-3.9075,-3.9265,-3.9445,-3.9646,-3.9681,-3.9874,-4.0226,-4.0277,-4.0366,-4.0489,-4.0413,-3.969,-3.8446,-3.7311,-3.6862,-3.6969,-3.7119,-3.7194,-3.7224,-3.7405,-3.745,-3.745,-3.745,-3.745,-3.7545,-3.8131,-3.8383,-3.8651,-3.9897,-4.0402,-4.0655,-4.1271,-4.1492,-4.1489,-4.1323,-4.129,-4.1239,-4.1135,-4.1055,-4.0852,-4.0195,-3.9349,-3.8522,-3.7917,-3.7033,-3.6168,-3.5569,-3.5186,-3.4576,-3.334,-3.298,-3.2564,-3.1643,-3.1511,-3.1511,-3.1511,-3.1436,-3.0913,-2.9741,-2.9547,-2.8738,-2.6881,-2.6557,-2.6198,-2.5531,-2.5412,-2.5305,-2.5165,-2.5165,-2.5109,-2.5068,-2.491,-2.4892,-2.4965,-2.4835,-2.4781,-2.4785,-2.4644,-2.4148,-2.5155,-2.5897,0.0,0.0,-2.7811,-2.8755,-2.9638,-2.9984,-3.0329,-3.0978,-3.183,-3.2511,-3.2511,-3.2984,-3.347,0.0,-3.384,-3.4008,-3.4235,-3.4346,-3.4414,-3.4414,-3.4414,-3.4481,-3.4563,-3.4664,-3.4731,-3.4817,-3.5961,-3.6773,-3.7055,-3.8225,-3.9017,-3.9265,-3.9481,-3.961,-3.9681,-3.9945,-4.0121,-4.0312,-4.0366,-4.0505,-4.0662,-4.0662,-3.9988,-3.8739,-3.7966,-3.745,-3.7119,-3.73,-3.7359,-3.7375,-3.748,-3.751,-3.751,-3.751,-3.751,-3.7605,-3.827,-3.8776,-3.925,-4.0277,-4.0862,-4.1304,-4.2015,-4.2236,-4.2315,-4.2609,-4.2701,-4.2606,-4.2145,-4.2016,-4.1828,-4.0988,-4.0218,-3.9449,-3.8667,-3.7824,-3.7064,-3.6353,-3.5737,-3.5155,-3.4498,-3.3661,-3.295,-3.2445,-3.2039,-3.1798,-3.1798,-3.1798,-3.1285,-2.9957,-2.9128,-2.8328,-2.7484,-2.7055,-2.6684,-2.6333,-2.5927,-2.567,-2.5529,-2.5435,-2.5387,-2.5355,-2.5259,-2.5355,-2.5624,-2.5564,-2.5679,-2.5952,-2.5524,-2.5156,-2.7063,0.0,0.0,-2.974,-3.0628,-3.1615,-3.2396,-3.2585,-3.2716,-3.3209,-3.3707,-3.3968,-3.3794,-3.4109,0.0,-3.4414,-3.4414,-3.4414,-3.4414,-3.4414,-3.4414,-3.4481,-3.4597,-3.4731,-3.4831,-3.4831,-3.4883,-3.4968,-3.6382,-3.7262,-3.7262,-3.862,-3.9424,-3.9481,-3.961,-3.9753,-3.9874,-4.0156,-4.0347,-4.0436,-4.0539,-4.0696,-4.0867,-4.0681,-4.0144,-3.931,-3.8811,-3.8182,-3.7583,-3.7719,-3.7684,-3.751,-3.751,-3.751,-3.7585,-3.7775,-3.7824,-3.7859,-3.8539,-3.9234,-3.9929,-4.064,-4.1336,-4.1983,-4.2521,-4.2821,-4.3074,-4.3545,-4.3687,-4.3576,-4.3105,-4.2837,-4.2519,-4.1848,-4.0979,-4.0066,-3.9248,-3.8449,-3.7639,-3.6925,-3.6275,-3.5722,-3.5385,-3.4328,-3.3458,-3.3144,-3.2549,-3.2094,-3.2025,-3.1678,-3.1071,-3.0099,-2.8809,-2.7995,-2.7995,-2.7549,-2.7237,-2.7131,-2.6687,-2.6344,-2.6201,-2.6114,-2.6042,-2.6018,-2.5927,-2.6041,-2.6398,-2.6348,-2.6546,-2.6896,-2.6363,-2.6043,0.0,0.0,-3.104,-3.2357,-3.3033,-3.375,-3.5,-3.5276,-3.529,-3.5305,-3.5334,-3.5145,-3.4501,-3.4399,-3.4414,-3.4414,-3.4414,-3.4414,-3.4414,-3.4414,-3.4481,-3.4664,-3.4698,-3.4831,0.0,-3.518,-3.5195,-3.518,-3.6552,-3.737,-3.737,-3.8691,-3.9481,-3.9681,-3.9681,-3.991,-4.0277,-4.0312,-4.047,-4.0799,-4.0799,-4.0882,-4.1052,-4.0431,-4.0171,-4.0224,-3.9565,-3.8952,-3.8445,-3.8491,-3.8081,-3.751,-3.751,-3.7599,-3.778,-3.851,-3.8643,-3.857,-3.925,-3.9945,-4.0672,-4.1351,-4.2062,-4.2663,-4.2679,-4.3153,-4.3655,-4.3687,-4.3687,-4.3687,-4.3655,-4.32,-4.2679,-4.2663,-4.144,-4.0099,-3.944,-3.8592,-3.7795,-3.714,-3.6816,-3.6445,-3.5795,-3.501,-3.4214,-3.3506,-3.2829,-3.2287,-3.2038,-3.0858,-3.0054,-3.0008,-2.8809,-2.7995,-2.7995,-2.7989,-2.7965,-2.7949,-2.7934,-2.787,-2.773,-2.773,-2.768,-2.754,-2.7403,-2.7357,-2.7372,-2.7229,-2.7178,-2.7181,-2.7026,-2.6623,0.0,0.0,-3.3709,-3.4165,-3.4997,-3.5839,-3.614,-3.5886,-3.5545,-3.5441,-3.4724,-3.407,-3.3819,-3.3441,-3.3151,-3.3151,-3.3514,-3.3842,-3.3926,-3.432,-3.4664,-3.4802,-3.4949,0.0,0.0,0.0,0.0,-3.6018,-3.6892,-3.7633,-3.8221,-3.9093,-3.9696,-3.9889,-4.0031,-4.0156,-4.0312,-4.0539,-4.0696,-4.0799,-4.1021,-4.1171,-4.1239,-4.1137,-4.0889,-4.0497,-4.034,-3.9945,-3.9357,-3.9511,-3.9444,-3.9237,-3.9237,-3.9251,-3.9313,-3.9553,-3.989,-4.0243,-4.0466,-4.0642,-4.0912,-4.207,-4.2574,-4.2853,-4.3753,-4.4196,-4.448,-4.497,-4.5076,-4.5001,-4.4512,-4.388,-4.3263,-4.2805,-4.1903,-4.0986,-4.0323,-3.9487,-3.8654,-3.7996,-3.7342,-3.683,-3.6597,-3.5571,-3.4319,-3.3061,-3.2607,-3.237,-3.2274,-3.1083,-3.0271,-3.0271,-2.9062,-2.8266,-2.8266,-2.8266,-2.8226,-2.8152,-2.8137,-2.8063,-2.793,-2.793,-2.7905,-2.788,-2.7715,-2.7615,-2.7524,-2.7386,-2.7284,-2.7207,-2.7155,-2.7012,-3.2526,-3.3921,-3.5244,-3.594,-3.6684,-3.7234,-3.7042,-3.6544,-3.5922,-3.5297,-3.4108,-3.3147,-3.285,-3.2297,-3.1965,-3.223,-3.264,-3.3159,-3.3742,-3.4182,-3.46,-3.4938,-3.5115,0.0,0.0,0.0,0.0,-3.6447,-3.7143,-3.7856,-3.8672,-3.9405,-3.991,-4.0101,-4.0242,-4.0381,-4.047,-4.0696,-4.0867,-4.0987,-4.1256,-4.1423,-4.1423,-4.1637,-4.1481,-4.1069,-4.1231,-4.088,-4.029,-4.0414,-4.0316,-4.0092,-4.0092,-4.0123,-4.0216,-4.0472,-4.0856,-4.1257,-4.1132,-4.1326,-4.1805,-4.2713,-4.3299,-4.3786,-4.4659,-4.5033,-4.5314,-4.5789,-4.5859,-4.5697,-4.5238,-4.4382,-4.3576,-4.3169,-4.2299,-4.1415,-4.0735,-3.9961,-3.9188,-3.8496,-3.7682,-3.7075,-3.7075,-3.5859,-3.4413,-3.2948,-3.2621,-3.2551,-3.248,-3.1297,-3.049,-3.0541,-2.9336,-2.8556,-2.8556,-2.8508,-2.8444,-2.8356,-2.8284,-2.8226,-2.8079,-2.8079,-2.8054,-2.7995,-2.793,-2.7815,-2.774,-2.7615,-2.7488,-2.7412,-2.731,-2.7258,-3.4816,-3.5434,-3.5807,-3.7664,-3.8032,-3.7889,-3.7794,-3.7214,-3.6325,-3.4892,-3.3527,-3.2324,0.0,0.0,-3.088,-3.151,-3.1792,-3.2398,-3.3728,-3.3965,-3.431,0.0,0.0,0.0,0.0,0.0,0.0,-3.657,0.0,-3.8054,-3.8752,-3.9576,-4.0101,-4.0296,-4.0312,-4.047,-4.0799,-4.0833,-4.0987,-4.1323,-4.1522,-4.1621,-4.1621,-4.1817,-4.1898,-4.1931,-4.2061,-4.1757,-4.118,-4.118,-4.0796,-4.0235,-4.0235,-4.0326,-4.0482,-4.1205,-4.1523,-4.1599,-4.1322,-4.211,-4.3214,-4.3262,-4.4207,-4.5309,-4.5325,-4.5697,-4.6112,-4.6112,-4.5952,-4.5807,-4.5807,-4.4764,-4.3722,-4.3722,-4.2631,-4.1447,-4.0783,-4.0072,-3.936,-3.8697,-3.7834,-3.7193,-3.713,-3.5884,-3.4441,-3.31,-3.2897,-3.2827,-3.2602,-3.1424,-3.0639,-3.076,-2.9574,-2.8794,-2.8794,-2.8684,-2.8597,-2.8597,-2.8468,-2.8348,-2.8235,-2.821,-2.8137,-2.8005,-2.8005,-2.8005,-2.8005,-2.788,-2.7815,-2.779,-2.7539,-2.7412,-3.5325,-3.6518,-3.7694,-3.8202,-3.8301,-3.8096,-3.7445,-3.6418,-3.5167,-3.3674,-3.1938,-3.0499,0.0,0.0,0.0,-2.9029,-3.0293,0.0,-3.2582,-3.3547,0.0,0.0,0.0,-3.5439,-3.5504,-3.619,0.0,0.0,-3.805,-3.8886,-3.9832,-4.0115,-4.0296,-4.042,-4.0593,-4.0696,-4.0799,-4.1055,-4.129,-4.1522,-4.1719,-4.1833,-4.1833,-4.1964,-4.2061,-4.2061,-4.2254,-4.2237,-4.2076,-4.2171,-4.2137,-4.1975,-4.1975,-4.1975,-4.2022,-4.22,-4.2312,-4.2408,-4.2879,-4.3218,-4.3507,-4.4005,-4.4659,-4.5389,-4.5866,-4.6134,-4.6243,-4.6243,-4.6207,-4.6171,-4.6171,-4.512,-4.4034,-4.3931,-4.2833,-4.1737,-4.1416,-4.0798,-4.0103,-3.9376,-3.8256,-3.7103,-3.6032,-3.5446,-3.4642,-3.3262,-3.2951,-3.2667,-3.2069,-3.1285,-3.0554,-3.0096,-2.9309,-2.8794,-2.8794,-2.8771,-2.8747,-2.8747,-2.8612,-2.8525,-2.8501,-2.8396,-2.8323,-2.8314,-2.8201,-2.8137,-2.8137,-2.8005,-2.7955,-2.793,-2.7781,-2.7435,-3.667,-3.7638,-3.8467,-3.8766,-3.8616,-3.8118,-3.7088,-3.5609,-3.3923,-3.2137,-2.9966,0.0,0.0,0.0,0.0,0.0,0.0,0.0,-3.1737,-3.2824,-3.387,0.0,-3.5325,0.0,-3.6009,-3.6709,-3.7488,0.0,-3.8732,-3.9336,-4.0231,-4.0381,-4.047,-4.0627,-4.073,-4.0867,-4.1021,-4.129,-4.1522,-4.1736,-4.1866,-4.1931,-4.198,-4.2158,-4.2238,-4.2238,0.0,-4.2476,-4.2508,-4.2571,-4.2602,-4.2602,-4.2602,-4.2602,-4.2602,-4.2602,-4.2797,-4.312,-4.3573,-4.4058,-4.4591,-4.4945,-4.5508,-4.6065,-4.6451,-4.6509,-4.6423,-4.6423,-4.6369,-4.6298,-4.6298,-4.5482,-4.4571,-4.4166,-4.3272,-4.2362,-4.1914,-4.1278,-4.0499,-3.9482,-3.8402,-3.7197,-3.5744,-3.5422,-3.4865,-3.3423,-3.2872,-3.2364,-3.1616,-3.1168,-3.0657,-3.0057,-2.9352,-2.8944,-2.8944,-2.8881,-2.8834,-2.8834,-2.8755,-2.8684,-2.8684,-2.8565,-2.8493,-2.8493,-2.8372,-2.8299,-2.8299,-2.8137,-2.8079,-2.8079,-2.789,-2.7429,-3.8204,-3.8642,-3.8682,-3.9155,-3.8706,-3.7778,-3.6402,-3.4547,-3.2482,-3.0264,0.0,-2.606,-2.5785,0.0,-2.4773,-2.6594,0.0,-2.8364,-3.0883,-3.1884,-3.2901,-3.4339,-3.5043,-3.5737,-3.6607,-3.7334,-3.8198,-3.9222,-3.9378,-3.9719,-4.0316,-4.047,-4.0627,-4.0867,-4.0867,-4.1021,-4.1357,-4.1522,-4.1736,-4.1898,-4.1931,-4.2012,-4.2142,-4.2349,-4.2413,-4.2445,0.0,0.0,-4.2634,-4.2634,-4.2665,-4.2665,-4.2665,-4.2714,-4.2795,-4.2795,-4.3296,-4.3929,-4.4026,-4.4853,-4.5875,-4.5807,-4.6293,-4.6876,-4.6876,-4.6772,-4.6633,-4.6633,-4.6493,-4.6369,-4.6369,-4.5891,-4.517,-4.4431,-4.3727,-4.3022,-4.2269,-4.1485,-4.0604,-3.9358,-3.8478,-3.746,-3.6023,-3.5693,-3.5129,-3.372,-3.2928,-3.2184,-3.1367,-3.1045,-3.069,-3.0141,-2.9508,-2.9121,-2.9121,-2.9013,-2.8943,-2.8943,-2.8858,-2.8803,-2.8803,-2.8684,-2.8636,-2.8597,-2.8493,-2.842,-2.8411,-2.8275,-2.8235,-2.821,-2.7849,-2.7333,-3.8495,-3.9094,-3.9339,-3.8712,-3.7689,-3.6327,-3.4442,-3.2467,0.0,0.0,0.0,-2.4574,-2.3522,-2.3155,0.0,-2.4104,0.0,0.0,0.0,0.0,-3.2392,0.0,0.0,0.0,0.0,0.0,0.0,0.0,0.0,-4.0332,-4.0455,-4.0662,-4.0885,-4.1189,-4.1223,-4.1323,-4.1555,-4.1752,-4.1866,-4.1898,-4.2174,-4.2318,-4.2349,-4.2508,-4.2571,-4.2571,-4.2602,0.0,-4.2837,-4.2837,-4.2914,-4.3021,-4.3021,-4.3397,-4.392,-4.392,-4.4378,-4.5097,-4.5734,-4.6094,-4.6241,-4.5908,-4.6293,-4.6876,-4.6876,-4.6876,-4.6842,-4.6842,-4.6807,-4.6789,-4.6789,-4.6255,-4.5495,-4.4633,-4.3958,-4.3185,-4.2302,-4.1086,-4.011,-3.987,-3.8768,-3.7633,-3.6818,-3.6178,-3.5479,-3.4649,-3.393,-3.2978,-3.1709,-3.0823,-3.0109,-2.9513,-2.9346,-2.9282,-2.9282,-2.9243,-2.9175,-2.9075,-2.8943,-2.8873,-2.8873,-2.8826,-2.8708,-2.8597,-2.8573,-2.8517,-2.8411,-2.8372,-2.8372,-2.8348,-2.7509,-2.679,-3.8743,-3.9013,-3.9058,-3.8537,-3.7165,-3.5534,-3.3873,0.0,0.0,0.0,0.0,-2.2377,-2.1769,0.0,0.0,0.0,0.0,0.0,0.0,0.0,0.0,0.0,0.0,0.0,0.0,0.0,0.0,0.0,0.0,-4.0662,-4.0662,-4.0919,-4.1122,-4.129,-4.1423,-4.1555,-4.1752,-4.1866,-4.1996,-4.2174,-4.2318,-4.2476,-4.2665,-4.2744,-4.279,-4.2867,-4.2867,0.0,-4.3007,-4.3007,-4.3281,-4.367,-4.367,-4.4112,-4.4767,-4.4767,-4.5226,-4.5914,-4.6258,-4.6635,-4.6946,-4.6762,-4.6924,-4.7217,-4.7217,-4.7217,-4.7183,-4.7098,-4.7064,-4.703,-4.6927,-4.6633,-4.6065,-4.4931,-4.3832,-4.2912,-4.2446,-4.1544,-4.0722,-4.0335,-3.942,-3.8344,-3.7195,-3.638,-3.5658,-3.4904,-3.388,-3.2807,-3.175,-3.0895,-3.0163,-2.9469,-2.9412,-2.9412,-2.9412,-2.9412,-2.9344,-2.9213,-2.9129,-2.9082,-2.9013,-2.8912,-2.8818,-2.8771,-2.8668,-2.8565,-2.8517,-2.842,-2.8348,-2.8284,-2.7411,-2.6585,-3.8421,-3.8572,-3.843,-3.7922,-3.6402,-3.4651,-3.3021,-3.0223,0.0,0.0,-2.2488,-2.0389,-2.0105,0.0,0.0,0.0,0.0,0.0,0.0,0.0,0.0,0.0,0.0,0.0,0.0,0.0,0.0,0.0,0.0,0.0,-4.0901,-4.1156,-4.1323,-4.1357,-4.1555,-4.1752,-4.1898,-4.1963,-4.2141,-4.2413,-4.2476,-4.265,-4.2899,-4.293,-4.3007,-4.3113,-4.3113,0.0,0.0,-4.3338,-4.3748,-4.4335,-4.4499,-4.5009,-4.5649,-4.5649,-4.6126,-4.675,-4.675,-4.7128,-4.762,-4.762,-4.7554,-4.752,-4.752,-4.752,-4.747,-4.7301,-4.7251,-4.7217,-4.7064,-4.6882,-4.6361,-4.4901,-4.3573,-4.2602,-4.2602,-4.2067,-4.1385,-4.0686,-4.0005,-3.91,-3.7704,-3.675,-3.5948,-3.5309,-3.397,-3.2707,-3.1855,-3.1253,-3.0571,-2.9682,-2.9563,-2.9541,-2.9541,-2.9541,-2.9496,-2.935,-2.9328,-2.9282,-2.9144,-2.9036,-2.8967,-2.8904,-2.8748,-2.8645,-2.8597,-2.8493,-2.8372,-2.822,-2.7235,-2.6463,-3.7086,-3.761,-3.7676,-3.6139,-3.4711,-3.3021,-3.0522,0.0,0.0,-2.2592,-2.0842,-1.942,-1.8207,-1.7938,0.0,0.0,0.0,0.0,0.0,0.0,0.0,0.0,0.0,0.0,0.0,0.0,0.0,0.0,0.0,0.0,-4.1241,-4.129,-4.139,-4.1555,-4.1752,-4.1866,-4.1898,-4.2206,-4.2381,-4.2413,-4.2713,-4.2868,-4.2899,-4.3037,-4.3082,-4.3113,-4.3113,0.0,0.0,-4.4097,-4.4486,-4.4724,-4.5386,-4.6114,-4.676,-4.676,-4.724,-4.7836,-4.7836,-4.7918,-4.7968,-4.7968,-4.7737,-4.752,-4.752,-4.752,-4.752,-4.747,-4.747,-4.747,-4.7436,-4.6795,-4.5765,-4.4172,-4.3169,-4.2602,-4.2602,-4.2067,-4.1415,-4.0804,-4.015,-3.9447,-3.8755,-3.7523,-3.6607,-3.6542,-3.5156,-3.3665,-3.2315,-3.1971,-3.1373,-3.002,-2.9764,-2.9675,-2.9675,-2.9675,-2.963,-2.9496,-2.9473,-2.9412,-2.9282,-2.9282,-2.9152,-2.8904,-2.8881,-2.8779,-2.8597,-2.8589,-2.8517,-2.8341,-2.681,-2.6054,-3.5155,-3.5655,-3.5894,-3.4611,-3.3305,-3.1734,-2.9505,0.0,0.0,-2.2158,-1.9989,-1.8207,-1.7279,-1.71,-1.7533,0.0,0.0,0.0,0.0,0.0,0.0,0.0,0.0,0.0,0.0,0.0,0.0,0.0,0.0,0.0,-4.1489,-4.1489,-4.1555,-4.1784,-4.1866,-4.1996,-4.2206,-4.2318,-4.2508,-4.2713,-4.2837,-4.3023,-4.3207,-4.3711,-4.3984,-4.4092,-4.4537,0.0,0.0,-4.5142,-4.5601,-4.6046,-4.6344,-4.6908,-4.7554,-4.7554,-4.7752,-4.8001,-4.8001,-4.8049,-4.8115,-4.8115,-4.8115,-4.8065,-4.7869,-4.7803,-4.777,-4.7654,-4.7621,-4.7489,-4.6963,-4.5914,-4.4787,-4.4152,-4.3436,-4.2898,-4.2898,-4.27,-4.2293,-4.1651,-4.0978,-4.0287,-3.9591,-3.8281,-3.7226,-3.6783,-3.5782,-3.4554,-3.3116,-3.2513,-3.1854,-3.0865,-3.0184,-2.983,-2.983,-2.983,-2.9764,-2.963,-2.963,-2.9563,-2.9434,-2.9412,-2.9328,-2.9152,-2.9059,-2.8959,-2.8779,-2.8668,-2.8541,-2.8356,-2.7247,-2.664,-3.2857,-3.3423,-3.3834,-3.2631,-3.1495,-3.0076,0.0,0.0,-2.3184,-2.1216,-1.8984,-1.7204,-1.6547,-1.6443,-1.6876,-1.8192,0.0,-2.0318,0.0,0.0,0.0,0.0,0.0,0.0,0.0,0.0,0.0,0.0,0.0,0.0,0.0,-4.1703,-4.1831,-4.22,-4.2315,-4.2573,-4.3009,-4.3154,-4.3313,-4.3551,-4.366,-4.3815,-4.4078,-4.462,-4.4944,-4.5036,0.0,0.0,0.0,-4.603,-4.6459,-4.6988,-4.7204,-4.7634,-4.8147,-4.8147,-4.8147,-4.8147,-4.8147,-4.8212,-4.8292,-4.8292,-4.8388,-4.8452,-4.8212,-4.8115,-4.8017,-4.7869,-4.7655,-4.721,-4.6126,-4.5076,-4.4224,-4.3932,-4.349,-4.3113,-4.3113,-4.3113,-4.29,-4.2272,-4.155,-4.084,-4.0175,-3.8859,-3.766,-3.692,-3.6171,-3.5144,-3.3643,-3.2997,-3.2417,-3.1718,-3.1022,-3.0461,-3.0038,-2.9989,-2.9946,-2.9858,-2.9836,-2.977,-2.9614,-2.9592,-2.9525,-2.935,-2.9213,-2.9098,-2.8967,-2.8771,-2.8597,-2.8429,-2.7641,-2.7,-3.0118,-3.101,-3.1652,-3.0036,-2.9131,-2.7934,0.0,0.0,-2.1156,-1.9151,-1.7637,-1.6517,-1.5919,-1.5814,-1.6218,-1.7504,-1.8267,0.0,0.0,0.0,0.0,0.0,0.0,0.0,0.0,0.0,0.0,0.0,0.0,0.0,0.0,-4.1898,-4.2216,-4.2868,-4.3263,-4.3814,-4.4474,-4.487,-4.5082,-4.5082,-4.5404,-4.5578,-4.5578,-4.5719,-4.5781,0.0,0.0,0.0,0.0,-4.6576,-4.7003,-4.7261,-4.7912,-4.8324,-4.8483,-4.8483,-4.8483,-4.8483,-4.8483,-4.8483,-4.8483,-4.8483,-4.8515,-4.8515,-4.8483,-4.8356,-4.8195,-4.8195,-4.7583,-4.6545,-4.4933,-4.4523,-4.4247,-4.3324,-4.3113,-4.3113,-4.3113,-4.3113,-4.293,-4.239,-4.1696,-4.1028,-4.0498,-3.9172,-3.7937,-3.7193,-3.6348,-3.5268,-3.3785,-3.347,-3.3121,-3.2472,-3.239,-3.1784,-3.032,-3.0205,-3.0205,-3.0189,-3.0189,-3.0081,-2.981,-2.981,-2.9716,-2.9496,-2.9366,-2.9236,-2.9098,-2.8967,-2.8779,-2.8581,-2.7767,-2.6903,-2.7887,-2.8571,-2.8975,-2.783,-2.7051,-2.6093,-2.4328,0.0,-2.0587,-1.9031,-1.7623,-1.6517,-1.5904,-1.5799,-1.6218,-1.7489,-1.8252,0.0,0.0,0.0,0.0,0.0,0.0,0.0,0.0,0.0,0.0,0.0,0.0,0.0,0.0,-4.2109,-4.2558,-4.3296,-4.3427,-4.3961,-4.4886,-4.5033,-4.5212,-4.5452,-4.5548,-4.5658,-4.5752,-4.6422,0.0,0.0,0.0,0.0,0.0,-4.7922,-4.8022,-4.8102,-4.8336,-4.8452,-4.8515,-4.8515,-4.8515,-4.8515,-4.8515,-4.8595,-4.8707,-4.8707,-4.8753,-4.8745,-4.8256,-4.7888,-4.7552,-4.7037,-4.6321,-4.5593,-4.4942,-4.4431,-4.3986,-4.3558,-4.3432,-4.3462,-4.3598,-4.3645,-4.3621,-4.3552,-4.2915,-4.221,-4.1549,-4.0615,-3.9563,-3.8312,-3.7469,-3.6611,-3.5652,-3.4605,-3.3883,-3.365,-3.3167,-3.2354,-3.1068,-3.0942,-3.0729,-3.0222,-3.0189,-3.0167,-3.0065,-3.0065,-2.9957,-2.9716,-2.9655,-2.956,-2.9366,-2.9144,-2.8928,-2.8732,-2.838,-2.8068,0.0,-2.5986,-2.6273,-2.5355,-2.4807,0.0,0.0,0.0,-1.9552,-1.8222,-1.7101,-1.6263,-1.5873,-1.5994,-1.6488,-1.7534,-1.8461,0.0,0.0,0.0,0.0,0.0,0.0,0.0,0.0,0.0,0.0,0.0,0.0,0.0,0.0,-4.2302,-4.2783,-4.3654,-4.3687,-4.414,-4.5049,-4.544,-4.5766,-4.5975,-4.6351,-4.6579,-4.6721,-4.7298,0.0,0.0,0.0,0.0,0.0,-4.8515,-4.8547,-4.8627,-4.8627,-4.8658,-4.8673,-4.8673,-4.8673,-4.8673,-4.8673,-4.8784,-4.8863,-4.8863,-4.8723,-4.8409,-4.7365,-4.708,-4.6887,-4.6123,-4.554,-4.5122,-4.4703,-4.4302,-4.3939,-4.3805,-4.3776,-4.3835,-4.3939,-4.3985,-4.3998,-4.4068,-4.3494,-4.2758,-4.2038,-4.1285,-4.0297,-3.8824,-3.8204,-3.7559,-3.652,-3.5599,-3.4912,-3.4644,-3.4209,-3.3512,-3.247,-3.2133,-3.177,-3.1307,-3.129,-3.1269,-3.1226,-3.1166,-3.1057,-3.0859,-3.0754,-3.0613,-3.0424,-3.0131,-2.9896,-2.9784,-2.9649,-2.9536,0.0,0.0,0.0,0.0,0.0,0.0,0.0,0.0,0.0,0.0,-1.6219,-1.5814,-1.5858,-1.6323,-1.695,-1.7728,0.0,0.0,0.0,0.0,0.0,0.0,0.0,0.0,0.0,0.0,0.0,0.0,0.0,0.0,0.0,-4.2413,-4.2878,-4.3893,-4.3941,-4.4283,-4.5033,-4.6028,-4.6551,-4.6649,-4.7522,-4.8032,-4.8195,-4.8227,0.0,0.0,0.0,0.0,0.0,-4.8547,-4.8658,-4.8801,-4.8801,-4.8894,-4.9001,-4.9001,-4.9001,-4.9001,-4.9001,-4.9032,-4.9032,-4.8964,-4.8457,-4.7564,-4.6172,-4.6055,-4.6249,-4.5395,-4.5165,-4.5014,-4.431,-4.4126,-4.4097,-4.4097,-4.4097,-4.4097,-4.4097,-4.4126,-4.4126,-4.4155,-4.3585,-4.2926,-4.2177,-4.1422,-4.0433,-3.9025,-3.8723,-3.8154,-3.6793,-3.6501,-3.6182,-3.5488,-3.5371,-3.5075,-3.4387,-3.3611,-3.3158,-3.3108,-3.3108,-3.3026,-3.2917,-3.279,-3.2696,-3.2634,-3.2351,-3.215,-3.201,-3.1638,-3.1453,-3.1429,-3.1283,-3.1176,-1.902,0.0,-2.1743,-2.1904,-2.116,0.0,0.0,0.0,0.0,0.0,0.0,0.0,0.0,0.0,0.0,0.0,0.0,0.0,0.0,0.0,0.0,0.0,0.0,0.0,0.0,0.0,0.0,0.0,0.0,0.0,0.0,-4.2634,-4.2919,-4.3144,-4.3408,-4.4153,-4.537,-4.5646,-4.6121,-4.6827,-4.7218,-4.7679,-4.8195,-4.85,0.0,0.0,0.0,0.0,-4.8877,-4.8877,-4.8909,-4.894,-4.894,-4.897,-4.9001,-4.9001,-4.9063,-4.9138,-4.9138,-4.9229,-4.9295,-4.8703,-4.8004,-4.7203,-4.6283,-4.5948,-4.573,-4.4958,-4.4755,-4.4676,-4.4332,-4.4253,-4.4224,-4.4126,-4.4097,-4.4126,-4.4224,-4.4321,-4.4435,-4.4609,-4.4567,-4.4293,-4.3562,-4.2779,-4.192,-4.1027,-3.984,-3.8967,-3.8731,-3.7566,-3.6763,-3.6684,-3.6179,-3.5776,-3.5589,-3.4582,-3.3689,-3.3141,-3.3108,-3.3086,-3.3048,-3.3004,-3.2956,-3.2846,-3.2617,-3.239,-3.215,-3.2057,-3.19,-3.1726,-3.1662,-3.1582,-1.744,-1.8514,-1.969,-2.019,-1.9779,-1.9226,0.0,0.0,0.0,0.0,0.0,0.0,0.0,0.0,0.0,0.0,0.0,0.0,0.0,0.0,0.0,0.0,0.0,0.0,0.0,0.0,0.0,0.0,0.0,0.0,0.0,-4.2806,-4.2961,-4.3099,-4.3328,-4.3781,-4.4525,-4.4948,-4.5404,-4.5991,-4.6814,-4.7441,-4.795,-4.8539,-4.8832,0.0,0.0,0.0,-4.9094,-4.9094,-4.9155,-4.9216,-4.9216,-4.9216,-4.9216,-4.9216,-4.9277,-4.932,-4.932,-4.9411,-4.933,-4.8206,-4.7557,-4.7011,-4.5935,-4.5499,-4.532,-4.4895,-4.4776,-4.4748,-4.4648,-4.462,-4.4592,-4.4536,-4.4508,-4.4536,-4.462,-4.4659,-4.4769,-4.4869,-4.4951,-4.4783,-4.4048,-4.3235,-4.245,-4.1706,-4.0573,-3.9695,-3.9426,-3.8303,-3.7388,-3.7132,-3.6437,-3.5997,-3.5997,-3.5404,-3.4861,-3.446,-3.4443,-3.4443,-3.4443,-3.4312,-3.4158,-3.4002,-3.3815,-3.3694,-3.3521,-3.3404,-3.327,-3.3127,-3.3055,-3.2959,-1.6637,-1.7211,-1.7888,-1.854,-1.8627,-1.8565,-1.8687,0.0,0.0,0.0,0.0,0.0,0.0,0.0,0.0,0.0,0.0,0.0,0.0,0.0,0.0,0.0,0.0,0.0,0.0,0.0,0.0,0.0,0.0,0.0,0.0,-4.2961,-4.3115,-4.3372,-4.3402,-4.3449,-4.3479,-4.4194,-4.468,-4.4933,-4.6277,-4.7163,-4.7611,-4.836,-4.8824,0.0,0.0,0.0,-4.926,-4.926,-4.9367,-4.9518,-4.9518,-4.9518,-4.9518,-4.9518,-4.95,-4.953,-4.9577,-4.9577,-4.9338,-4.7769,-4.729,-4.6999,-4.5521,-4.5086,-4.5086,-4.5086,-4.5059,-4.5005,-4.5005,-4.5005,-4.5005,-4.5032,-4.5032,-4.5032,-4.5059,-4.5086,-4.5086,-4.5086,-4.5113,-4.4908,-4.4291,-4.3494,-4.2723,-4.1995,-4.1192,-4.0431,-3.972,-3.8909,-3.8117,-3.7427,-3.6696,-3.6221,-3.6122,-3.6084,-3.6084,-3.6084,-3.6019,-3.5997,-3.5997,-3.5778,-3.5554,-3.5383,-3.5228,-3.5158,-3.5135,-3.4923,-3.478,-3.4763,-3.4618,-3.4497,-1.6049,-1.6458,-1.7191,-1.8403,-1.8267,-1.7997,-1.8565,0.0,0.0,0.0,0.0,0.0,0.0,0.0,0.0,0.0,0.0,0.0,0.0,0.0,0.0,0.0,0.0,0.0,0.0,0.0,0.0,0.0,0.0,0.0,0.0,-4.3176,-4.3358,-4.3402,-4.3492,-4.3658,-4.3839,-4.3939,-4.4334,-4.4917,-4.542,-4.637,-4.7594,-4.8017,-4.8557,-4.9168,0.0,-4.9411,-4.9458,-4.9458,-4.9488,-4.9518,-4.9518,-4.9518,-4.9518,-4.9518,-4.956,-4.9679,-4.986,-4.9906,-4.9665,-4.8116,-4.7617,-4.7341,-4.5809,-4.5423,-4.5528,-4.5528,-4.5247,-4.5005,-4.5005,-4.5005,-4.5032,-4.514,-4.515,-4.5203,-4.531,-4.5441,-4.5503,-4.5503,-4.5598,-4.5632,-4.5528,-4.4775,-4.3963,-4.3244,-4.2245,-4.1391,-4.0754,-3.9886,-3.9089,-3.8592,-3.7819,-3.7153,-3.6651,-3.6482,-3.6419,-3.6419,-3.6148,-3.5997,-3.5997,-3.5954,-3.5866,-3.5728,-3.5577,-3.5464,-3.5356,-3.5251,-3.5152,-3.5058,-3.4899,-3.478,-1.587,-1.6263,-1.692,-1.7923,-1.8192,-1.8506,-1.9555,0.0,0.0,0.0,0.0,0.0,0.0,0.0,0.0,0.0,0.0,0.0,0.0,0.0,0.0,0.0,0.0,0.0,0.0,0.0,0.0,0.0,0.0,0.0,0.0,0.0,-4.3479,-4.3674,-4.3734,-4.3852,-4.3998,-4.4068,-4.4265,-4.4583,-4.5148,-4.585,-4.6701,-4.7267,-4.7712,-4.8123,0.0,-4.8555,-4.899,-4.899,-4.9306,-4.9772,-4.9772,-4.9772,-4.9772,-4.9842,-4.9942,-5.0086,-5.016,-5.0206,-4.9946,-4.8404,-4.7929,-4.7625,-4.6083,-4.5641,-4.5693,-4.5693,-4.5563,-4.5432,-4.5432,-4.5432,-4.5459,-4.5511,-4.5537,-4.5537,-4.5598,-4.5649,-4.5701,-4.5701,-4.577,-4.5795,-4.5795,-4.5126,-4.4337,-4.3572,-4.2687,-4.1877,-4.1169,-4.0343,-3.9598,-3.8964,-3.8187,-3.7443,-3.6771,-3.6643,-3.6544,-3.6402,-3.6255,-3.6148,-3.6122,-3.6101,-3.6058,-3.5927,-3.5844,-3.5756,-3.5622,-3.5526,-3.5412,-3.5314,-3.5175,-3.5065,-1.5842,-1.6368,-1.707,-1.7563,0.0,-1.9241,-2.0419,0.0,0.0,0.0,0.0,0.0,0.0,0.0,0.0,0.0,0.0,0.0,0.0,0.0,0.0,0.0,0.0,0.0,0.0,0.0,0.0,0.0,0.0,0.0,0.0,0.0,-4.3628,-4.3898,-4.3927,-4.3998,-4.4155,-4.4281,-4.4321,-4.431,-4.494,-4.55,-4.5932,-4.6533,-4.7005,-4.729,-4.7318,-4.7729,-4.8438,-4.8438,-4.8867,-4.9562,-4.9562,-4.9665,-4.985,-4.9957,-5.0146,-5.0415,-5.0415,-5.0293,-4.9928,-4.8553,-4.7979,-4.7596,-4.6213,-4.5821,-4.5846,-4.5846,-4.5897,-4.5922,-4.5821,-4.5795,-4.5795,-4.5846,-4.5871,-4.5897,-4.5947,-4.5972,-4.5998,-4.5998,-4.5998,-4.5998,-4.5998,-4.5491,-4.4845,-4.4052,-4.3236,-4.2422,-4.1638,-4.0831,-4.0083,-3.9395,-3.8593,-3.7718,-3.6812,-3.6725,-3.6643,-3.6402,-3.6364,-3.6318,-3.6272,-3.6229,-3.6187,-3.6084,-3.6041,-3.5993,-3.5883,-3.5756,-3.5661,-3.5583,-3.5429,-3.536,-1.5842,-1.6682,-1.7654,-1.7699,-1.8672,0.0,-2.0543,-2.1665,0.0,-2.2613,0.0,0.0,0.0,0.0,0.0,0.0,0.0,0.0,0.0,0.0,0.0,0.0,0.0,0.0,0.0,0.0,0.0,0.0,0.0,0.0,0.0,0.0,0.0,-4.3898,-4.4027,-4.4155,-4.4265,-4.4435,-4.4418,-4.4293,-4.466,-4.5207,-4.5915,-4.6223,-4.6762,-4.7494,-4.7606,-4.7762,-4.7951,-4.7951,-4.8068,-4.8255,-4.8255,-4.869,-4.9343,-4.9371,-4.9806,-5.0415,-5.0415,-4.9945,-4.9231,-4.8379,-4.7648,-4.6908,-4.6056,-4.5871,-4.5972,-4.5972,-4.6154,-4.6277,-4.5897,-4.5795,-4.5821,-4.5947,-4.608,-4.6228,-4.6332,-4.6471,-4.6542,-4.6542,-4.6542,-4.6542,-4.6542,-4.6394,-4.6022,-4.5288,-4.4284,-4.3325,-4.2597,-4.1678,-4.0889,-4.0267,-3.9481,-3.8398,-3.6931,-3.6788,-3.6748,-3.6681,-3.6544,-3.6482,-3.6482,-3.636,-3.628,-3.628,-3.6229,-3.6182,-3.6182,-3.6036,-3.5888,-3.579,-3.5644,-3.5549,-1.5842,-1.6727,-1.7803,-1.8207,-1.9645,0.0,0.0,-2.2622,-2.3653,0.0,0.0,0.0,0.0,0.0,0.0,0.0,0.0,0.0,0.0,0.0,0.0,0.0,0.0,0.0,0.0,0.0,0.0,0.0,0.0,0.0,0.0,0.0,0.0,-4.4155,-4.4281,-4.4435,-4.4609,-4.4759,-4.4786,-4.4731,-4.4869,-4.5104,-4.546,-4.5579,-4.5868,-4.6312,-4.6366,-4.6749,-4.7333,-4.7333,-4.7638,-4.8108,-4.8108,-4.8336,-4.8687,-4.8687,-4.8932,-4.9275,-4.9231,-4.9038,-4.868,-4.791,-4.7524,-4.7232,-4.6425,-4.6277,-4.6374,-4.6374,-4.6447,-4.6471,-4.6228,-4.6228,-4.6301,-4.635,-4.6423,-4.6453,-4.6501,-4.6566,-4.659,-4.659,-4.659,-4.659,-4.659,-4.6566,-4.6253,-4.5552,-4.4664,-4.3802,-4.3009,-4.219,-4.1433,-4.0701,-3.9845,-3.91,-3.852,-3.8406,-3.8345,-3.8321,-3.7248,-3.6623,-3.6623,-3.6582,-3.6544,-3.6544,-3.644,-3.6356,-3.6255,-3.6165,-3.6058,-3.591,-3.5866,-3.5778,-1.6008,-1.6861,-1.7908,0.0,0.0,0.0,-2.3227,-2.4048,-2.51,0.0,0.0,0.0,0.0,0.0,0.0,0.0,0.0,0.0,0.0,0.0,0.0,0.0,0.0,0.0,0.0,0.0,0.0,0.0,0.0,0.0,0.0,0.0,0.0,0.0,-4.4519,-4.4659,-4.4858,-4.5005,-4.5086,-4.514,-4.5167,-4.522,-4.5257,-4.5327,-4.5459,-4.5667,-4.5667,-4.6057,-4.669,-4.669,-4.7004,-4.7509,-4.7509,-4.7701,-4.8023,-4.8049,-4.8302,-4.8625,-4.8641,-4.8465,-4.8209,-4.7699,-4.7421,-4.7194,-4.6629,-4.6542,-4.659,-4.659,-4.6637,-4.6637,-4.6542,-4.6566,-4.659,-4.659,-4.6637,-4.6661,-4.6661,-4.6731,-4.6795,-4.6795,-4.6801,-4.6806,-4.6806,-4.6806,-4.6646,-4.613,-4.5143,-4.425,-4.3699,-4.2715,-4.1729,-4.0893,-4.0262,-3.9797,-3.9532,-3.9429,-3.9346,-3.9346,-3.8198,-3.7393,-3.7129,-3.707,-3.6928,-3.6702,-3.6602,-3.6606,-3.6705,-3.6659,-3.6672,-3.6764,-3.6764,-3.6693,-1.6368,-1.7189,-1.806,0.0,0.0,0.0,0.0,-2.5947,0.0,0.0,0.0,0.0,0.0,0.0,0.0,0.0,0.0,0.0,0.0,0.0,0.0,0.0,0.0,0.0,0.0,0.0,0.0,0.0,0.0,0.0,0.0,0.0,0.0,0.0,-4.4703,-4.4841,-4.4988,-4.5106,-4.5239,-4.5381,-4.552,-4.552,-4.5415,-4.5537,-4.5684,-4.5795,-4.5795,-4.5871,-4.5998,-4.5998,-4.6073,-4.6196,-4.6196,-4.6695,-4.7405,-4.753,-4.8055,-4.8708,-4.8834,-4.8406,-4.7793,-4.7793,-4.7245,-4.659,-4.6613,-4.6613,-4.6613,-4.6613,-4.6708,-4.6801,-4.6801,-4.6725,-4.6613,-4.6613,-4.6725,-4.6801,-4.6801,-4.7002,-4.7196,-4.7196,-4.7249,-4.7302,-4.7302,-4.7302,-4.7302,-4.7302,-4.5882,-4.4814,-4.4796,-4.323,-4.176,-4.0911,-4.0822,-4.0503,-3.9689,-3.9552,-3.9526,-3.9526,-3.9402,-3.8929,-3.8038,-3.7882,-3.7471,-3.6737,-3.6719,-3.7005,-3.7611,-3.7611,-3.7901,-3.8402,-3.8402,-3.8368,-1.6488,-1.733,0.0,0.0,0.0,0.0,0.0,0.0,0.0,0.0,0.0,0.0,0.0,0.0,0.0,0.0,0.0,0.0,0.0,0.0,0.0,0.0,0.0,0.0,0.0,0.0,0.0,0.0,0.0,0.0,0.0,0.0,0.0,0.0,-4.4148,-4.4042,-4.3546,-4.3751,-4.3861,-4.3911,-4.4054,-4.4659,-4.5693,-4.5718,-4.5821,-4.5947,-4.5947,-4.6023,-4.6147,-4.6147,-4.6221,-4.635,-4.635,-4.6539,-4.6848,-4.6872,-4.7037,-4.7232,-4.7256,-4.7139,-4.6962,-4.6962,-4.6856,-4.6754,-4.6865,-4.6952,-4.7025,-4.7075,-4.7102,-4.7165,-4.7165,-4.7125,-4.7098,-4.7025,-4.7043,-4.707,-4.7143,-4.7209,-4.7254,-4.7254,-4.7298,-4.7302,-4.7302,-4.7302,-4.7302,-4.7302,-4.6453,-4.539,-4.4237,-4.3138,-4.234,-4.2042,-4.1907,-4.1718,-4.1387,-4.13,-4.1273,-4.1273,-4.1213,-4.0507,-3.8982,-3.887,-3.8744,-3.8534,-3.8454,-3.8478,-3.8645,-3.8616,-3.8673,-3.8816,-3.8745,-3.8634,-1.6789,0.0,0.0,0.0,0.0,0.0,0.0,0.0,0.0,0.0,0.0,0.0,0.0,0.0,0.0,0.0,0.0,0.0,0.0,0.0,0.0,0.0,0.0,0.0,0.0,0.0,0.0,0.0,0.0,0.0,0.0,0.0,0.0,0.0,-4.3563,-4.3494,-4.3062,-4.3262,-4.3402,-4.3475,-4.353,-4.4132,-4.5114,-4.5015,-4.504,-4.5205,-4.5569,-4.5789,-4.5927,-4.6244,-4.6398,-4.6495,-4.6495,-4.6542,-4.6613,-4.6661,-4.6684,-4.6649,-4.6376,-4.6529,-4.6788,-4.6468,-4.6644,-4.7007,-4.7075,-4.7183,-4.7249,-4.7298,-4.7302,-4.7302,-4.7302,-4.7302,-4.7298,-4.7249,-4.7227,-4.7249,-4.728,-4.7341,-4.7385,-4.7385,-4.7407,-4.749,-4.7533,-4.7533,-4.7554,-4.756,-4.6907,-4.58,-4.4135,-4.3482,-4.2989,-4.2582,-4.2468,-4.2369,-4.2284,-4.216,-4.2094,-4.2034,-4.2009,-4.1517,-4.0415,-4.0021,-3.9684,-3.9385,-3.9263,-3.9318,-3.959,-3.9525,-3.9639,-3.9874,-3.9785,-3.9718,0.0,0.0,0.0,0.0,0.0,0.0,0.0,0.0,0.0,0.0,0.0,0.0,0.0,0.0,0.0,0.0,0.0,0.0,0.0,0.0,0.0,0.0,0.0,0.0,0.0,0.0,0.0,0.0,0.0,0.0,0.0,0.0,0.0,-4.2808,-4.2951,-4.3042,-4.312,-4.3225,-4.3387,-4.3488,-4.3529,-4.3647,-4.389,-4.3763,-4.381,-4.3986,-4.4841,-4.5235,-4.5368,-4.6076,-4.6401,-4.6401,-4.6401,-4.6401,-4.6424,-4.6564,-4.6628,-4.6545,-4.5922,-4.6288,-4.6878,-4.6161,-4.6442,-4.7122,-4.7176,-4.7234,-4.7234,-4.7345,-4.7363,-4.7367,-4.7367,-4.7367,-4.7367,-4.7367,-4.7323,-4.7323,-4.7363,-4.745,-4.7533,-4.7554,-4.7639,-4.778,-4.7881,-4.7902,-4.7925,-4.7992,-4.7256,-4.6137,-4.4551,-4.4237,-4.3812,-4.2936,-4.2773,-4.2697,-4.2631,-4.2422,-4.2287,-4.2145,-4.2076,-4.2048,-4.2048,-4.1213,-4.0405,-3.9738,-3.9617,-3.9863,-4.0456,-4.0438,-4.0722,-4.1255,-4.1232,-4.1232,0.0,0.0,0.0,0.0,0.0,0.0,0.0,0.0,0.0,0.0,0.0,0.0,0.0,0.0,0.0,0.0,0.0,0.0,0.0,0.0,0.0,0.0,0.0,0.0,0.0,0.0,0.0,0.0,0.0,0.0,0.0,0.0,0.0,-4.2194,-4.2324,-4.215,-4.1667,-4.1783,-4.1869,0.0,-4.2096,-4.2247,-4.2326,-4.3492,-4.4101,-4.4233,-4.4415,-4.4509,-4.4549,-4.4708,-4.4847,-4.4955,-4.4955,-4.4965,-4.5058,-4.5186,-4.5229,-4.5215,-4.52,-4.5297,-4.5426,-4.5264,-4.5339,-4.5633,-4.6311,-4.6594,-4.6822,-4.7557,-4.7824,-4.785,-4.785,-4.785,-4.785,-4.785,-4.7642,-4.7511,-4.7738,-4.778,-4.7842,-4.787,-4.7911,-4.7931,-4.797,-4.797,-4.7972,-4.7992,-4.7297,-4.6638,-4.6254,-4.5672,-4.512,-4.4762,-4.4164,-4.3705,-4.3542,-4.2927,-4.253,-4.2492,-4.2425,-4.2382,-4.2382,-4.1934,-4.1626,-4.1467,-4.1428,-4.1495,-4.1633,-4.1529,-4.1534,-4.167,-4.1471,-4.1363,0.0,0.0,0.0,0.0,0.0,0.0,0.0,0.0,0.0,0.0,0.0,0.0,0.0,0.0,0.0,0.0,0.0,0.0,0.0,0.0,0.0,0.0,0.0,0.0,0.0,0.0,0.0,0.0,0.0,0.0,0.0,-4.1091,-4.1288,-4.1564,-4.1689,-4.158,-4.1295,-4.1475,-4.1582,-4.1604,-4.1797,-4.1905,-4.197,-4.2732,-4.3147,-4.3257,-4.3669,-4.3868,-4.3948,-4.4303,-4.4511,-4.4638,-4.4638,-4.4707,-4.4814,-4.4878,-4.4899,-4.4845,-4.453,-4.47,-4.4993,-4.4676,-4.4861,-4.5411,-4.6291,-4.6588,-4.683,-4.7709,-4.797,-4.7992,-4.7992,-4.7992,-4.7992,-4.7992,-4.787,-4.7785,-4.7927,-4.7947,-4.7968,-4.7992,-4.7992,-4.8012,-4.809,-4.8111,-4.8151,-4.8151,-4.7744,-4.7341,-4.6939,-4.6481,-4.6002,-4.5485,-4.5067,-4.4753,-4.4554,-4.4137,-4.368,-4.3202,-4.3142,-4.3122,-4.3122,-4.2959,-4.2614,-4.2072,-4.2009,-4.2005,-4.2005,-4.1923,-4.1902,-4.1884,-4.1754,-4.1688,0.0,0.0,0.0,0.0,0.0,0.0,0.0,0.0,0.0,0.0,0.0,0.0,0.0,0.0,0.0,0.0,0.0,0.0,0.0,0.0,0.0,0.0,0.0,0.0,0.0,0.0,0.0,0.0,0.0,0.0,-4.0246,-4.0443,-4.0703,-4.1099,-4.118,-4.1318,-4.1471,-4.1692,-4.1801,-4.1841,-4.1966,-4.2055,-4.2124,-4.2115,-4.2115,-4.2219,-4.2878,-4.3226,-4.3382,-4.4007,-4.4321,-4.4423,-4.4423,-4.4486,-4.4587,-4.4607,-4.4607,-4.4538,-4.3892,-4.4153,-4.4666,-4.4115,-4.4465,-4.5251,-4.6111,-4.6497,-4.679,-4.7612,-4.7941,-4.8052,-4.8052,-4.8052,-4.8052,-4.8072,-4.8072,-4.809,-4.8032,-4.8032,-4.8032,-4.8052,-4.8072,-4.813,-4.8247,-4.8324,-4.8363,-4.8363,-4.8305,-4.8028,-4.735,-4.7181,-4.6848,-4.6135,-4.5933,-4.5765,-4.5588,-4.5441,-4.4999,-4.4149,-4.4072,-4.4052,-4.4032,-4.4012,-4.3566,-4.2614,-4.2548,-4.2502,-4.248,-4.2317,-4.2243,-4.2221,-4.2058,-4.2005,0.0,0.0,0.0,0.0,0.0,0.0,0.0,0.0,0.0,0.0,0.0,0.0,0.0,0.0,0.0,0.0,0.0,0.0,0.0,0.0,0.0,0.0,0.0,0.0,0.0,0.0,0.0,0.0,0.0,0.0,-3.9494,-3.9731,-4.0256,-4.1146,-4.1318,-4.1475,-4.1736,-4.178,-4.1862,-4.1984,-4.2055,-4.2163,-4.2287,-4.2384,-4.2443,-4.2443,-4.257,-4.2649,-4.2729,-4.2819,-4.2875,-4.2875,-4.2875,-4.2895,-4.2933,-4.3032,-4.3089,-4.311,-4.3173,-4.3266,-4.3358,-4.3342,-4.3397,-4.367,-4.4472,-4.5295,-4.6101,-4.6924,-4.7677,-4.8267,-4.8267,-4.8267,-4.8287,-4.84,-4.8419,-4.8381,-4.8207,-4.8168,-4.8189,-4.8248,-4.8343,-4.8457,-4.8532,-4.855,-4.855,-4.855,-4.855,-4.8495,-4.8403,-4.831,-4.8198,-4.7956,-4.7256,-4.6758,-4.6603,-4.5966,-4.5471,-4.5301,-4.5166,-4.5066,-4.5019,-4.4901,-4.4764,-4.4614,-4.4594,-4.4531,-4.4428,-4.3682,-4.3237,-4.3113,-4.2349,-4.2005,0.0,0.0,0.0,0.0,0.0,0.0,0.0,0.0,0.0,0.0,0.0,0.0,0.0,0.0,0.0,0.0,0.0,0.0,0.0,0.0,0.0,0.0,0.0,0.0,0.0,0.0,0.0,0.0,0.0,-3.79,-3.8785,-3.9072,-3.9621,-4.0548,-4.0712,-4.1099,-4.1801,-4.1862,-4.2009,-4.216,-4.2205,-4.2246,-4.2308,-4.2445,-4.2503,-4.2503,-4.2546,-4.2568,-4.2609,-4.2609,-4.2649,-4.2725,-4.2725,-4.2783,-4.2879,-4.2955,-4.2993,-4.3031,-4.3142,-4.316,-4.316,-4.3287,-4.3323,-4.3487,-4.4363,-4.526,-4.614,-4.7004,-4.7813,-4.8476,-4.8476,-4.8476,-4.8495,-4.8532,-4.8569,-4.8513,-4.8439,-4.842,-4.842,-4.8458,-4.8513,-4.8587,-4.8587,-4.8605,-4.8605,-4.8605,-4.8605,-4.8605,-4.8605,-4.8569,-4.8513,-4.842,-4.8069,-4.7772,-4.7598,-4.7269,-4.6809,-4.6274,-4.6179,-4.6139,-4.6099,-4.6039,-4.6196,-4.6626,-4.5572,-4.4979,-4.4899,-4.4516,-4.4313,-4.4235,-4.3304,-4.2926,0.0,0.0,0.0,0.0,0.0,0.0,0.0,0.0,0.0,0.0,0.0,0.0,0.0,0.0,0.0,0.0,0.0,0.0,0.0,0.0,0.0,0.0,0.0,0.0,0.0,0.0,0.0,0.0,0.0,-3.7244,-3.811,-3.8407,-3.8951,-3.9809,-4.0014,-4.0485,-4.1223,-4.1386,-4.1641,-4.2004,-4.2004,-4.2111,-4.2346,-4.2465,-4.2526,-4.2584,-4.2627,-4.2668,-4.267,-4.2707,-4.2783,-4.2878,-4.2899,-4.2993,-4.3141,-4.3141,-4.316,-4.3196,-4.3233,-4.3251,-4.3269,-4.3411,-4.3446,-4.3591,-4.4316,-4.5142,-4.5988,-4.6852,-4.7664,-4.8347,-4.855,-4.8605,-4.8605,-4.8642,-4.866,-4.8642,-4.8605,-4.8605,-4.8605,-4.8642,-4.866,-4.866,-4.866,-4.8678,-4.8678,-4.8678,-4.8678,-4.8678,-4.8678,-4.866,-4.8624,-4.8569,-4.855,-4.8457,-4.8285,-4.8284,-4.7951,-4.7192,-4.7156,-4.7136,-4.7117,-4.7098,-4.7368,-4.7907,-4.6502,-4.5719,-4.5636,-4.5438,-4.5309,-4.5288,-4.4378,-4.4022,0.0,0.0,0.0,0.0,0.0,0.0,0.0,0.0,0.0,0.0,0.0,0.0,0.0,0.0,0.0,0.0,0.0,0.0,0.0,0.0,0.0,0.0,0.0,0.0,0.0,0.0,0.0,0.0,0.0,-3.6625,-3.7508,-3.7745,-3.8262,-3.9114,-3.9417,-3.96,-3.9701,-3.9902,-4.0394,-4.1163,-4.1163,-4.1634,-4.2483,-4.2568,-4.2649,-4.2783,-4.2783,-4.2823,-4.2882,-4.3012,-4.3086,-4.3086,-4.3142,-4.3196,-4.3178,-4.3178,-4.3196,-4.3233,-4.334,-4.3394,-4.3394,-4.3549,-4.3582,-4.3617,-4.3791,-4.4415,-4.5226,-4.6039,-4.6833,-4.7627,-4.8402,-4.8605,-4.8642,-4.8769,-4.8787,-4.875,-4.8642,-4.8605,-4.8642,-4.875,-4.8787,-4.8822,-4.8874,-4.8873,-4.8873,-4.8873,-4.8873,-4.8873,-4.8873,-4.8821,-4.8787,-4.8787,-4.866,-4.855,-4.8476,-4.8476,-4.8363,-4.8132,-4.8132,-4.8075,-4.7957,-4.7937,-4.7955,-4.7992,-4.7899,-4.7681,-4.7363,-4.6588,-4.6203,-4.6115,-4.5306,-4.4928,0.0,0.0,0.0,0.0,0.0,0.0,0.0,0.0,0.0,0.0,0.0,0.0,0.0,0.0,0.0,0.0,0.0,0.0,0.0,0.0,0.0,0.0,0.0,0.0,0.0,0.0,0.0,0.0,0.0,0.0,-3.6838,-3.7047,-3.7539,-3.8367,-3.8611,-3.9058,-3.9713,-3.9854,-4.0037,-4.0342,-4.0342,-4.083,-4.1735,-4.1796,-4.2182,-4.2803,-4.2842,-4.2918,-4.303,-4.3086,-4.2832,-4.2395,-4.2413,-4.2484,-4.2573,-4.2573,-4.2901,-4.341,-4.3445,-4.348,-4.3532,-4.3582,-4.3667,-4.3753,-4.3835,-4.4422,-4.5253,-4.6136,-4.7001,-4.7852,-4.8687,-4.8943,-4.9012,-4.9064,-4.9064,-4.9046,-4.9012,-4.8943,-4.8945,-4.9047,-4.9064,-4.9046,-4.9079,-4.9096,-4.9096,-4.9096,-4.9096,-4.9081,-4.9032,-4.8998,-4.8946,-4.8804,-4.8769,-4.8678,-4.8569,-4.855,-4.8532,-4.8458,-4.8419,-4.8362,-4.8323,-4.8247,-4.817,-4.813,-4.813,-4.8008,-4.7759,-4.7469,-4.7262,-4.7139,-4.6263,-4.5884,0.0,0.0,0.0,0.0,0.0,0.0,0.0,0.0,0.0,0.0,0.0,0.0,0.0,0.0,0.0,0.0,0.0,0.0,0.0,0.0,0.0,0.0,0.0,0.0,0.0,0.0,0.0,0.0,0.0,0.0,-3.6564,-3.6728,-3.7096,-3.7742,-3.7919,-3.8343,-3.905,-3.9109,-3.9272,-3.952,-3.952,-4.0027,-4.0931,-4.1258,-4.1787,-4.2462,-4.2755,-4.2975,-4.3086,-4.2832,-4.2468,-4.2045,-4.1788,-4.1749,-4.1855,-4.2145,-4.2635,-4.3163,-4.3491,-4.3617,-4.3667,-4.3682,-4.3751,-4.3853,-4.3913,-4.435,-4.4976,-4.5876,-4.6759,-4.7625,-4.8501,-4.8961,-4.9214,-4.9214,-4.9214,-4.9214,-4.9228,-4.9181,-4.915,-4.9197,-4.9214,-4.9214,-4.9214,-4.9214,-4.9214,-4.9214,-4.9214,-4.9181,-4.9133,-4.9133,-4.9083,-4.8945,-4.891,-4.884,-4.8714,-4.8678,-4.866,-4.8605,-4.8569,-4.8532,-4.8532,-4.842,-4.8362,-4.8285,-4.8265,-4.8148,-4.8004,-4.7945,-4.7904,-4.7785,-4.7161,-4.6925,0.0,0.0,0.0,0.0,0.0,0.0,0.0,0.0,0.0,0.0,0.0,0.0,0.0,0.0,0.0,0.0,0.0,0.0,0.0,0.0,0.0,0.0,0.0,0.0,0.0,0.0,0.0,0.0,0.0,-3.5749,-3.6597,-3.6733,-3.6933,-3.7297,-3.7373,-3.7466,-3.7595,-3.7595,-3.7987,-3.8772,-3.8772,-3.9259,-4.0181,-4.0991,-4.1446,-4.1705,-4.2484,-4.2902,-4.2977,-4.2304,-4.2046,-4.2059,-4.1337,-4.1058,-4.1167,-4.2036,-4.238,-4.2527,-4.3476,-4.3804,-4.382,-4.3883,-4.3897,-4.3913,-4.3974,-4.4104,-4.4367,-4.5187,-4.6016,-4.6881,-4.7778,-4.8616,-4.9195,-4.9195,-4.9195,-4.9228,-4.9308,-4.926,-4.9195,-4.9214,-4.9214,-4.9214,-4.9214,-4.9214,-4.9214,-4.9214,-4.9214,-4.9214,-4.9195,-4.9195,-4.9195,-4.9214,-4.9133,-4.9049,-4.8926,-4.8857,-4.875,-4.8623,-4.8605,-4.8605,-4.8605,-4.8532,-4.8513,-4.8513,-4.8363,-4.8267,-4.8207,-4.807,-4.8012,-4.7992,-4.7992,-4.7992,-1.1241,0.0,0.0,0.0,0.0,0.0,0.0,0.0,0.0,0.0,0.0,0.0,0.0,0.0,0.0,0.0,0.0,0.0,0.0,0.0,0.0,0.0,0.0,0.0,0.0,0.0,0.0,0.0,-3.4567,-3.4787,-3.5076,-3.5826,-3.6581,-3.7355,-3.7392,-3.7466,-3.7595,-3.7595,-3.772,-3.7916,-3.7916,-3.8455,-3.9409,-3.9625,-4.0149,-4.0836,-4.1053,-4.127,-4.1466,-4.1848,-4.1422,-4.051,-4.037,-4.0291,-4.0417,-4.1285,-4.1981,-4.2592,-4.3492,-4.3818,-4.3883,-4.3881,-4.3929,-4.3989,-4.4119,-4.4169,-4.4367,-4.5229,-4.5679,-4.6259,-4.7762,-4.8817,-4.9483,-4.9483,-4.9529,-4.9574,-4.9589,-4.9555,-4.9529,-4.9443,-4.9427,-4.9427,-4.9427,-4.9427,-4.9427,-4.9427,-4.9427,-4.9377,-4.9276,-4.9276,-4.926,-4.9214,-4.9181,-4.9164,-4.9113,-4.9066,-4.8998,-4.8963,-4.8822,-4.8732,-4.8732,-4.8624,-4.855,-4.8513,-4.8457,-4.84,-4.8286,-4.8189,-4.809,-4.7992,-4.7992,-4.7992,0.0,0.0,0.0,0.0,0.0,0.0,0.0,-1.7782,0.0,0.0,0.0,0.0,0.0,0.0,0.0,0.0,0.0,0.0,0.0,0.0,0.0,0.0,0.0,0.0,0.0,0.0,0.0,-3.3713,-3.39,-3.4171,-3.4598,-3.5575,-3.6395,-3.6913,-3.7288,-3.7522,-3.7595,-3.7595,-3.7595,-3.7595,-3.7595,-3.7954,-3.8618,-3.896,-3.9446,-4.0057,-4.0365,-4.0417,-4.037,-4.1172,-4.0873,-3.9879,-3.9608,-3.9694,-4.0114,-4.1049,-4.1875,-4.2723,-4.3587,-4.3913,-4.3961,-4.4011,-4.4058,-4.4101,-4.4195,-4.4255,-4.4397,-4.4909,-4.5596,-4.6542,-4.7901,-4.8934,-4.9634,-4.9634,-4.9663,-4.9692,-4.9692,-4.9692,-4.9682,-4.9593,-4.9578,-4.9578,-4.9578,-4.9578,-4.9578,-4.9578,-4.9578,-4.9563,-4.948,-4.9464,-4.9434,-4.9374,-4.9308,-4.9276,-4.9244,-4.9181,-4.9116,-4.9101,-4.898,-4.8911,-4.8839,-4.875,-4.866,-4.8643,-4.8587,-4.8513,-4.842,-4.8305,-4.8208,-4.8131,-4.8131,-4.8131,0.0,0.0,0.0,0.0,0.0,0.0,-1.5855,-1.7154,0.0,0.0,0.0,0.0,0.0,0.0,0.0,0.0,0.0,0.0,0.0,0.0,0.0,0.0,0.0,0.0,0.0,-3.1486,-3.1872,-3.2675,-3.2998,-3.3617,-3.4623,-3.5545,-3.6079,-3.6185,-3.7005,-3.747,-3.747,-3.7559,-3.7595,-3.7595,-3.7595,-3.7703,-3.7917,-3.8636,-3.9085,-3.9297,-3.9967,-3.9962,-3.9531,-4.0352,-4.0396,-3.9843,-3.9292,-3.9503,-4.0256,-4.1258,-4.2097,-4.2832,-4.3711,-4.4005,-4.402,-4.4169,-4.4199,-4.4214,-4.4285,-4.434,-4.4397,-4.4411,-4.5651,-4.7142,-4.797,-4.8876,-4.9594,-4.9688,-4.9721,-4.9721,-4.9721,-4.9721,-4.9721,-4.9721,-4.9707,-4.9692,-4.9692,-4.9692,-4.9692,-4.9692,-4.9692,-4.9692,-4.9692,-4.9692,-4.9678,-4.9623,-4.9495,-4.9399,-4.934,-4.926,-4.9181,-4.9135,-4.9118,-4.9049,-4.8926,-4.8875,-4.8822,-4.8787,-4.866,-4.8605,-4.8605,-4.842,-4.8344,-4.8344,-4.8344,-4.8344,0.0,0.0,0.0,0.0,0.0,0.0,-1.6042,-1.6855,-1.7733,0.0,0.0,0.0,0.0,0.0,0.0,0.0,0.0,0.0,0.0,0.0,0.0,0.0,0.0,0.0,0.0,-2.9937,-3.0127,-3.042,-3.1232,-3.2383,-3.3898,-3.4215,-3.4691,-3.5383,-3.6221,-3.6631,-3.6631,-3.7291,-3.7595,-3.7595,-3.7595,-3.7703,-3.7917,-3.8061,-3.8238,-3.8444,-3.864,-3.8685,-3.8709,-3.9632,-3.9951,-3.9968,-4.0569,-4.0908,-4.1163,-4.2183,-4.2652,-4.2894,-4.3726,-4.4005,-4.402,-4.4169,-4.4199,-4.4229,-4.4325,-4.4383,-4.4426,-4.4524,-4.5274,-4.6257,-4.7174,-4.8112,-4.8985,-4.9627,-4.9816,-4.9857,-4.9857,-4.9857,-4.9857,-4.9857,-4.9759,-4.9692,-4.9692,-4.9692,-4.9692,-4.9692,-4.9692,-4.9692,-4.9692,-4.9692,-4.9692,-4.9678,-4.9604,-4.9559,-4.9544,-4.9371,-4.9276,-4.926,-4.9214,-4.9131,-4.9049,-4.905,-4.8963,-4.8804,-4.866,-4.8605,-4.8605,-4.855,-4.8532,-4.8532,-4.8532,-4.8532,0.0,0.0,0.0,-1.6467,0.0,0.0,0.0,-1.7084,-1.7506,0.0,0.0,0.0,0.0,0.0,0.0,0.0,0.0,0.0,0.0,0.0,0.0,0.0,0.0,0.0,0.0,-2.9055,-2.9376,-2.9908,-3.0485,-3.1352,-3.2588,-3.3128,-3.378,-3.4616,-3.54,-3.581,-3.581,-3.6595,-3.6988,-3.7024,-3.7435,-3.7739,-3.7899,-3.7933,-3.8037,-3.8209,-3.8274,-3.8338,-3.849,-3.9849,-4.0457,-4.0604,-4.1098,-4.1582,-4.2069,-4.26,-4.3039,-4.3466,-4.3856,-4.4036,-4.4119,-4.4229,-4.427,-4.4314,-4.443,-4.4468,-4.451,-4.4578,-4.5262,-4.6159,-4.7011,-4.7953,-4.884,-4.9654,-4.9885,-4.9912,-4.9912,-4.9912,-4.9912,-4.9912,-4.9843,-4.9802,-4.9802,-4.9802,-4.9802,-4.9802,-4.9802,-4.9802,-4.9802,-4.9802,-4.9792,-4.975,-4.9721,-4.9663,-4.9608,-4.9514,-4.9402,-4.9308,-4.9276,-4.923,-4.915,-4.915,-4.9098,-4.9013,-4.8925,-4.8907,-4.8907,-4.8907,-4.8803,-4.8605,-4.8605,-4.8605,0.0,0.0,0.0,0.0,0.0,-1.676,0.0,0.0,0.0,-1.7489,0.0,0.0,0.0,0.0,0.0,0.0,0.0,0.0,0.0,0.0,0.0,0.0,0.0,0.0,0.0,-2.7924,-2.8409,-2.9337,-2.97,-3.0214,-3.1013,-3.2074,-3.2971,-3.3616,-3.4526,-3.4989,-3.4989,-3.5774,-3.6256,-3.6399,-3.7131,-3.7631,-3.7899,-3.7967,-3.807,-3.8209,-3.8272,-3.8354,-3.8508,-4.0138,-4.0965,-4.1272,-4.1646,-4.2242,-4.2946,-4.3008,-4.3448,-4.4005,-4.402,-4.4119,-4.4214,-4.4285,-4.4354,-4.4426,-4.4501,-4.457,-4.4605,-4.4632,-4.5215,-4.6094,-4.7053,-4.7869,-4.8698,-4.9665,-4.9912,-4.9912,-4.9912,-4.9912,-4.9893,-4.9925,-4.9925,-4.9925,-4.9893,-4.9912,-4.9912,-4.9912,-4.9912,-4.9912,-4.9912,-4.9912,-4.9885,-4.9835,-4.9807,-4.975,-4.9619,-4.9623,-4.9514,-4.934,-4.934,-4.9292,-4.9211,-4.9214,-4.9214,-4.9214,-4.9214,-4.9214,-4.9214,-4.9214,-4.9027,-4.8732,-4.8732,-4.8732,0.0,0.0,0.0,0.0,-1.8217,0.0,0.0,0.0,-1.7489,-1.75,0.0,-1.7709,-1.7805,0.0,0.0,0.0,0.0,0.0,0.0,0.0,0.0,0.0,0.0,0.0,0.0,0.0,-2.5955,-2.6845,-2.7747,-2.8584,-2.9316,-3.0937,-3.1867,-3.1956,-3.3437,-3.4206,-3.4206,-3.4955,-3.5703,-3.6399,-3.663,-3.7147,-3.7899,-3.7967,-3.807,-3.8209,-3.832,-3.8382,-3.8488,-3.958,-4.0565,-4.1514,-4.2955,-4.3613,-4.3783,-4.3844,-4.3912,-4.402,-4.4135,-4.4184,-4.4214,-4.4358,-4.4426,-4.4501,-4.4565,-4.4592,-4.4619,-4.4732,-4.4859,-4.5319,-4.6954,-4.7472,-4.7946,-4.9533,-4.9912,-4.9912,-4.9912,-4.9912,-4.9925,-4.9978,-4.9992,-4.9978,-4.9912,-4.9912,-4.9912,-4.9912,-4.9912,-4.9912,-4.9912,-4.9912,-4.9912,-4.9898,-4.9848,-4.9764,-4.9692,-4.9619,-4.9563,-4.9474,-4.9474,-4.9424,-4.9273,-4.9228,-4.9214,-4.9214,-4.9214,-4.9214,-4.9214,-4.9214,-4.9181,-4.9129,-4.9129,-4.9129,0.0,0.0,0.0,0.0,0.0,0.0,0.0,0.0,-1.7524,0.0,0.0,0.0,0.0,0.0,0.0,0.0,0.0,0.0,0.0,0.0,0.0,0.0,0.0,0.0,0.0,0.0,0.0,0.0,-2.6059,-2.7154,-2.8407,-2.9229,-3.0297,-3.1653,-3.2349,-3.2938,-3.3384,-3.4169,-3.4756,-3.5129,-3.6179,-3.6875,-3.7284,-3.7837,-3.8157,-3.8209,-3.8336,-3.8399,-3.8488,-3.9488,-4.0194,-4.0809,-4.2472,-4.3458,-4.3958,-4.3989,-4.4055,-4.4119,-4.4184,-4.4259,-4.4329,-4.443,-4.4487,-4.4515,-4.4578,-4.4632,-4.4685,-4.4757,-4.4821,-4.5142,-4.6392,-4.7036,-4.77,-4.8926,-4.957,-4.9912,-4.9912,-4.9939,-4.9978,-4.9986,-5.0031,-5.0057,-5.0031,-4.9973,-4.9965,-4.9965,-4.992,-4.9912,-4.9912,-4.9912,-4.9912,-4.9912,-4.9871,-4.983,-4.9764,-4.9736,-4.9678,-4.9623,-4.9608,-4.9593,-4.9525,-4.9514,-4.948,-4.948,-4.948,-4.948,-4.948,-4.948,-4.948,-4.9498,-4.9276,-4.9214,-2.3303,0.0,0.0,0.0,0.0,0.0,0.0,0.0,0.0,0.0,0.0,0.0,0.0,0.0,-1.7512,0.0,0.0,0.0,0.0,0.0,0.0,0.0,0.0,0.0,0.0,0.0,0.0,-2.3217,-2.4294,-2.5451,-2.665,-2.7632,-2.8966,-3.0689,-3.1367,-3.1974,-3.2579,-3.3382,-3.3931,-3.4228,-3.5491,-3.6348,-3.6812,-3.7543,-3.7991,-3.8209,-3.8336,-3.8399,-3.8469,-3.925,-3.9789,-4.0221,-4.1437,-4.2622,-4.3708,-4.3912,-4.4085,-4.4199,-4.4214,-4.4314,-4.4444,-4.4487,-4.4515,-4.4537,-4.4605,-4.4672,-4.4732,-4.4815,-4.4858,-4.5103,-4.5975,-4.662,-4.734,-4.8452,-4.9153,-4.9646,-4.9882,-4.9978,-5.0018,-5.0057,-5.0076,-5.0133,-5.0158,-5.0082,-5.0031,-5.0031,-4.9978,-4.9939,-4.9939,-4.9906,-4.9912,-4.9912,-4.9912,-4.9871,-4.9807,-4.9807,-4.9778,-4.9707,-4.9692,-4.9692,-4.9692,-4.9692,-4.9692,-4.9692,-4.9692,-4.9692,-4.9692,-4.9692,-4.9692,-4.9692,-4.9449,-4.9324,0.0,0.0,0.0,-2.1345,0.0,0.0,0.0,0.0,-1.9917,0.0,0.0,0.0,0.0,-1.8393,-1.7418,-1.5975,0.0,0.0,0.0,0.0,0.0,0.0,0.0,0.0,0.0,0.0,0.0,-2.0709,-2.2311,-2.3323,-2.3443,-2.6402,-2.8162,-2.832,-3.0529,-3.1706,-3.1742,-3.2606,-3.3442,-3.4194,-3.4443,-3.5351,-3.6812,-3.6964,-3.7466,-3.8209,-3.8336,-3.8399,-3.8433,-3.863,-3.9277,-4.0111,-4.0166,-4.127,-4.2927,-4.3708,-4.4085,-4.4199,-4.427,-4.4387,-4.4501,-4.4501,-4.4537,-4.4605,-4.4685,-4.4732,-4.4808,-4.487,-4.4895,-4.5103,-4.5975,-4.6222,-4.6639,-4.8319,-4.8717,-4.8977,-4.9821,-5.0005,-5.0044,-5.0163,-5.0207,-5.0231,-5.029,-5.0182,-5.0095,-5.0095,-5.0044,-5.0005,-5.0005,-4.9952,-4.9912,-4.9912,-4.9912,-4.9871,-4.9807,-4.9807,-4.9778,-4.9707,-4.9692,-4.9692,-4.9692,-4.9692,-4.9692,-4.9692,-4.9692,-4.9692,-4.9692,-4.9692,-4.9692,-4.9692,-4.9692,-4.9678,0.0,0.0,-2.3143,-2.2639,0.0,0.0,0.0,0.0,0.0,0.0,0.0,0.0,0.0,0.0,-1.804,-1.6035,-1.5683,0.0,0.0,0.0,0.0,0.0,0.0,0.0,0.0,0.0,0.0,-1.9101,-2.0208,-2.1595,-2.3212,-2.4869,-2.6534,-2.816,-2.9961,-3.1183,-3.1762,-3.2601,-3.3201,-3.3615,-3.4217,-3.5076,-3.617,-3.6743,-3.7462,-3.8274,-3.8352,-3.843,-3.8478,-3.8667,-3.8988,-3.9353,-3.9949,-4.0956,-4.2162,-4.2981,-4.3677,-4.427,-4.4387,-4.4473,-4.4501,-4.4501,-4.4556,-4.4605,-4.4685,-4.4751,-4.4808,-4.487,-4.4895,-4.4983,-4.5323,-4.5828,-4.6422,-4.7029,-4.7592,-4.82,-4.9081,-4.9308,-4.9498,-5.0092,-5.0243,-5.0278,-5.0302,-5.0267,-5.0219,-5.0163,-5.012,-5.007,-5.007,-5.0018,-4.9978,-4.9978,-4.9939,-4.9898,-4.9871,-4.9871,-4.9857,-4.983,-4.983,-4.983,-4.983,-4.983,-4.983,-4.983,-4.983,-4.983,-4.983,-4.983,-4.983,-4.983,-4.983,-4.9774,-2.5836,-2.4978,0.0,-2.3834,-2.2796,0.0,-2.1883,0.0,0.0,0.0,0.0,0.0,0.0,0.0,0.0,-1.6799,-1.6062,-1.5146,0.0,-1.3278,0.0,0.0,0.0,0.0,0.0,0.0,-1.6887,-1.7497,-1.859,-1.9921,0.0,0.0,-2.4995,-2.6863,-2.8741,-3.0263,-3.1395,-3.225,-3.2883,-3.331,-3.4153,-3.4976,-3.5867,-3.6665,-3.7511,-3.8338,-3.8417,-3.8496,-3.8575,-3.8747,-3.8848,-3.8991,-3.9581,-4.0401,-4.1423,-4.2503,-4.3513,-4.4358,-4.4473,-4.4515,-4.4542,-4.4542,-4.4592,-4.4685,-4.4706,-4.477,-4.4846,-4.4907,-4.495,-4.4943,-4.5033,-4.5444,-4.5969,-4.6321,-4.6796,-4.7405,-4.8286,-4.8741,-4.9158,-4.9709,-5.0068,-5.0302,-5.0302,-5.0302,-5.029,-5.0236,-5.0182,-5.0145,-5.0145,-5.0082,-5.0044,-5.0044,-5.0005,-4.9965,-4.9939,-4.9939,-4.9939,-4.9939,-4.9965,-4.9978,-4.9978,-4.9978,-4.9978,-4.9978,-4.9978,-4.9978,-4.9978,-4.9978,-4.9978,-4.9978,-4.9978,-4.9925]},{"header":{"parameterUnit":"m.s-1","parameterCategory":1,"la1":30.6,"la2":29.2853,"lo1":-89.7004,"lo2":-87.6739,"dy":0.0162,"dx":0.0183,"nx":112,"ny":82,"refTime":"2023-07-15T00:00:00:Z","depth":0,"parameterNumber":3,"parameterNumberName":"V-component_of_WINDS"},"data":[0.0,0.0,0.0,0.0,0.0,0.0,0.0,0.0,0.0,0.0,0.0,0.0,0.0,0.0,0.0,0.0,0.0,0.0,0.0,0.0,0.0,0.0,0.0,0.0,0.0,0.0,0.0,0.0,0.0,0.0,0.0,0.0,0.0,0.0,0.0,0.0,0.0,0.0,0.0,0.0,0.0,0.0,0.0,0.0,0.0,0.0,0.0,0.0,0.0,0.0,0.0,0.0,0.0,0.0,0.0,0.0,0.0,0.0,0.0,0.0,0.0,0.0,0.0,0.0,0.0,0.0,0.0,0.0,0.0,0.0,0.0,0.0,0.0,0.0,0.0,0.0,0.0,0.0,0.0,0.0,0.0,0.0,0.0,0.0,0.0,0.0,0.0,0.0,0.0,0.0,0.0,-1.6569,-1.8339,-1.9348,-1.9227,-1.7999,-1.6402,-1.4457,0.0,0.0,0.0,0.0,0.0,0.0,0.0,0.0,0.0,0.0,0.0,0.0,0.0,0.0,0.0,0.0,0.0,0.0,0.0,0.0,0.0,0.0,0.0,0.0,0.0,0.0,0.0,0.0,0.0,0.0,0.0,0.0,0.0,0.0,0.0,0.0,0.0,0.0,0.0,0.0,0.0,0.0,0.0,0.0,0.0,0.0,0.0,0.0,0.0,0.0,0.0,0.0,0.0,0.0,0.0,0.0,0.0,0.0,0.0,0.0,0.0,0.0,0.0,0.0,0.0,0.0,0.0,0.0,0.0,0.0,0.0,0.0,0.0,0.0,0.0,0.0,0.0,0.0,0.0,0.0,0.0,0.0,0.0,0.0,0.0,0.0,0.0,0.0,0.0,0.0,0.0,0.0,0.0,0.0,0.0,0.0,0.0,0.0,0.0,0.0,0.0,0.0,0.0,0.0,-1.552,-1.8364,-1.9885,-2.0474,-1.9825,-1.8609,-1.7015,-1.5011,0.0,0.0,0.0,0.0,0.0,0.0,0.0,0.0,0.0,0.0,0.0,0.0,0.0,0.0,0.0,0.0,0.0,0.0,0.0,0.0,0.0,0.0,0.0,0.0,0.0,0.0,0.0,0.0,0.0,0.0,0.0,0.0,0.0,0.0,0.0,0.0,0.0,0.0,0.0,0.0,0.0,0.0,0.0,0.0,0.0,0.0,0.0,0.0,0.0,0.0,0.0,0.0,0.0,0.0,0.0,0.0,0.0,0.0,0.0,0.0,0.0,0.0,0.0,0.0,0.0,0.0,0.0,0.0,0.0,0.0,0.0,0.0,0.0,0.0,0.0,0.0,0.0,0.0,0.0,0.0,0.0,0.0,0.0,0.0,0.0,0.0,0.0,0.0,0.0,0.0,0.0,0.0,0.0,0.0,0.0,0.0,0.0,0.0,0.0,0.0,0.0,0.0,0.0,-1.571,-1.741,-1.987,-2.0654,-2.0845,-2.0468,-1.8917,-1.7107,-1.5123,-1.3148,0.0,0.0,0.0,0.0,0.0,0.0,0.0,0.0,0.0,0.0,0.0,0.0,0.0,0.0,0.0,0.0,0.0,0.0,0.0,0.0,0.0,0.0,0.0,0.0,0.0,0.0,0.0,0.0,0.0,0.0,0.0,0.0,0.0,0.0,0.0,0.0,0.0,0.0,0.0,0.0,0.0,0.0,0.0,0.0,0.0,0.0,0.0,0.0,0.0,0.0,0.0,0.0,0.0,0.0,0.0,0.0,0.0,0.0,0.0,0.0,0.0,0.0,0.0,0.0,0.0,0.0,0.0,0.0,0.0,0.0,0.0,0.0,0.0,0.0,0.0,0.0,0.0,0.0,0.0,0.0,0.0,0.0,0.0,0.0,0.0,0.0,0.0,0.0,0.0,0.0,0.0,0.0,0.0,0.0,0.0,0.0,0.0,0.0,0.0,0.0,0.0,0.0,-1.7672,-1.9236,-2.0828,-2.1257,-2.1267,-2.0894,-1.9156,-1.7195,-1.5091,-1.3221,0.0,0.0,0.0,0.0,0.0,0.0,0.0,0.0,0.0,0.0,0.0,0.0,0.0,0.0,0.0,0.0,0.0,0.0,0.0,0.0,0.0,0.0,0.0,0.0,0.0,0.0,0.0,0.0,0.0,0.0,0.0,0.0,0.0,0.0,0.0,0.0,0.0,0.0,0.0,0.0,0.0,0.0,0.0,0.0,0.0,0.0,0.0,0.0,0.0,0.0,0.0,0.0,0.0,0.0,0.0,0.0,0.0,0.0,0.0,0.0,0.0,0.0,0.0,0.0,0.0,0.0,0.0,0.0,0.0,0.0,0.0,0.0,0.0,0.0,0.0,0.0,0.0,0.0,0.0,0.0,0.0,0.0,0.0,0.0,0.0,0.0,0.0,0.0,0.0,0.0,0.0,0.0,0.0,0.0,0.0,0.0,0.0,0.0,0.0,0.0,0.0,0.0,-1.8404,-2.0233,-2.0915,-2.1997,-2.2131,-2.0819,-1.9453,-1.7553,-1.4979,-1.3571,0.0,0.0,0.0,0.0,0.0,0.0,0.0,0.0,0.0,0.0,0.0,0.0,0.0,0.0,0.0,0.0,0.0,0.0,0.0,0.0,0.0,0.0,0.0,0.0,0.0,0.0,0.0,0.0,0.0,0.0,0.0,0.0,0.0,0.0,0.0,0.0,0.0,0.0,0.0,0.0,0.0,0.0,0.0,0.0,0.0,0.0,0.0,0.0,0.0,0.0,0.0,0.0,0.0,0.0,0.0,0.0,0.0,0.0,0.0,0.0,0.0,0.0,0.0,0.0,0.0,0.0,0.0,0.0,0.0,0.0,0.0,0.0,0.0,0.0,0.0,0.0,0.0,0.0,0.0,0.0,0.0,0.0,0.0,0.0,0.0,0.0,0.0,0.0,0.0,0.0,0.0,0.0,0.0,0.0,0.0,0.0,0.0,0.0,0.0,0.0,0.0,0.0,-1.8738,-2.0335,0.0,-2.2083,-2.2232,-2.0833,-1.9831,-1.8139,-1.5539,0.0,0.0,0.0,0.0,0.0,0.0,0.0,0.0,0.0,0.0,0.0,0.0,0.0,0.0,0.0,0.0,0.0,0.0,0.0,0.0,0.0,0.0,0.0,0.0,0.0,0.0,0.0,0.0,0.0,0.0,0.0,0.0,0.0,0.0,0.0,0.0,0.0,0.0,0.0,0.0,0.0,0.0,0.0,0.0,0.0,0.0,0.0,0.0,0.0,0.0,0.0,0.0,0.0,0.0,0.0,0.0,0.0,0.0,0.0,0.0,0.0,0.0,0.0,0.0,0.0,0.0,0.0,0.0,0.0,0.0,0.0,0.0,0.0,0.0,0.0,0.0,0.0,0.0,0.0,0.0,0.0,0.0,0.0,0.0,0.0,0.0,0.0,0.0,0.0,0.0,0.0,0.0,0.0,0.0,0.0,0.0,0.0,0.0,0.0,0.0,0.0,0.0,-1.7272,-1.9203,-2.0605,0.0,-2.2155,-2.2259,-2.1055,-2.0075,-1.8539,-1.6171,0.0,0.0,0.0,0.0,0.0,0.0,0.0,0.0,0.0,0.0,0.0,0.0,0.0,0.0,0.0,0.0,0.0,0.0,0.0,0.0,0.0,0.0,0.0,0.0,0.0,0.0,0.0,0.0,0.0,0.0,0.0,0.0,0.0,0.0,0.0,0.0,0.0,0.0,0.0,0.0,0.0,0.0,0.0,0.0,0.0,0.0,0.0,0.0,0.0,0.0,0.0,0.0,0.0,0.0,0.0,0.0,0.0,0.0,0.0,0.0,0.0,0.0,0.0,0.0,0.0,0.0,0.0,0.0,0.0,0.0,0.0,0.0,0.0,0.0,0.0,0.0,0.0,0.0,0.0,0.0,0.0,0.0,0.0,0.0,0.0,0.0,0.0,0.0,0.0,0.0,0.0,0.0,0.0,0.0,0.0,0.0,0.0,0.0,0.0,0.0,0.0,0.0,-1.7937,-1.9841,-2.1207,-2.1744,-2.2288,-2.2304,-2.1571,-2.0204,-1.8638,0.0,0.0,0.0,0.0,0.0,0.0,0.0,0.0,0.0,0.0,0.0,0.0,0.0,0.0,0.0,0.0,0.0,0.0,0.0,0.0,0.0,0.0,0.0,0.0,0.0,0.0,0.0,0.0,0.0,0.0,0.0,0.0,0.0,0.0,0.0,0.0,0.0,0.0,0.0,0.0,0.0,0.0,0.0,0.0,0.0,0.0,0.0,0.0,0.0,0.0,0.0,0.0,0.0,0.0,0.0,0.0,0.0,0.0,0.0,0.0,0.0,0.0,0.0,0.0,0.0,0.0,0.0,0.0,0.0,0.0,0.0,0.0,0.0,0.0,0.0,0.0,0.0,0.0,0.0,0.0,0.0,0.0,0.0,0.0,0.0,0.0,0.0,0.0,0.0,0.0,0.0,0.0,0.0,0.0,0.0,0.0,0.0,0.0,0.0,0.0,0.0,0.0,0.0,-1.7745,-1.964,-2.1011,-2.1613,-2.2138,-2.2212,-2.1549,-2.0648,-1.9318,-1.745,0.0,0.0,0.0,0.0,0.0,0.0,0.0,0.0,0.0,0.0,0.0,0.0,0.0,0.0,0.0,0.0,0.0,0.0,0.0,0.0,0.0,0.0,0.0,0.0,0.0,0.0,0.0,0.0,0.0,0.0,0.0,0.0,0.0,0.0,0.0,0.0,0.0,0.0,0.0,0.0,0.0,0.0,0.0,0.0,0.0,0.0,0.0,0.0,0.0,0.0,0.0,0.0,0.0,0.0,0.0,0.0,0.0,0.0,0.0,0.0,0.0,0.0,0.0,0.0,0.0,0.0,0.0,0.0,0.0,0.0,0.0,0.0,0.0,0.0,0.0,0.0,0.0,0.0,0.0,0.0,0.0,0.0,0.0,0.0,0.0,0.0,0.0,0.0,0.0,0.0,0.0,0.0,0.0,0.0,0.0,0.0,0.0,0.0,0.0,0.0,0.0,0.0,-1.797,-1.9684,-2.1005,-2.1845,-2.2227,-2.2229,-2.1806,-2.0922,-1.9677,-1.8011,0.0,0.0,0.0,0.0,0.0,0.0,0.0,0.0,0.0,0.0,0.0,0.0,0.0,0.0,0.0,0.0,0.0,0.0,0.0,0.0,0.0,0.0,0.0,0.0,0.0,0.0,0.0,0.0,0.0,0.0,0.0,0.0,0.0,0.0,0.0,0.0,0.0,0.0,0.0,0.0,0.0,0.0,0.0,0.0,0.0,0.0,0.0,0.0,0.0,0.0,0.0,0.0,0.0,0.0,0.0,0.0,0.0,0.0,0.0,0.0,0.0,0.0,0.0,0.0,0.0,0.0,0.0,0.0,0.0,0.0,0.0,0.0,0.0,0.0,0.0,0.0,0.0,0.0,0.0,0.0,0.0,0.0,0.0,0.0,0.0,0.0,0.0,0.0,0.0,0.0,0.0,0.0,0.0,0.0,0.0,0.0,0.0,0.0,0.0,0.0,0.0,0.0,-1.8536,-1.992,-2.1119,-2.2266,-2.237,-2.2324,-2.2208,-2.1088,-1.9838,-1.8553,0.0,0.0,0.0,0.0,0.0,0.0,0.0,0.0,0.0,0.0,0.0,0.0,0.0,0.0,0.0,0.0,0.0,0.0,0.0,0.0,0.0,0.0,0.0,0.0,0.0,0.0,0.0,0.0,0.0,0.0,0.0,0.0,0.0,0.0,0.0,0.0,0.0,0.0,0.0,0.0,0.0,0.0,0.0,0.0,0.0,0.0,0.0,0.0,0.0,0.0,0.0,0.0,0.0,0.0,0.0,0.0,0.0,0.0,0.0,0.0,-1.4123,0.0,0.0,0.0,0.0,0.0,0.0,0.0,0.0,0.0,0.0,0.0,0.0,0.0,0.0,0.0,0.0,0.0,0.0,0.0,0.0,0.0,0.0,0.0,0.0,0.0,0.0,0.0,0.0,0.0,0.0,0.0,0.0,0.0,0.0,0.0,0.0,0.0,0.0,0.0,0.0,0.0,-1.8951,-1.9971,-2.0915,-2.2127,-2.2254,-2.2231,-2.2208,-2.0994,-1.9908,-1.9168,-1.6739,0.0,0.0,0.0,0.0,0.0,0.0,0.0,0.0,0.0,0.0,0.0,0.0,0.0,0.0,0.0,0.0,0.0,0.0,0.0,0.0,0.0,0.0,0.0,0.0,0.0,0.0,0.0,0.0,0.0,0.0,0.0,0.0,0.0,0.0,0.0,0.0,0.0,0.0,0.0,0.0,0.0,0.0,0.0,0.0,0.0,0.0,0.0,0.0,0.0,0.0,0.0,0.0,0.0,0.0,0.0,0.0,0.0,0.0,0.0,0.0,-1.5412,0.0,0.0,0.0,0.0,0.0,0.0,0.0,0.0,0.0,0.0,0.0,0.0,0.0,0.0,0.0,0.0,0.0,0.0,0.0,0.0,0.0,0.0,0.0,0.0,0.0,0.0,0.0,0.0,0.0,0.0,0.0,0.0,0.0,0.0,0.0,0.0,0.0,0.0,0.0,0.0,-1.9151,-2.0245,-2.1181,-2.2109,-2.2208,-2.2184,-2.2114,-2.1192,-2.0206,-1.9218,-1.7545,0.0,0.0,0.0,0.0,0.0,0.0,0.0,0.0,0.0,0.0,0.0,0.0,0.0,0.0,0.0,0.0,0.0,0.0,0.0,0.0,0.0,0.0,0.0,0.0,0.0,0.0,0.0,0.0,0.0,0.0,0.0,0.0,0.0,0.0,0.0,0.0,0.0,0.0,0.0,0.0,0.0,0.0,0.0,0.0,0.0,0.0,0.0,0.0,0.0,0.0,0.0,0.0,0.0,-2.0505,-2.0641,-2.0796,-2.0796,-2.0639,-2.0275,-1.8431,-1.7428,-1.7064,0.0,0.0,0.0,0.0,0.0,0.0,0.0,0.0,0.0,0.0,0.0,0.0,0.0,0.0,0.0,0.0,0.0,0.0,0.0,0.0,0.0,0.0,0.0,0.0,0.0,-1.8721,-1.8302,0.0,0.0,0.0,0.0,0.0,0.0,0.0,0.0,0.0,0.0,0.0,0.0,-1.9468,-2.0573,-2.1451,-2.2067,-2.2137,-2.2091,-2.1973,-2.1379,-2.0493,-1.9215,-1.8399,-1.7014,0.0,0.0,0.0,0.0,0.0,0.0,0.0,0.0,0.0,0.0,0.0,0.0,0.0,0.0,0.0,0.0,0.0,0.0,0.0,0.0,0.0,0.0,0.0,0.0,0.0,0.0,0.0,0.0,0.0,0.0,0.0,0.0,-1.2012,-1.3375,0.0,0.0,0.0,0.0,0.0,0.0,0.0,0.0,0.0,0.0,0.0,0.0,0.0,-1.9914,-2.0518,-2.1392,-2.2152,-2.2752,-2.3274,-2.3404,-2.3151,-2.3151,-2.2963,-2.2644,-2.2355,0.0,-1.9371,-1.9371,0.0,0.0,0.0,0.0,0.0,0.0,0.0,0.0,0.0,0.0,0.0,0.0,0.0,0.0,0.0,0.0,0.0,0.0,0.0,0.0,0.0,0.0,-2.01,-2.072,-2.0952,-2.1013,0.0,-1.9358,-1.7901,-1.7436,-1.697,0.0,0.0,0.0,0.0,0.0,0.0,0.0,-2.0484,-2.0844,-2.1176,-2.1785,-2.1841,-2.1841,-2.1817,-2.1185,-2.0448,-1.9732,-1.8562,-1.7522,-1.6674,-1.506,0.0,0.0,0.0,0.0,0.0,0.0,0.0,0.0,0.0,0.0,0.0,0.0,0.0,0.0,0.0,0.0,0.0,0.0,0.0,0.0,0.0,0.0,0.0,0.0,0.0,0.0,0.0,0.0,0.0,-1.2223,-1.405,-1.533,-1.6002,-1.6473,0.0,0.0,0.0,0.0,0.0,0.0,0.0,0.0,0.0,-2.1126,-2.1813,-2.2565,-2.3359,-2.3977,-2.4596,-2.5158,-2.5621,-2.5735,-2.5505,-2.5396,-2.5045,-2.4519,-2.4519,-2.3791,-2.2573,-2.1904,-2.1465,-2.1129,0.0,0.0,0.0,0.0,-1.841,-1.8672,-1.8983,-1.8884,0.0,-1.912,0.0,0.0,0.0,0.0,0.0,0.0,0.0,0.0,0.0,0.0,-2.2296,-2.3044,-2.3272,-2.3345,-2.3516,-2.2894,-2.1741,0.0,-1.8957,-1.8395,-1.8424,0.0,0.0,0.0,0.0,0.0,-2.1236,-2.1687,-2.2152,-2.2749,-2.2525,-2.228,-2.2207,-2.1585,-2.0926,-2.0234,-1.9383,-1.8479,-1.7529,-1.6091,-1.4748,0.0,0.0,0.0,0.0,0.0,0.0,0.0,0.0,0.0,0.0,0.0,0.0,0.0,0.0,0.0,0.0,0.0,0.0,0.0,0.0,0.0,0.0,0.0,0.0,0.0,0.0,0.0,0.0,-1.4204,-1.5806,-1.7225,-1.803,-1.8685,0.0,0.0,0.0,0.0,0.0,0.0,-2.1372,-2.2081,-2.2921,-2.3877,-2.4298,-2.5031,-2.6074,-2.6319,-2.6733,-2.7287,-2.7522,-2.7559,-2.7343,-2.7192,-2.6813,-2.6239,-2.6239,-2.5979,-2.5461,-2.4092,-2.3265,-2.2797,-2.2276,-2.1784,-2.1303,-2.0633,-2.0454,-2.0627,-2.1036,-2.0912,-2.0667,-2.12,0.0,-2.0598,-2.0598,0.0,0.0,0.0,0.0,-2.215,-2.2264,-2.3056,-2.3966,-2.4633,-2.4828,-2.4908,-2.5092,-2.5201,-2.4547,0.0,-2.0862,-2.0187,-2.0064,0.0,0.0,0.0,0.0,-2.1325,-2.2051,-2.2553,-2.2993,-2.3447,-2.2951,-2.2556,-2.2456,-2.1909,-2.1237,-2.0545,-2.0012,-1.9225,-1.8174,-1.6973,-1.5765,-1.4544,0.0,0.0,0.0,0.0,0.0,0.0,0.0,0.0,0.0,0.0,0.0,0.0,0.0,0.0,0.0,0.0,0.0,0.0,0.0,0.0,0.0,0.0,0.0,0.0,0.0,0.0,0.0,0.0,0.0,-1.9059,-2.0257,0.0,0.0,0.0,0.0,-2.2264,-2.2724,-2.3256,-2.3879,-2.4847,-2.566,-2.6307,-2.66,-2.7268,-2.8428,-2.8331,-2.8486,-2.8873,-2.8912,-2.871,-2.8337,-2.8301,-2.8203,-2.7984,-2.7984,-2.7862,-2.7505,-2.5536,-2.4578,-2.433,-2.3816,-2.3455,-2.3199,-2.2647,-2.277,-2.3212,-2.3249,-2.3236,-2.3212,-2.3249,-2.3028,-2.2747,-2.2747,-2.2825,0.0,0.0,-2.3371,-2.3879,-2.3866,-2.4387,-2.4925,-2.4982,-2.5141,-2.5319,-2.5432,-2.5495,-2.5039,0.0,-2.2896,-2.2379,-2.186,0.0,-2.1124,-2.1822,-2.1982,-2.2288,-2.3039,-2.3147,-2.32,-2.3215,-2.2671,-2.233,-2.2305,-2.1762,-2.1141,-2.0522,-2.0012,-1.9415,-1.8793,-1.7603,-1.639,-1.5172,-1.449,0.0,0.0,0.0,0.0,0.0,0.0,0.0,0.0,0.0,0.0,0.0,0.0,0.0,0.0,0.0,0.0,0.0,0.0,0.0,0.0,0.0,0.0,0.0,0.0,0.0,0.0,0.0,0.0,-2.0849,-2.2041,0.0,-2.343,-2.3737,-2.4136,-2.464,-2.5195,-2.5718,-2.6193,-2.7306,-2.7916,-2.7841,-2.8337,-2.8715,-2.9053,-2.9243,-2.9385,-2.9533,-2.9649,-2.9642,-2.9491,-2.9353,-2.9038,-2.8599,-2.8475,-2.8176,-2.7742,-2.6876,-2.6099,-2.5376,-2.5179,-2.4628,-2.3879,-2.3599,-2.3628,-2.3786,-2.3786,-2.4006,-2.4359,-2.4789,-2.4844,-2.4764,-2.4764,-2.4785,-2.4851,-2.4996,-2.5485,-2.5956,-2.6079,-2.6549,-2.7034,-2.7151,-2.7221,-2.7258,-2.7032,-2.6976,-2.6657,-2.555,-2.4475,-2.3674,-2.3476,-2.2724,-2.2258,-2.2524,-2.255,-2.2791,-2.3433,-2.3513,-2.3661,-2.4064,-2.3567,-2.3031,-2.2656,-2.2066,-2.1464,-2.0863,-1.995,-1.9378,-1.926,-1.7733,-1.6713,-1.6381,-1.4992,-1.388,0.0,0.0,0.0,0.0,0.0,0.0,0.0,0.0,0.0,0.0,0.0,0.0,0.0,0.0,0.0,0.0,0.0,0.0,0.0,0.0,0.0,0.0,0.0,0.0,0.0,0.0,-2.0548,-2.2599,-2.3618,-2.4408,-2.5134,-2.5705,-2.6247,-2.6785,-2.7317,-2.7818,-2.8281,-2.8926,-2.9262,-2.9205,-2.9714,-3.0013,-3.004,-3.0475,-3.0609,-3.0457,-3.0381,-3.0315,-3.0238,-2.9854,-2.945,-2.9049,-2.8846,-2.8546,-2.8149,-2.7986,-2.7384,-2.6493,-2.6382,-2.5821,-2.5083,-2.4992,-2.4992,-2.4992,-2.4992,-2.5222,-2.5573,-2.6031,-2.6212,-2.6272,-2.6272,-2.632,-2.6391,-2.6545,-2.6853,-2.7209,-2.7341,-2.7688,-2.8049,-2.8171,-2.8244,-2.8239,-2.8061,-2.7854,-2.7544,-2.6958,-2.5862,-2.4983,-2.4846,-2.4092,-2.3571,-2.3599,-2.3454,-2.3482,-2.3936,-2.4004,-2.4165,-2.4551,-2.4071,-2.3457,-2.2844,-2.2245,-2.1633,-2.1023,-1.9917,-1.9346,-1.9436,-1.7886,-1.6988,-1.6871,-1.5325,-1.4566,-1.4602,0.0,0.0,0.0,0.0,0.0,0.0,0.0,0.0,0.0,0.0,0.0,0.0,0.0,0.0,0.0,0.0,0.0,0.0,0.0,0.0,0.0,0.0,0.0,-1.91,-2.0202,-2.1897,-2.4267,-2.5011,-2.5776,-2.6925,-2.7513,-2.803,-2.86,-2.9045,-2.9524,-3.0089,-2.9772,-2.9851,-3.0418,-3.085,-3.1199,-3.1526,-3.2069,-3.214,-3.1696,-3.1151,-3.0819,-3.058,-2.9795,-2.9404,-2.9404,-2.917,-2.8961,-2.8791,-2.8803,-2.8382,-2.7693,-2.7329,-2.7085,-2.6898,-2.6898,-2.6898,-2.6898,-2.691,-2.6922,-2.6922,-2.6946,-2.7084,-2.7247,-2.7247,-2.7371,-2.7532,-2.7532,-2.7532,-2.7532,-2.7532,-2.7693,-2.7854,-2.7854,-2.7989,-2.8196,-2.8379,-2.7972,-2.7637,-2.7783,-2.7035,-2.6272,-2.5879,-2.5367,-2.5048,-2.5199,-2.4701,0.0,-2.4589,-2.4605,-2.4591,-2.4591,-2.4056,-2.3456,-2.2871,-2.2259,-2.166,-2.105,-1.9957,-1.9328,-1.9278,-1.8148,-1.7223,-1.6605,-1.5568,-1.5115,-1.5226,0.0,0.0,0.0,0.0,0.0,0.0,0.0,0.0,0.0,0.0,0.0,0.0,0.0,0.0,0.0,0.0,0.0,0.0,0.0,0.0,0.0,0.0,-2.1322,-2.1061,-2.2388,-2.3956,-2.5477,-2.6865,-2.7795,-2.8121,-2.9081,-2.9659,-2.9693,-3.0217,-3.0445,-3.0307,-3.1006,-3.1384,-3.1403,-3.1824,-3.2071,-3.216,-3.1996,-3.1818,-3.1696,-3.141,-3.1145,-3.0929,-3.0328,-2.9948,-2.9724,-2.9132,-2.8843,-2.8803,-2.8657,-2.8454,-2.8234,-2.7743,-2.731,-2.6898,-2.6898,-2.6898,-2.6958,-2.7342,-2.7474,-2.7534,-2.7906,-2.8117,-2.8144,-2.8144,-2.8183,-2.8261,-2.8405,-2.8443,-2.8482,-2.8611,-2.8688,-2.8739,-2.8739,-2.8907,-2.8948,-2.8625,-2.8236,-2.7915,-2.7688,-2.7096,-2.6488,-2.6077,-2.5658,-2.5376,-2.5408,-2.5079,0.0,-2.4876,-2.4508,-2.4229,-2.4229,-2.4084,-2.3756,-2.3152,-2.2588,-2.201,-2.1405,-2.0302,-1.9522,-1.9169,-1.8416,-1.7552,-1.6625,-1.6312,-1.6014,0.0,0.0,0.0,0.0,0.0,0.0,0.0,0.0,0.0,0.0,0.0,0.0,0.0,0.0,0.0,0.0,0.0,0.0,0.0,0.0,0.0,0.0,-2.2466,-2.3525,-2.3835,-2.4518,-2.5513,-2.6971,-2.8012,-2.8758,-2.9193,-3.0078,-3.0562,-3.036,-3.0851,-3.111,-3.1114,-3.166,-3.1979,-3.2045,-3.2485,-3.2621,-3.2459,-3.2444,-3.2351,-3.2281,-3.1822,-3.1543,-3.1394,-3.0449,-2.993,0.0,-2.9007,-2.8657,-2.8657,-2.855,-2.851,0.0,0.0,0.0,0.0,0.0,-2.7558,-2.7594,-2.7945,-2.8053,-2.8102,-2.8414,-2.8655,-2.8847,-2.8847,-2.8991,-2.92,-2.9322,-2.9351,-2.9363,-2.9484,-2.9394,-2.9303,-2.9303,-2.929,-2.9188,-2.8867,-2.8363,-2.7912,-2.7708,-2.711,0.0,-2.6329,-2.5992,-2.5736,-2.5736,-2.5399,-2.513,-2.513,-2.4607,-2.4227,-2.4227,-2.402,-2.3674,-2.3078,-2.2522,0.0,0.0,0.0,-1.9504,-1.9042,-1.8687,0.0,0.0,0.0,-1.7534,-1.733,0.0,0.0,0.0,-1.5797,-1.5963,0.0,0.0,0.0,0.0,0.0,0.0,0.0,0.0,0.0,0.0,0.0,0.0,0.0,0.0,0.0,0.0,-2.4611,-2.5776,-2.6898,-2.664,-2.6911,-2.8473,-2.8785,-2.9206,-3.0089,-3.0712,-3.0989,-3.0796,-3.1093,-3.1523,-3.2027,0.0,0.0,0.0,0.0,-3.3036,-3.2621,-3.3115,-3.327,-3.3068,-3.2311,-3.1948,-3.1868,-3.0445,-2.974,-2.9614,-2.8903,-2.857,-2.851,-2.851,-2.8471,-2.8471,-2.8471,-2.8431,-2.8431,-2.8431,-2.8431,-2.8431,-2.8431,0.0,0.0,-2.8491,-2.8826,-2.9222,-2.9294,-2.9642,-3.0044,-3.0044,-3.0044,-3.0044,-3.0086,-2.9891,-2.9638,-2.9565,-2.9361,-2.9126,-2.9064,-2.842,-2.7829,-2.7779,-2.7091,-2.654,-2.6477,-2.6308,-2.6176,-2.6176,-2.5723,-2.5397,-2.5397,-2.4878,-2.4476,-2.4413,0.0,0.0,-2.2936,-2.2283,-2.1706,-2.1206,-2.018,-1.9411,-1.9005,-1.8914,-1.8947,-1.9074,-1.9074,-1.9142,-1.9278,-1.9414,-1.9508,-1.9535,-1.7997,-1.7909,0.0,0.0,0.0,0.0,0.0,0.0,0.0,0.0,0.0,0.0,0.0,0.0,0.0,0.0,0.0,-2.5912,-2.6968,-2.7897,-2.8643,-2.8913,-2.9053,-2.9087,-2.9935,-3.0537,-3.0575,-3.1149,-3.1386,-3.1212,-3.1244,-3.1448,-3.1848,-3.2124,0.0,-3.3013,-3.3248,-3.3318,-3.3246,-3.3177,-3.3025,-3.2766,0.0,0.0,-3.1942,-3.1229,-3.0567,-2.9977,-2.9417,-2.8907,-2.851,-2.851,-2.8379,-2.8259,-2.8259,-2.8151,-2.8002,-2.8002,-2.8002,-2.8002,-2.8002,-2.8002,-2.8073,-2.8474,-2.8663,-2.8828,-2.9235,-2.9435,0.0,-2.9706,-2.9791,-2.9833,-3.0044,-3.0043,-2.9904,-2.947,-2.9452,-2.9366,-2.8928,-2.8499,-2.8087,-2.7644,-2.7186,-2.6758,-2.631,-2.6445,-2.6583,-2.6583,-2.6212,-2.5941,-2.5941,-2.5486,-2.493,-2.4451,-2.431,-2.4016,-2.3483,-2.2514,-2.186,-2.1758,-2.0297,-1.9458,-1.9451,-1.9009,-1.8796,-1.8934,-1.8934,-1.9015,-1.9142,-1.9165,-1.9472,-2.005,-1.944,-1.9307,0.0,0.0,0.0,0.0,0.0,0.0,0.0,0.0,0.0,0.0,0.0,-2.3996,0.0,0.0,-2.7135,-2.7739,-2.8518,-2.9153,-2.9447,-2.9926,-3.0179,-2.9955,-3.0485,-3.0895,-3.0993,-3.1262,-3.136,-3.1161,-3.1323,-3.1589,-3.2084,-3.2429,-3.2834,-3.3303,-3.3386,-3.3356,-3.324,-3.3025,-3.2853,-3.2711,-3.2463,-3.2245,-3.1969,-3.1324,-3.0707,-3.0062,-2.9532,-2.8963,-2.8339,-2.8231,-2.807,-2.7846,-2.7846,-2.7857,-2.7893,-2.7893,-2.7893,-2.7893,-2.7893,-2.8045,-2.8304,-2.8539,-2.8944,-2.9468,-2.9707,-3.0008,-3.0208,-3.0327,-3.0371,-3.0371,-3.0502,-3.0343,-3.0124,-2.9935,-2.9594,-2.9208,-2.9064,-2.8585,-2.8081,-2.7812,-2.7262,-2.6779,-2.6625,-2.6514,-2.6499,-2.6589,-2.6418,-2.6308,-2.6308,-2.58,-2.5242,-2.4646,-2.4361,-2.3968,-2.3398,-2.235,-2.1604,-2.1419,-2.0348,-1.9748,-1.9897,-1.97,-1.9618,-1.969,-1.9762,-1.9978,-2.0304,-2.0377,-2.0741,-2.1385,-2.0997,-2.0688,0.0,0.0,0.0,0.0,0.0,0.0,0.0,0.0,-2.3547,-2.4158,-2.5578,-2.6719,-2.6719,-2.8013,-2.9124,-2.9244,-2.9608,-2.9967,-3.0073,-3.0498,-3.0755,-3.0755,-3.0791,-3.094,-3.122,-3.1198,-3.1123,-3.0949,-3.1254,-3.1719,-3.2327,-3.2652,-3.3008,-3.3386,-3.3356,-3.3227,-3.3025,-3.281,-3.2624,-3.255,-3.2157,-3.1981,-3.1925,-3.1315,-3.073,-3.005,-2.9371,-2.8733,-2.8139,-2.7909,-2.7696,-2.7522,-2.7441,-2.7574,-2.776,-2.776,-2.776,-2.7783,-2.7877,-2.8181,-2.8532,-2.8701,-2.9375,-3.0089,-3.0194,-3.051,-3.0838,-3.0927,-3.0927,-3.0927,-3.0984,-3.0678,-3.037,-3.0426,-2.9723,-2.9094,-2.9193,-2.8614,-2.8057,-2.7948,-2.7395,-2.6919,-2.6902,-2.6542,-2.6348,-2.6477,-2.6499,-2.6499,-2.6499,-2.6084,-2.5523,-2.4863,-2.4418,-2.3841,-2.3007,-2.2159,-2.1473,-2.1053,-2.0546,-2.0359,-2.0476,-2.0656,-2.0746,-2.0772,-2.0887,-2.1185,-2.1629,-2.176,-2.2089,-2.2536,-2.2207,-2.1791,-2.1212,-2.1185,-2.1276,-2.1877,-2.2535,-2.3327,0.0,0.0,-2.5989,-2.656,-2.7721,-2.8598,-2.8598,-2.9204,-2.9856,-3.041,-3.0413,-3.053,-3.1045,-3.1029,-3.0957,-3.0957,-3.1143,-3.1169,-3.1048,-3.0874,-3.0773,-3.0736,-3.1048,-3.151,-3.2087,-3.2393,-3.2827,-3.3373,-3.324,-3.3025,-3.2754,-3.2711,-3.2506,-3.2069,-3.2038,-3.1893,-3.1705,-3.1645,-3.1079,-3.0037,-2.8824,-2.8158,-2.7921,-2.7655,-2.7522,-2.7482,-2.7301,-2.7272,-2.7272,-2.7272,-2.7272,-2.7341,-2.7831,-2.8015,-2.8211,-2.912,-2.9489,-2.9673,-3.0054,-3.0215,-3.0352,-3.0578,-3.0623,-3.0724,-3.0927,-3.0937,-3.0784,-3.0358,-2.9922,-2.9492,-2.9029,-2.8674,-2.8321,-2.7852,-2.7801,-2.7564,-2.6639,-2.6588,-2.6606,-2.6493,-2.6499,-2.6499,-2.6499,-2.6436,-2.5996,-2.4901,-2.4738,-2.4061,-2.2506,-2.2284,-2.1983,-2.1471,-2.137,-2.1375,-2.154,-2.154,-2.1635,-2.1743,-2.1894,-2.1974,-2.2038,-2.2214,-2.2362,-2.2415,-2.2484,-2.2273,-2.2354,-2.3165,0.0,0.0,-2.5097,-2.6005,-2.6862,-2.7295,-2.767,-2.8262,-2.9039,-2.9596,-2.9596,-3.0092,-3.0603,0.0,-3.0806,-3.0823,-3.1097,-3.1061,-3.0986,-3.0986,-3.0986,-3.0911,-3.0849,-3.0736,-3.066,-3.0533,-3.1123,-3.1616,-3.1858,-3.2503,-3.2958,-3.324,-3.2982,-3.2797,-3.2711,-3.2419,-3.2201,-3.1994,-3.1893,-3.1717,-3.1484,-3.1484,-3.0823,-2.9659,-2.8675,-2.8029,-2.7655,-2.7412,-2.733,-2.7342,-2.7231,-2.719,-2.719,-2.719,-2.719,-2.7259,-2.7805,-2.8172,-2.8517,-2.9263,-2.9688,-3.0009,-3.0526,-3.0686,-3.0744,-3.117,-3.1309,-3.124,-3.1043,-3.102,-3.088,-3.0538,-3.01,-2.966,-2.927,-2.8958,-2.8569,-2.8084,-2.7921,-2.7714,-2.738,-2.6895,-2.6564,-2.6627,-2.6352,-2.6154,-2.6154,-2.6154,-2.5732,-2.464,-2.3958,-2.33,-2.2605,-2.2204,-2.1948,-2.1852,-2.1515,-2.1397,-2.1564,-2.1675,-2.1731,-2.1799,-2.1909,-2.2187,-2.262,-2.2717,-2.297,-2.3367,-2.3083,-2.285,-2.3734,0.0,0.0,-2.6603,-2.7456,-2.8404,-2.917,-2.934,-2.9457,-2.9902,-3.0283,-3.0518,-3.0361,-3.0712,0.0,-3.0986,-3.0986,-3.0986,-3.0986,-3.0986,-3.0986,-3.0911,-3.0811,-3.066,-3.0546,-3.0546,-3.0457,-3.033,-3.1142,-3.1615,-3.1615,-3.255,-3.3081,-3.2982,-3.2797,-3.2624,-3.2506,-3.2157,-3.195,-3.1805,-3.1673,-3.1439,-3.1217,-3.1075,-3.0457,-2.9488,-2.8784,-2.8189,-2.762,-2.7467,-2.7316,-2.719,-2.719,-2.719,-2.712,-2.7257,-2.7355,-2.7506,-2.8,-2.8505,-2.901,-2.9527,-3.0032,-3.0503,-3.0893,-3.1111,-3.1295,-3.171,-3.1813,-3.1733,-3.1318,-3.1123,-3.0962,-3.0754,-3.0254,-2.9715,-2.9375,-2.904,-2.8686,-2.8205,-2.7961,-2.7846,-2.7833,-2.7123,-2.6554,-2.6541,-2.6065,-2.5758,-2.5875,-2.5652,-2.516,-2.4374,-2.3329,-2.272,-2.272,-2.2309,-2.2105,-2.2266,-2.1852,-2.1716,-2.1888,-2.1961,-2.2046,-2.2075,-2.2242,-2.2588,-2.31,-2.3157,-2.3434,-2.3953,-2.3582,-2.3295,0.0,0.0,-2.7522,-2.8627,-2.9483,-3.0322,-3.1445,-3.1693,-3.1706,-3.1719,-3.1745,-3.1575,-3.1065,-3.0973,-3.0986,-3.0986,-3.0986,-3.0986,-3.0986,-3.0986,-3.0911,-3.0736,-3.0698,-3.0546,0.0,-3.0113,-3.0126,-3.0113,-3.0943,-3.1427,-3.1427,-3.2466,-3.2982,-3.2711,-3.2711,-3.2463,-3.2038,-3.1994,-3.1761,-3.1306,-3.1306,-3.1229,-3.1005,-3.0467,-3.0065,-2.9764,-2.921,-2.8626,-2.7996,-2.7966,-2.7667,-2.719,-2.719,-2.7067,-2.6948,-2.7405,-2.7755,-2.8023,-2.8517,-2.9022,-2.955,-3.0044,-3.056,-3.0996,-3.1008,-3.1352,-3.179,-3.1813,-3.1813,-3.1813,-3.179,-3.1387,-3.1008,-3.0996,-3.0385,-2.9671,-2.9117,-2.8818,-2.848,-2.7987,-2.8059,-2.8028,-2.7528,-2.7107,-2.6731,-2.6178,-2.5648,-2.5453,-2.5828,-2.4988,-2.4337,-2.43,-2.3329,-2.272,-2.272,-2.2665,-2.2696,-2.2684,-2.2671,-2.272,-2.2859,-2.2859,-2.2919,-2.3058,-2.325,-2.3365,-2.3378,-2.3514,-2.3573,-2.3628,-2.3806,-2.3554,0.0,0.0,-2.9367,-2.9765,-3.0624,-3.15,-3.2044,-3.1889,-3.1656,-3.1772,-3.1197,-3.0609,-3.0451,-3.0111,-2.9849,-2.9849,-3.0176,-3.0338,-3.0214,-3.0564,-3.0736,-3.052,-3.0381,0.0,0.0,0.0,0.0,-3.0424,-3.1025,-3.1508,-3.1718,-3.2441,-3.2723,-3.2519,-3.2344,-3.2157,-3.1994,-3.1673,-3.1439,-3.1306,-3.0982,-3.0814,-3.0724,-3.037,-2.9981,-2.9558,-2.9242,-2.8756,-2.8268,-2.8053,-2.7876,-2.773,-2.773,-2.7676,-2.7656,-2.7824,-2.8126,-2.8507,-2.8665,-2.8923,-2.9385,-3.0216,-3.0719,-3.1134,-3.1789,-3.211,-3.2317,-3.2673,-3.2825,-3.2695,-3.234,-3.188,-3.1433,-3.11,-3.0514,-2.9915,-2.9431,-2.9086,-2.8733,-2.8244,-2.8075,-2.7943,-2.7766,-2.7049,-2.6275,-2.5541,-2.5361,-2.5347,-2.55,-2.4614,-2.3971,-2.3971,-2.3013,-2.2383,-2.2383,-2.2383,-2.2402,-2.2494,-2.2482,-2.2574,-2.2769,-2.2769,-2.28,-2.283,-2.3,-2.312,-2.3198,-2.339,-2.3509,-2.3599,-2.3658,-2.3585,-2.7597,-2.8971,-3.0369,-3.0968,-3.1749,-3.2367,-3.2557,-3.2119,-3.1642,-3.1435,-3.0509,-2.965,-2.9513,-2.9017,-2.8656,-2.8829,-2.9132,-2.9401,-2.9656,-3.0043,-3.0277,-3.0305,-3.019,0.0,0.0,0.0,0.0,-3.0583,-3.1029,-3.1485,-3.1878,-3.2339,-3.2463,-3.2257,-3.2081,-3.1906,-3.1761,-3.1439,-3.1217,-3.1026,-3.0668,-3.0442,-3.0442,-3.0182,-2.9931,-2.9634,-2.9342,-2.8958,-2.8474,-2.8298,-2.8164,-2.8008,-2.8008,-2.7964,-2.7899,-2.8077,-2.8277,-2.8488,-2.8668,-2.9071,-2.9613,-3.0256,-3.0814,-3.1376,-3.2002,-3.2419,-3.2697,-3.3039,-3.3242,-3.3201,-3.2868,-3.2319,-3.1733,-3.1364,-3.0732,-3.0089,-2.9596,-2.9166,-2.8734,-2.8291,-2.7947,-2.7748,-2.7748,-2.696,-2.5991,-2.5111,-2.5087,-2.5147,-2.5206,-2.4342,-2.3661,-2.3594,-2.2663,-2.2011,-2.2011,-2.2073,-2.2123,-2.2204,-2.2297,-2.2402,-2.2586,-2.2586,-2.2616,-2.272,-2.2769,-2.2878,-2.2969,-2.312,-2.3271,-2.336,-2.348,-2.3539,-2.9214,-2.9997,-3.0582,-3.2168,-3.2698,-3.2864,-3.2854,-3.2421,-3.1716,-3.0802,-2.9663,-2.8724,0.0,0.0,-2.732,-2.7816,-2.788,-2.8225,-2.9255,-2.946,-2.9628,0.0,0.0,0.0,0.0,0.0,0.0,-3.0618,0.0,-3.1369,-3.1873,-3.2192,-3.2257,-3.1981,-3.1994,-3.1761,-3.1306,-3.1261,-3.1026,-3.0578,-3.0306,-3.017,-3.017,-2.9966,-2.9886,-2.984,-2.9588,-2.9171,-2.8701,-2.8701,-2.8433,-2.8042,-2.8042,-2.791,-2.7822,-2.8253,-2.8272,-2.8125,-2.8599,-2.9349,-3.0189,-3.0222,-3.0882,-3.1726,-3.1737,-3.2295,-3.2891,-3.2891,-3.3081,-3.3281,-3.3281,-3.2523,-3.1766,-3.1766,-3.0973,-3.0044,-2.963,-2.9114,-2.8597,-2.8115,-2.7741,-2.7458,-2.7412,-2.6796,-2.5953,-2.4942,-2.479,-2.4849,-2.5016,-2.4113,-2.3404,-2.3179,-2.2286,-2.1698,-2.1698,-2.1812,-2.1894,-2.1894,-2.2092,-2.2247,-2.2359,-2.2389,-2.2482,-2.2678,-2.2678,-2.2678,-2.2678,-2.283,-2.2878,-2.2909,-2.321,-2.336,-2.9641,-3.071,-3.177,-3.2198,-3.2353,-3.2322,-3.2123,-3.1311,-3.0369,-2.9466,-2.8009,-2.6747,0.0,0.0,0.0,-2.5402,-2.6449,0.0,-2.8013,-2.8778,0.0,0.0,0.0,-2.9869,-2.9792,-3.0099,0.0,0.0,-3.1435,-3.1771,-3.1968,-3.2052,-3.1981,-3.1793,-3.1572,-3.1439,-3.1306,-3.0937,-3.0623,-3.0306,-3.0102,-2.9977,-2.9977,-2.9726,-2.9588,-2.9588,-2.9312,-2.9096,-2.8986,-2.8848,-2.869,-2.858,-2.858,-2.858,-2.8545,-2.8666,-2.8674,-2.8672,-2.9127,-2.9565,-3.0041,-3.0385,-3.1053,-3.1782,-3.219,-3.2454,-3.2606,-3.2606,-3.2656,-3.2706,-3.2706,-3.1961,-3.1264,-3.1408,-3.0694,-2.9977,-3.0021,-2.9642,-2.9137,-2.8609,-2.7858,-2.7019,-2.6299,-2.6109,-2.5751,-2.4725,-2.4718,-2.4672,-2.433,-2.3682,-2.3128,-2.273,-2.2086,-2.1698,-2.1698,-2.173,-2.1761,-2.1761,-2.1906,-2.1987,-2.2018,-2.2185,-2.2278,-2.2321,-2.2432,-2.2482,-2.2482,-2.2678,-2.2739,-2.2769,-2.2951,-2.2817,-3.0498,-3.1442,-3.2277,-3.2528,-3.2403,-3.2055,-3.1398,-3.0212,-2.8909,-2.7752,-2.5992,0.0,0.0,0.0,0.0,0.0,0.0,0.0,-2.6927,-2.7849,-2.861,0.0,-2.9641,0.0,-2.9949,-3.0328,-3.0766,0.0,-3.1434,-3.1712,-3.2001,-3.1906,-3.1761,-3.1528,-3.1395,-3.1217,-3.0982,-3.0623,-3.0306,-3.0045,-2.9931,-2.984,-2.9737,-2.9451,-2.9301,-2.9301,0.0,-2.8989,-2.8943,-2.885,-2.8803,-2.8803,-2.8803,-2.8803,-2.8803,-2.8803,-2.8935,-2.9153,-2.939,-2.9858,-3.0361,-3.0673,-3.1131,-3.1734,-3.1999,-3.219,-3.228,-3.228,-3.2392,-3.2493,-3.2493,-3.1921,-3.1282,-3.1213,-3.0582,-3.0008,-2.9897,-2.9511,-2.8955,-2.8228,-2.7455,-2.6655,-2.5732,-2.5677,-2.5447,-2.4507,-2.4268,-2.4002,-2.3502,-2.3221,-2.2893,-2.2292,-2.1769,-2.1466,-2.1466,-2.1517,-2.158,-2.158,-2.1718,-2.1812,-2.1812,-2.1968,-2.2061,-2.2061,-2.2216,-2.2309,-2.2309,-2.2482,-2.2586,-2.2586,-2.2787,-2.2611,-3.1493,-3.2067,-3.2386,-3.2855,-3.2478,-3.17,-3.0545,-2.8988,-2.7316,-2.5734,0.0,-2.2356,-2.2316,0.0,-2.1158,-2.2664,0.0,-2.3747,-2.5971,-2.6813,-2.7607,-2.875,-2.9339,-2.9788,-3.0176,-3.0707,-3.107,-3.1199,-3.1253,-3.1452,-3.1925,-3.1761,-3.1528,-3.1217,-3.1217,-3.0982,-3.0532,-3.0306,-3.0045,-2.9886,-2.984,-2.9691,-2.9439,-2.9174,-2.9082,-2.9035,0.0,0.0,-2.8757,-2.8757,-2.871,-2.871,-2.871,-2.8743,-2.8798,-2.8798,-2.9067,-2.9491,-2.9556,-3.0112,-3.0798,-3.0898,-3.1225,-3.1618,-3.1618,-3.1772,-3.1975,-3.1975,-3.2179,-3.2392,-3.2392,-3.1984,-3.1482,-3.1039,-3.0547,-3.0055,-2.9597,-2.9048,-2.8366,-2.7558,-2.6942,-2.6352,-2.5577,-2.5401,-2.5115,-2.4331,-2.376,-2.3222,-2.2685,-2.2763,-2.2554,-2.1848,-2.139,-2.1158,-2.1158,-2.1273,-2.1368,-2.1368,-2.1549,-2.1655,-2.1655,-2.1812,-2.1874,-2.1894,-2.2061,-2.2154,-2.2197,-2.234,-2.2359,-2.2389,-2.2652,-2.2481,-3.1662,-3.2226,-3.2573,-3.2411,-3.1625,-3.0482,-2.89,-2.7243,0.0,0.0,0.0,-2.0758,-1.9825,-1.9472,0.0,-2.0315,0.0,0.0,0.0,0.0,-2.718,0.0,0.0,0.0,0.0,0.0,0.0,0.0,0.0,-3.1653,-3.1749,-3.1484,-3.116,-3.0758,-3.0713,-3.0578,-3.0261,-3.0057,-2.9931,-2.9886,-2.9462,-2.922,-2.9174,-2.8943,-2.885,-2.885,-2.8803,0.0,-2.8488,-2.8488,-2.8337,-2.8139,-2.8139,-2.8385,-2.8727,-2.8727,-2.9026,-2.9496,-2.9842,-3.0077,-3.0317,-3.0747,-3.1225,-3.1618,-3.1618,-3.1618,-3.1669,-3.1669,-3.1721,-3.1783,-3.1783,-3.142,-3.0976,-3.0747,-3.0282,-2.9889,-2.9551,-2.8768,-2.8085,-2.7917,-2.7209,-2.6412,-2.584,-2.5391,-2.4959,-2.4374,-2.3868,-2.3253,-2.2306,-2.2138,-2.1825,-2.1149,-2.098,-2.0935,-2.0935,-2.0955,-2.1051,-2.1221,-2.1368,-2.1463,-2.1463,-2.1624,-2.1781,-2.1894,-2.1925,-2.203,-2.2197,-2.2216,-2.2216,-2.2247,-2.2078,-2.1694,-3.1514,-3.2017,-3.2269,-3.2193,-3.1185,-2.9817,-2.8423,0.0,0.0,0.0,0.0,-1.8818,-1.8267,0.0,0.0,0.0,0.0,0.0,0.0,0.0,0.0,0.0,0.0,0.0,0.0,0.0,0.0,0.0,0.0,-3.1484,-3.1484,-3.1116,-3.0847,-3.0623,-3.0442,-3.0261,-3.0057,-2.9931,-2.9748,-2.9462,-2.922,-2.8989,-2.871,-2.8628,-2.8524,-2.8373,-2.8373,0.0,-2.8196,-2.8196,-2.8241,-2.8359,-2.8359,-2.8647,-2.9072,-2.9072,-2.937,-2.9817,-3.004,-3.0285,-3.0487,-3.0732,-3.0984,-3.1178,-3.1178,-3.1178,-3.123,-3.1322,-3.1373,-3.1424,-3.1578,-3.1455,-3.1144,-3.052,-2.9844,-2.9286,-2.9172,-2.8553,-2.7922,-2.7657,-2.7092,-2.6415,-2.5743,-2.5238,-2.4737,-2.4384,-2.3668,-2.2918,-2.218,-2.1835,-2.1416,-2.0875,-2.0786,-2.0786,-2.0786,-2.0786,-2.0882,-2.1031,-2.1115,-2.1178,-2.1273,-2.1443,-2.1569,-2.1632,-2.18,-2.1968,-2.203,-2.2154,-2.2247,-2.2297,-2.1951,-2.1576,-3.1043,-3.1445,-3.168,-3.168,-3.0545,-2.9076,-2.7708,-2.536,0.0,0.0,-1.8869,-1.7146,-1.6908,0.0,0.0,0.0,0.0,0.0,0.0,0.0,0.0,0.0,0.0,0.0,0.0,0.0,0.0,0.0,0.0,0.0,-3.1172,-3.0802,-3.0578,-3.0532,-3.0261,-3.0057,-2.9886,-2.9794,-2.9508,-2.9082,-2.8989,-2.8768,-2.8395,-2.8348,-2.8196,-2.7998,-2.7998,0.0,0.0,-2.801,-2.8275,-2.8517,-2.8623,-2.8951,-2.9363,-2.9363,-2.9669,-3.0071,-3.0071,-3.0314,-3.063,-3.063,-3.0734,-3.0786,-3.0786,-3.0786,-3.0827,-3.1086,-3.1127,-3.1178,-3.1373,-3.14,-3.1124,-3.0286,-2.939,-2.8803,-2.8803,-2.8375,-2.7849,-2.7314,-2.6857,-2.6311,-2.5552,-2.4905,-2.4419,-2.4211,-2.3401,-2.2584,-2.1996,-2.163,-2.1208,-2.0639,-2.0604,-2.0637,-2.0637,-2.0637,-2.0701,-2.0839,-2.0871,-2.0935,-2.1126,-2.1242,-2.1336,-2.1388,-2.1663,-2.1831,-2.1894,-2.2061,-2.2216,-2.2347,-2.1858,-2.1477,-2.9898,-3.0524,-3.0783,-3.019,-2.9126,-2.7708,-2.5611,0.0,0.0,-1.8957,-1.7488,-1.6296,-1.5311,-1.5085,0.0,0.0,0.0,0.0,0.0,0.0,0.0,0.0,0.0,0.0,0.0,0.0,0.0,0.0,0.0,0.0,-3.0656,-3.0623,-3.0487,-3.0261,-3.0057,-2.9931,-2.9886,-2.9416,-2.9128,-2.9082,-2.8675,-2.8441,-2.8395,-2.8149,-2.8045,-2.7998,-2.7998,0.0,0.0,-2.8093,-2.8136,-2.8014,-2.8429,-2.8885,-2.929,-2.929,-2.959,-3.0037,-3.0037,-3.0015,-3.0047,-3.0047,-3.0412,-3.0786,-3.0786,-3.0786,-3.0786,-3.0827,-3.0827,-3.0827,-3.0879,-3.0753,-3.0435,-2.9724,-2.9186,-2.8803,-2.8803,-2.8375,-2.7804,-2.7136,-2.6638,-2.6109,-2.5348,-2.4484,-2.3887,-2.3844,-2.3214,-2.2388,-2.149,-2.1514,-2.1211,-2.0249,-2.0313,-2.0443,-2.0443,-2.0443,-2.0508,-2.0701,-2.0733,-2.0786,-2.0935,-2.0935,-2.1083,-2.1388,-2.142,-2.1588,-2.1894,-2.1937,-2.203,-2.2192,-2.1421,-2.1051,-2.8341,-2.8872,-2.9197,-2.885,-2.7946,-2.6628,-2.4757,0.0,0.0,-1.8593,-1.6773,-1.5311,-1.4563,-1.4412,-1.4777,0.0,0.0,0.0,0.0,0.0,0.0,0.0,0.0,0.0,0.0,0.0,0.0,0.0,0.0,0.0,-3.0352,-3.0352,-3.0261,-3.0011,-2.9931,-2.9748,-2.9416,-2.922,-2.8943,-2.8675,-2.8488,-2.8207,-2.7925,-2.8116,-2.8088,-2.7955,-2.8237,0.0,0.0,-2.8414,-2.8564,-2.8773,-2.8959,-2.9311,-2.9715,-2.9715,-2.9839,-2.9994,-2.9994,-2.9879,-2.9774,-2.9774,-2.9774,-2.9816,-3.0203,-3.0308,-3.036,-3.0505,-3.0557,-3.0546,-3.0425,-2.9888,-2.9364,-2.9085,-2.8681,-2.8326,-2.8326,-2.8129,-2.786,-2.7308,-2.6802,-2.6288,-2.5711,-2.486,-2.4117,-2.383,-2.3293,-2.2601,-2.166,-2.1367,-2.0984,-2.0284,-2.0216,-2.0216,-2.0216,-2.0216,-2.0313,-2.0508,-2.0508,-2.0604,-2.0754,-2.0786,-2.0871,-2.1083,-2.121,-2.138,-2.1588,-2.18,-2.1999,-2.2204,-2.1625,-2.1476,-2.643,-2.7066,-2.7521,-2.7199,-2.6427,-2.5292,0.0,0.0,-1.9497,-1.7802,-1.5965,-1.45,-1.3946,-1.3828,-1.4192,-1.5299,0.0,-1.7049,0.0,0.0,0.0,0.0,0.0,0.0,0.0,0.0,0.0,0.0,0.0,0.0,0.0,-3.0091,-3.0114,-3.0101,-2.9974,-2.981,-2.9559,-2.9382,-2.9147,-2.8826,-2.8625,-2.8386,-2.8013,-2.8289,-2.8289,-2.8142,0.0,0.0,0.0,-2.8763,-2.896,-2.9219,-2.9353,-2.9549,-2.9722,-2.9722,-2.9722,-2.9722,-2.9722,-2.9617,-2.9448,-2.9448,-2.929,-2.9185,-2.9617,-2.9774,-2.9931,-3.013,-3.0141,-3.0004,-2.9669,-2.9063,-2.8582,-2.853,-2.8242,-2.7998,-2.7998,-2.7998,-2.7859,-2.7321,-2.6854,-2.6332,-2.5779,-2.4935,-2.4165,-2.3691,-2.3266,-2.266,-2.1744,-2.1377,-2.1052,-2.0549,-2.0436,-2.0257,-1.9976,-1.9944,-2.0009,-2.014,-2.0172,-2.027,-2.0496,-2.0529,-2.0625,-2.0839,-2.1031,-2.119,-2.1336,-2.1632,-2.1894,-2.2111,-2.1693,-2.1621,-2.4226,-2.5111,-2.5746,-2.5036,-2.4443,-2.3439,0.0,0.0,-1.7752,-1.607,-1.4865,-1.3921,-1.3328,-1.321,-1.3579,-1.472,-1.5361,0.0,0.0,0.0,0.0,0.0,0.0,0.0,0.0,0.0,0.0,0.0,0.0,0.0,0.0,-2.9886,-3.0113,-3.0578,-3.0153,-3.0112,-3.0566,-3.0052,-2.9768,-2.9768,-2.9275,-2.8967,-2.8967,-2.8707,-2.8607,0.0,0.0,0.0,0.0,-2.9104,-2.9157,-2.8962,-2.9433,-2.9396,-2.9132,-2.9132,-2.9132,-2.9132,-2.9132,-2.9132,-2.9132,-2.9132,-2.9079,-2.9079,-2.9132,-2.9343,-2.9606,-2.9606,-2.9445,-2.9155,-2.8488,-2.8296,-2.8256,-2.8068,-2.7998,-2.7998,-2.7998,-2.7998,-2.7813,-2.7136,-2.6627,-2.6075,-2.5306,-2.4478,-2.3764,-2.3297,-2.2989,-2.2468,-2.1523,-2.158,-2.1509,-2.1037,-2.0984,-2.0591,-1.969,-1.9615,-1.9615,-1.9605,-1.9605,-1.9769,-2.0107,-2.0107,-2.028,-2.0701,-2.085,-2.0999,-2.119,-2.1336,-2.1588,-2.1882,-2.1499,-2.1209,-2.2482,-2.3188,-2.3621,-2.3197,-2.2698,-2.1895,-2.0413,0.0,-1.7275,-1.5969,-1.4853,-1.3921,-1.3315,-1.3198,-1.3579,-1.4708,-1.5349,0.0,0.0,0.0,0.0,0.0,0.0,0.0,0.0,0.0,0.0,0.0,0.0,0.0,0.0,-2.9554,-2.9593,-3.0106,-2.9986,-2.9932,-3.0063,-2.9877,-2.9642,-2.9236,-2.9087,-2.8877,-2.8728,-2.8797,0.0,0.0,0.0,0.0,0.0,-2.908,-2.914,-2.9046,-2.9187,-2.9185,-2.9079,-2.9079,-2.9079,-2.9079,-2.9079,-2.8983,-2.8834,-2.8834,-2.8717,-2.8499,-2.8213,-2.8491,-2.8785,-2.8543,-2.8178,-2.7871,-2.7811,-2.7562,-2.7352,-2.7483,-2.7536,-2.7489,-2.7309,-2.7272,-2.7125,-2.6754,-2.6298,-2.5803,-2.5275,-2.4706,-2.4067,-2.3305,-2.2849,-2.2381,-2.1741,-2.1206,-2.0814,-2.0671,-2.0375,-2.0168,-2.008,-2.0094,-1.9956,-1.9626,-1.9605,-1.9638,-1.9758,-1.9758,-1.9922,-2.028,-2.0334,-2.0506,-2.085,-2.1126,-2.1454,-2.1749,-2.1727,-2.1684,0.0,-2.1043,-2.1371,-2.1134,-2.0815,0.0,0.0,0.0,-1.6443,-1.5324,-1.4381,-1.3647,-1.3261,-1.3391,-1.3835,-1.4745,-1.5525,0.0,0.0,0.0,0.0,0.0,0.0,0.0,0.0,0.0,0.0,0.0,0.0,0.0,0.0,-2.9277,-2.9267,-2.9584,-2.9606,-2.9633,-2.9817,-2.9792,-2.9579,-2.9289,-2.9316,-2.9247,-2.8982,-2.9126,0.0,0.0,0.0,0.0,0.0,-2.9079,-2.9026,-2.893,-2.893,-2.8877,-2.8814,-2.8814,-2.8814,-2.8814,-2.8814,-2.8664,-2.8568,-2.8568,-2.8343,-2.7949,-2.7415,-2.7594,-2.8034,-2.7713,-2.7431,-2.7179,-2.7193,-2.695,-2.6794,-2.6976,-2.7023,-2.6928,-2.6794,-2.6757,-2.6699,-2.6544,-2.6134,-2.5691,-2.5259,-2.4806,-2.4213,-2.3328,-2.2955,-2.2512,-2.1889,-2.1337,-2.0926,-2.0765,-2.0504,-2.0335,-2.0388,-2.0226,-1.9997,-1.9705,-1.9695,-1.9729,-1.9797,-1.9855,-2.0025,-2.0328,-2.0452,-2.0697,-2.1008,-2.1393,-2.172,-2.1939,-2.2089,-2.2207,0.0,0.0,0.0,0.0,0.0,0.0,0.0,0.0,0.0,0.0,-1.3609,-1.321,-1.3248,-1.3727,-1.4286,-1.4909,0.0,0.0,0.0,0.0,0.0,0.0,0.0,0.0,0.0,0.0,0.0,0.0,0.0,0.0,0.0,-2.9082,-2.9058,-2.9052,-2.9015,-2.9241,-2.9736,-2.9677,-2.9656,-2.9647,-2.9839,-2.9796,-2.9606,-2.9554,0.0,0.0,0.0,0.0,0.0,-2.9026,-2.8877,-2.8674,-2.8674,-2.8514,-2.8291,-2.8291,-2.8291,-2.8291,-2.8291,-2.8237,-2.8237,-2.8198,-2.7906,-2.7461,-2.659,-2.6791,-2.7311,-2.7142,-2.7071,-2.698,-2.6559,-2.6448,-2.6496,-2.6496,-2.6496,-2.6496,-2.6496,-2.6448,-2.6448,-2.64,-2.6059,-2.5601,-2.5217,-2.4766,-2.4175,-2.3333,-2.3153,-2.2812,-2.189,-2.177,-2.158,-2.1218,-2.1148,-2.0919,-2.0509,-2.0096,-1.9825,-1.9795,-1.9795,-1.9893,-2.0073,-2.0242,-2.0431,-2.064,-2.1009,-2.128,-2.149,-2.1999,-2.2229,-2.2263,-2.2469,-2.265,-1.5368,0.0,-1.7686,-1.8258,-1.7716,0.0,0.0,0.0,0.0,0.0,0.0,0.0,0.0,0.0,0.0,0.0,0.0,0.0,0.0,0.0,0.0,0.0,0.0,0.0,0.0,0.0,0.0,0.0,0.0,0.0,0.0,-2.8757,-2.8542,-2.8556,-2.8189,-2.8332,-2.9183,-2.915,-2.9241,-2.9403,-2.9219,-2.9289,-2.9606,-2.9142,0.0,0.0,0.0,0.0,-2.8504,-2.8504,-2.8451,-2.8398,-2.8398,-2.8344,-2.8291,-2.8291,-2.8184,-2.8014,-2.8014,-2.7853,-2.7536,-2.7275,-2.6884,-2.6435,-2.592,-2.6195,-2.6535,-2.6153,-2.6035,-2.6054,-2.6179,-2.6197,-2.6245,-2.6448,-2.6496,-2.6448,-2.6245,-2.6042,-2.5849,-2.5625,-2.5344,-2.4996,-2.4583,-2.4142,-2.3717,-2.3153,-2.2713,-2.2272,-2.1857,-2.1416,-2.1012,-2.0755,-2.0417,-2.0138,-2.0033,-2.0218,-2.0193,-1.9815,-1.9795,-1.9831,-1.9857,-1.9929,-2.0047,-2.0227,-2.063,-2.0984,-2.128,-2.142,-2.1618,-2.1907,-2.1965,-2.2114,-1.4185,-1.5093,-1.6123,-1.6867,-1.6597,-1.6132,0.0,0.0,0.0,0.0,0.0,0.0,0.0,0.0,0.0,0.0,0.0,0.0,0.0,0.0,0.0,0.0,0.0,0.0,0.0,0.0,0.0,0.0,0.0,0.0,0.0,-2.8535,-2.8301,-2.8055,-2.7736,-2.7825,-2.8366,-2.8429,-2.851,-2.8529,-2.8758,-2.893,-2.8882,-2.8734,-2.8621,0.0,0.0,0.0,-2.813,-2.813,-2.8023,-2.7916,-2.7916,-2.7916,-2.7916,-2.7916,-2.7809,-2.7691,-2.7691,-2.753,-2.7273,-2.6721,-2.6361,-2.6058,-2.5462,-2.5481,-2.5641,-2.54,-2.5333,-2.5382,-2.5518,-2.5567,-2.5616,-2.5713,-2.5761,-2.5713,-2.5567,-2.546,-2.5265,-2.5128,-2.4981,-2.476,-2.4353,-2.3966,-2.353,-2.3059,-2.2606,-2.2174,-2.1854,-2.1341,-2.0938,-2.0635,-2.0197,-1.9902,-1.9902,-2.0082,-2.0127,-1.9845,-1.9835,-1.9835,-1.9835,-2.006,-2.0322,-2.0582,-2.0925,-2.1156,-2.1356,-2.1538,-2.1709,-2.1927,-2.2035,-2.2179,-1.3593,-1.4187,-1.4778,-1.5522,-1.563,-1.5613,-1.568,0.0,0.0,0.0,0.0,0.0,0.0,0.0,0.0,0.0,0.0,0.0,0.0,0.0,0.0,0.0,0.0,0.0,0.0,0.0,0.0,0.0,0.0,0.0,0.0,-2.8301,-2.8066,-2.7631,-2.7584,-2.7547,-2.7499,-2.7683,-2.7716,-2.7603,-2.8289,-2.8409,-2.8115,-2.8344,-2.8402,0.0,0.0,0.0,-2.7799,-2.7799,-2.7647,-2.7377,-2.7377,-2.7377,-2.7377,-2.7377,-2.7368,-2.7314,-2.7269,-2.7269,-2.7138,-2.6343,-2.6078,-2.5918,-2.5038,-2.4735,-2.4735,-2.4735,-2.4784,-2.4883,-2.4883,-2.4883,-2.4883,-2.4833,-2.4833,-2.4833,-2.4784,-2.4735,-2.4735,-2.4735,-2.4686,-2.4573,-2.4236,-2.3861,-2.3439,-2.298,-2.2657,-2.2296,-2.1847,-2.1457,-2.1074,-2.0586,-2.0132,-1.982,-1.9715,-1.9745,-1.9745,-1.9745,-1.9863,-1.9902,-1.9902,-2.0294,-2.0683,-2.1051,-2.1272,-2.1387,-2.1425,-2.1769,-2.1997,-2.1987,-2.2214,-2.2402,-1.3171,-1.3688,-1.4425,-1.5442,-1.5361,-1.5135,-1.5613,0.0,0.0,0.0,0.0,0.0,0.0,0.0,0.0,0.0,0.0,0.0,0.0,0.0,0.0,0.0,0.0,0.0,0.0,0.0,0.0,0.0,0.0,0.0,0.0,-2.7972,-2.7689,-2.7584,-2.7441,-2.7214,-2.6996,-2.7058,-2.7235,-2.7592,-2.7291,-2.7451,-2.8105,-2.7653,-2.7612,-2.796,0.0,-2.753,-2.7485,-2.7485,-2.7431,-2.7377,-2.7377,-2.7377,-2.7377,-2.7377,-2.726,-2.7043,-2.6791,-2.6745,-2.6616,-2.5786,-2.5518,-2.5371,-2.455,-2.4152,-2.3954,-2.3954,-2.444,-2.4883,-2.4883,-2.4883,-2.4833,-2.4637,-2.4578,-2.448,-2.4282,-2.4035,-2.3877,-2.3877,-2.3737,-2.3628,-2.3574,-2.3371,-2.3069,-2.2632,-2.264,-2.2415,-2.1784,-2.1544,-2.1169,-2.0358,-1.9898,-1.9444,-1.8927,-1.9042,-1.9161,-1.9161,-1.9627,-1.9902,-1.9902,-1.9981,-2.0137,-2.042,-2.0644,-2.0838,-2.0982,-2.1233,-2.1436,-2.1589,-2.1807,-2.1997,-1.3112,-1.3616,-1.4292,-1.5072,-1.5299,-1.5563,-1.6409,0.0,0.0,0.0,0.0,0.0,0.0,0.0,0.0,0.0,0.0,0.0,0.0,0.0,0.0,0.0,0.0,0.0,0.0,0.0,0.0,0.0,0.0,0.0,0.0,0.0,-2.7499,-2.7225,-2.7129,-2.6938,-2.6699,-2.6544,-2.6597,-2.6788,-2.6794,-2.6873,-2.6963,-2.6879,-2.6925,-2.695,0.0,-2.6776,-2.6877,-2.6877,-2.691,-2.6954,-2.6954,-2.6954,-2.6954,-2.6781,-2.6554,-2.6282,-2.6181,-2.6136,-2.6,-2.5198,-2.4884,-2.4792,-2.3989,-2.3696,-2.3596,-2.3596,-2.3845,-2.4093,-2.4093,-2.4093,-2.4044,-2.3945,-2.3895,-2.3895,-2.3737,-2.3637,-2.3538,-2.3538,-2.3447,-2.3397,-2.3397,-2.3117,-2.2774,-2.2381,-2.2222,-2.1916,-2.1374,-2.1057,-2.0669,-2.0068,-1.9615,-1.9181,-1.8736,-1.8772,-1.8922,-1.9152,-1.9429,-1.9627,-1.9715,-1.9754,-1.9833,-2.0069,-2.0177,-2.0333,-2.0566,-2.077,-2.0964,-2.1167,-2.1397,-2.154,-1.3146,-1.3735,-1.4387,-1.4802,0.0,-1.6145,-1.7172,0.0,0.0,0.0,0.0,0.0,0.0,0.0,0.0,0.0,0.0,0.0,0.0,0.0,0.0,0.0,0.0,0.0,0.0,0.0,0.0,0.0,0.0,0.0,0.0,0.0,-2.7262,-2.69,-2.6853,-2.6699,-2.64,-2.6149,-2.6042,-2.61,-2.634,-2.6269,-2.5987,-2.6193,-2.6189,-2.6078,-2.6027,-2.605,-2.6095,-2.6095,-2.612,-2.6145,-2.6145,-2.6199,-2.6227,-2.5937,-2.5827,-2.5688,-2.5688,-2.5626,-2.5439,-2.4739,-2.4446,-2.4251,-2.361,-2.3347,-2.3297,-2.3297,-2.3197,-2.3147,-2.3347,-2.3397,-2.3397,-2.3297,-2.3247,-2.3197,-2.3097,-2.3046,-2.2996,-2.2996,-2.2996,-2.2996,-2.2996,-2.2743,-2.242,-2.2084,-2.1793,-2.1499,-2.1101,-2.0749,-2.0368,-1.9911,-1.9505,-1.9115,-1.8656,-1.8612,-1.8772,-1.9152,-1.9183,-1.9311,-1.9439,-1.9518,-1.9597,-1.9745,-1.9824,-1.9951,-2.0147,-2.0333,-2.0537,-2.0751,-2.0974,-2.1089,-1.3146,-1.3998,-1.4846,-1.4884,-1.5668,0.0,-1.7237,-1.8179,0.0,-1.8933,0.0,0.0,0.0,0.0,0.0,0.0,0.0,0.0,0.0,0.0,0.0,0.0,0.0,0.0,0.0,0.0,0.0,0.0,0.0,0.0,0.0,0.0,0.0,-2.69,-2.6651,-2.64,-2.6139,-2.5849,-2.5839,-2.6091,-2.5655,-2.5642,-2.5977,-2.5424,-2.5456,-2.5787,-2.558,-2.5329,-2.5095,-2.5095,-2.4956,-2.472,-2.472,-2.4943,-2.5209,-2.5156,-2.5377,-2.5688,-2.5688,-2.5448,-2.5085,-2.465,-2.4278,-2.3965,-2.353,-2.3247,-2.3046,-2.3046,-2.2636,-2.2384,-2.3197,-2.3397,-2.3347,-2.3097,-2.2787,-2.2485,-2.2224,-2.1979,-2.1827,-2.1827,-2.1827,-2.1827,-2.1827,-2.2005,-2.2013,-2.1601,-2.1659,-2.166,-2.1238,-2.1065,-2.0722,-2.0132,-1.9738,-1.9197,-1.8463,-1.8442,-1.8523,-1.874,-1.8922,-1.9042,-1.9042,-1.9231,-1.9341,-1.9341,-1.9518,-1.9645,-1.9645,-1.9872,-2.0098,-2.0352,-2.0527,-2.0731,-1.3146,-1.4036,-1.4972,-1.5311,-1.6484,0.0,0.0,-1.8982,-1.9759,0.0,0.0,0.0,0.0,0.0,0.0,0.0,0.0,0.0,0.0,0.0,0.0,0.0,0.0,0.0,0.0,0.0,0.0,0.0,0.0,0.0,0.0,0.0,0.0,-2.64,-2.6149,-2.5849,-2.5625,-2.5323,-2.5274,-2.5372,-2.5128,-2.5066,-2.5069,-2.4812,-2.4646,-2.456,-2.4459,-2.4401,-2.4378,-2.4378,-2.4469,-2.4579,-2.4579,-2.4562,-2.4474,-2.4474,-2.4463,-2.4433,-2.4478,-2.4383,-2.4138,-2.3757,-2.3436,-2.31,-2.2705,-2.2384,-2.2182,-2.2182,-2.203,-2.1979,-2.2485,-2.2485,-2.2333,-2.2232,-2.208,-2.1971,-2.1869,-2.1776,-2.1725,-2.1725,-2.1725,-2.1725,-2.1725,-2.1776,-2.1753,-2.1362,-2.1184,-2.0951,-2.0572,-2.0293,-1.9929,-1.9468,-1.9219,-1.8965,-1.8684,-1.8784,-1.891,-1.9002,-1.8876,-1.8812,-1.8812,-1.8891,-1.8922,-1.8922,-1.9121,-1.928,-1.9429,-1.9636,-1.9833,-2.0059,-2.0137,-2.0294,-1.3343,-1.418,-1.506,0.0,0.0,0.0,-1.9232,-1.9956,-2.0829,0.0,0.0,0.0,0.0,0.0,0.0,0.0,0.0,0.0,0.0,0.0,0.0,0.0,0.0,0.0,0.0,0.0,0.0,0.0,0.0,0.0,0.0,0.0,0.0,0.0,-2.5703,-2.546,-2.5186,-2.4883,-2.4735,-2.4637,-2.4587,-2.4489,-2.4381,-2.4291,-2.4044,-2.3646,-2.3646,-2.3657,-2.3662,-2.3662,-2.3821,-2.3947,-2.3947,-2.3913,-2.3748,-2.3695,-2.3624,-2.3585,-2.3462,-2.3377,-2.3188,-2.2943,-2.2619,-2.2321,-2.2054,-2.1827,-2.1725,-2.1725,-2.1623,-2.1623,-2.1827,-2.1776,-2.1725,-2.1725,-2.1623,-2.1573,-2.1573,-2.142,-2.1326,-2.1326,-2.1267,-2.1208,-2.1208,-2.1208,-2.1135,-2.0901,-2.0573,-2.0224,-1.9972,-1.9635,-1.9348,-1.9014,-1.8935,-1.8822,-1.8697,-1.8912,-1.9084,-1.9084,-1.8941,-1.8848,-1.8765,-1.8837,-1.8816,-1.87,-1.8851,-1.9056,-1.9414,-1.9543,-1.9808,-2.017,-2.017,-2.0339,-1.3765,-1.4488,-1.5121,0.0,0.0,0.0,0.0,-2.1152,0.0,0.0,0.0,0.0,0.0,0.0,0.0,0.0,0.0,0.0,0.0,0.0,0.0,0.0,0.0,0.0,0.0,0.0,0.0,0.0,0.0,0.0,0.0,0.0,0.0,0.0,-2.5421,-2.5177,-2.4873,-2.4618,-2.4372,-2.4066,-2.3886,-2.3886,-2.4084,-2.3895,-2.3655,-2.3397,-2.3397,-2.3247,-2.2996,-2.2996,-2.2846,-2.2594,-2.2594,-2.2775,-2.3057,-2.2798,-2.2921,-2.3232,-2.2966,-2.2636,-2.2286,-2.2286,-2.2031,-2.1725,-2.1674,-2.1674,-2.1674,-2.1674,-2.1471,-2.1267,-2.1267,-2.1479,-2.1674,-2.1674,-2.1479,-2.1267,-2.1267,-2.0865,-2.0522,-2.0522,-2.03,-2.0078,-2.0078,-2.0078,-2.0078,-2.0078,-1.9772,-1.9486,-1.9478,-1.9304,-1.9141,-1.9023,-1.8982,-1.8833,-1.8454,-1.8654,-1.88,-1.88,-1.9058,-1.9092,-1.8913,-1.9094,-1.9041,-1.8718,-1.8709,-1.9008,-1.9579,-1.9579,-1.9994,-2.0796,-2.0796,-2.0941,-1.3652,-1.435,0.0,0.0,0.0,0.0,0.0,0.0,0.0,0.0,0.0,0.0,0.0,0.0,0.0,0.0,0.0,0.0,0.0,0.0,0.0,0.0,0.0,0.0,0.0,0.0,0.0,0.0,0.0,0.0,0.0,0.0,0.0,0.0,-2.4535,-2.4162,-2.3767,-2.3386,-2.3138,-2.3042,-2.2811,-2.3001,-2.3596,-2.3546,-2.3347,-2.3097,-2.3097,-2.2946,-2.2695,-2.2695,-2.2544,-2.2232,-2.2232,-2.2198,-2.2095,-2.2044,-2.2059,-2.215,-2.2099,-2.1981,-2.1899,-2.1899,-2.1663,-2.1369,-2.1173,-2.1027,-2.0814,-2.0652,-2.0542,-2.0447,-2.0447,-2.049,-2.0601,-2.0814,-2.0822,-2.0712,-2.0498,-2.0344,-2.0241,-2.0241,-2.0138,-2.0078,-2.0078,-2.0078,-2.0078,-2.0078,-1.9778,-1.9384,-1.8949,-1.8589,-1.8465,-1.8609,-1.8768,-1.8902,-1.897,-1.9204,-1.9355,-1.9355,-1.9437,-1.9375,-1.9118,-1.9169,-1.9159,-1.9055,-1.9173,-1.9342,-1.9532,-1.9676,-1.9865,-2.0099,-2.0277,-2.0488,-1.3809,0.0,0.0,0.0,0.0,0.0,0.0,0.0,0.0,0.0,0.0,0.0,0.0,0.0,0.0,0.0,0.0,0.0,0.0,0.0,0.0,0.0,0.0,0.0,0.0,0.0,0.0,0.0,0.0,0.0,0.0,0.0,0.0,0.0,-2.3776,-2.337,-2.3017,-2.2641,-2.2413,-2.2271,-2.212,-2.2184,-2.2493,-2.2689,-2.264,-2.2354,-2.241,-2.2271,-2.2029,-2.2181,-2.2131,-2.1928,-2.1928,-2.1827,-2.1674,-2.1573,-2.1522,-2.1505,-2.1257,-2.1204,-2.12,-2.1054,-2.095,-2.0806,-2.0652,-2.0454,-2.03,-2.0138,-2.0078,-2.0078,-2.0078,-2.0078,-2.0138,-2.03,-2.0351,-2.03,-2.013,-2.0034,-1.9931,-1.9931,-1.9879,-1.9732,-1.9628,-1.9628,-1.9576,-1.9457,-1.925,-1.8912,-1.8338,-1.8178,-1.8192,-1.835,-1.8465,-1.8643,-1.8881,-1.9158,-1.935,-1.9433,-1.9533,-1.9525,-1.9385,-1.9304,-1.9194,-1.905,-1.9256,-1.9496,-1.9739,-1.9868,-2.0034,-2.0262,-2.0436,-2.0566,0.0,0.0,0.0,0.0,0.0,0.0,0.0,0.0,0.0,0.0,0.0,0.0,0.0,0.0,0.0,0.0,0.0,0.0,0.0,0.0,0.0,0.0,0.0,0.0,0.0,0.0,0.0,0.0,0.0,0.0,0.0,0.0,0.0,-2.3243,-2.3018,-2.2765,-2.2447,-2.2203,-2.1928,-2.1682,-2.1644,-2.1406,-2.0993,-2.1522,-2.1605,-2.1335,-2.1448,-2.1394,-2.1156,-2.1486,-2.1576,-2.1576,-2.1576,-2.1576,-2.1525,-2.1221,-2.1127,-2.1028,-2.0506,-2.0307,-2.0322,-2.0012,-1.9953,-2.0002,-2.0025,-1.9989,-1.9989,-1.9975,-1.9983,-1.9923,-1.9923,-1.9923,-1.9923,-1.9923,-2.0027,-2.0027,-1.9983,-1.9776,-1.9628,-1.9576,-1.9368,-1.9123,-1.8921,-1.8869,-1.8757,-1.8422,-1.8377,-1.8232,-1.7887,-1.7985,-1.8148,-1.8115,-1.8101,-1.8179,-1.8481,-1.8666,-1.8827,-1.9096,-1.9342,-1.9496,-1.9496,-1.9437,-1.9272,-1.8901,-1.9109,-1.9496,-2.006,-2.0052,-2.0359,-2.0907,-2.0952,-2.0952,0.0,0.0,0.0,0.0,0.0,0.0,0.0,0.0,0.0,0.0,0.0,0.0,0.0,0.0,0.0,0.0,0.0,0.0,0.0,0.0,0.0,0.0,0.0,0.0,0.0,0.0,0.0,0.0,0.0,0.0,0.0,0.0,0.0,-2.2612,-2.2327,-2.1942,-2.1345,-2.1118,-2.0989,0.0,-2.0531,-2.0264,-2.0189,-2.092,-2.1094,-2.0862,-2.0888,-2.0873,-2.0833,-2.0907,-2.0794,-2.0606,-2.0606,-2.0492,-2.0238,-2.0,-1.9901,-1.9836,-1.9478,-1.9402,-1.9399,-1.933,-1.9304,-1.9311,-1.9361,-1.924,-1.9096,-1.9154,-1.8959,-1.8788,-1.8788,-1.8788,-1.8788,-1.8788,-1.9309,-1.968,-1.9227,-1.9123,-1.8966,-1.8736,-1.8632,-1.8579,-1.8534,-1.8534,-1.8475,-1.8422,-1.8215,-1.8078,-1.7987,-1.7761,-1.783,-1.8199,-1.8012,-1.8048,-1.8539,-1.8387,-1.8272,-1.8311,-1.8612,-1.8759,-1.8759,-1.9276,-1.9521,-1.9447,-1.9484,-1.957,-1.9691,-1.9864,-2.0034,-2.0155,-2.0564,-2.0736,0.0,0.0,0.0,0.0,0.0,0.0,0.0,0.0,0.0,0.0,0.0,0.0,0.0,0.0,0.0,0.0,0.0,0.0,0.0,0.0,0.0,0.0,0.0,0.0,0.0,0.0,0.0,0.0,0.0,0.0,0.0,-2.2718,-2.2359,-2.1926,-2.1644,-2.1301,-2.0871,-2.051,-2.0337,-2.0292,-1.9936,-1.9708,-1.9571,-2.0154,-2.0235,-1.9999,-2.0132,-2.0166,-2.0086,-2.0248,-2.0168,-1.9933,-1.9933,-1.973,-1.9486,-1.9339,-1.929,-1.9267,-1.8959,-1.8859,-1.8867,-1.8563,-1.8525,-1.852,-1.8585,-1.8528,-1.8447,-1.8613,-1.8534,-1.8422,-1.8422,-1.8422,-1.8422,-1.8422,-1.8736,-1.9004,-1.8698,-1.8646,-1.8593,-1.8422,-1.8422,-1.837,-1.822,-1.8108,-1.8003,-1.8003,-1.8029,-1.7936,-1.7784,-1.7726,-1.7774,-1.7917,-1.7752,-1.7855,-1.8398,-1.8282,-1.8261,-1.8338,-1.848,-1.8527,-1.8527,-1.8902,-1.9196,-1.9396,-1.9533,-1.9587,-1.9587,-1.9716,-1.9762,-1.9754,-2.0027,-2.0164,0.0,0.0,0.0,0.0,0.0,0.0,0.0,0.0,0.0,0.0,0.0,0.0,0.0,0.0,0.0,0.0,0.0,0.0,0.0,0.0,0.0,0.0,0.0,0.0,0.0,0.0,0.0,0.0,0.0,0.0,-2.2309,-2.2073,-2.1756,-2.1338,-2.1096,-2.0826,-2.0564,-2.011,-1.9882,-1.9845,-1.9625,-1.9387,-1.9142,-1.9304,-1.9304,-1.9074,-1.9371,-1.9359,-1.9202,-1.9478,-1.9444,-1.9258,-1.9258,-1.9113,-1.8926,-1.8877,-1.8877,-1.8791,-1.8462,-1.8345,-1.833,-1.7768,-1.7628,-1.7711,-1.7816,-1.7848,-1.7902,-1.8157,-1.8283,-1.8265,-1.8265,-1.8265,-1.8265,-1.8213,-1.8213,-1.822,-1.8318,-1.8318,-1.8318,-1.8265,-1.8213,-1.8115,-1.7799,-1.7589,-1.7424,-1.7424,-1.7641,-1.7659,-1.741,-1.764,-1.7749,-1.7536,-1.7517,-1.7682,-1.8188,-1.8187,-1.8238,-1.8457,-1.8538,-1.8586,-1.8634,-1.8682,-1.883,-1.9196,-1.939,-1.9537,-1.9584,-1.9565,-1.9586,-1.9632,-1.9612,-1.9587,0.0,0.0,0.0,0.0,0.0,0.0,0.0,0.0,0.0,0.0,0.0,0.0,0.0,0.0,0.0,0.0,0.0,0.0,0.0,0.0,0.0,0.0,0.0,0.0,0.0,0.0,0.0,0.0,0.0,0.0,-2.1892,-2.146,-2.118,-2.1078,-2.0826,-2.051,-2.0019,-1.9928,-1.9799,-1.9633,-1.9387,-1.9104,-1.8827,-1.8705,-1.862,-1.862,-1.8621,-1.8489,-1.8303,-1.8341,-1.831,-1.831,-1.831,-1.8263,-1.8224,-1.7989,-1.7903,-1.7802,-1.7388,-1.7207,-1.7188,-1.6855,-1.6767,-1.6818,-1.7127,-1.7217,-1.7294,-1.7603,-1.7707,-1.7687,-1.7687,-1.7687,-1.7635,-1.7437,-1.7384,-1.749,-1.7964,-1.8069,-1.7957,-1.774,-1.7536,-1.7279,-1.6948,-1.6836,-1.6836,-1.6836,-1.6836,-1.6876,-1.6785,-1.7108,-1.7364,-1.7573,-1.7551,-1.7657,-1.8006,-1.776,-1.774,-1.7959,-1.8191,-1.8437,-1.8705,-1.8886,-1.9059,-1.911,-1.9159,-1.9305,-1.9491,-1.9391,-1.9477,-1.9704,-1.9635,-1.9587,0.0,0.0,0.0,0.0,0.0,0.0,0.0,0.0,0.0,0.0,0.0,0.0,0.0,0.0,0.0,0.0,0.0,0.0,0.0,0.0,0.0,0.0,0.0,0.0,0.0,0.0,0.0,0.0,0.0,-2.1062,-2.1278,-2.083,-2.0625,-2.066,-2.0465,-2.0212,-1.9882,-1.9799,-1.9533,-1.9158,-1.9012,-1.892,-1.8781,-1.8566,-1.8481,-1.8481,-1.8334,-1.8234,-1.8087,-1.8087,-1.7994,-1.7861,-1.7861,-1.7721,-1.7488,-1.7355,-1.7207,-1.7059,-1.6831,-1.6784,-1.673,-1.6454,-1.6359,-1.6367,-1.6421,-1.6529,-1.668,-1.6818,-1.699,-1.7107,-1.7107,-1.7107,-1.7054,-1.6948,-1.6902,-1.7001,-1.7213,-1.7265,-1.7265,-1.71,-1.7001,-1.6849,-1.673,-1.6677,-1.6677,-1.6677,-1.6677,-1.6677,-1.6677,-1.6842,-1.706,-1.7325,-1.7377,-1.7506,-1.7974,-1.785,-1.7851,-1.7937,-1.8074,-1.8175,-1.8275,-1.8426,-1.8664,-1.8956,-1.9052,-1.9151,-1.929,-1.9241,-1.9268,-1.9349,-1.928,-1.9168,0.0,0.0,0.0,0.0,0.0,0.0,0.0,0.0,0.0,0.0,0.0,0.0,0.0,0.0,0.0,0.0,0.0,0.0,0.0,0.0,0.0,0.0,0.0,0.0,0.0,0.0,0.0,0.0,0.0,-2.0433,-2.0638,-2.0207,-2.0007,-2.0174,-1.9896,-1.9691,-1.9552,-1.9298,-1.8977,-1.8647,-1.8647,-1.8694,-1.8743,-1.852,-1.8381,-1.8295,-1.8094,-1.7947,-1.7893,-1.7854,-1.7721,-1.7542,-1.7441,-1.7207,-1.6885,-1.6885,-1.6784,-1.6581,-1.6541,-1.6494,-1.6447,-1.6123,-1.6028,-1.5974,-1.5748,-1.5875,-1.6116,-1.619,-1.6412,-1.6588,-1.6658,-1.6677,-1.6677,-1.663,-1.6577,-1.663,-1.6677,-1.6677,-1.6677,-1.663,-1.6577,-1.6577,-1.6518,-1.6524,-1.6524,-1.6524,-1.6524,-1.6524,-1.6524,-1.6577,-1.6683,-1.6961,-1.7014,-1.7279,-1.7753,-1.7813,-1.7868,-1.7997,-1.7984,-1.8035,-1.8086,-1.8079,-1.8302,-1.875,-1.8847,-1.9055,-1.9254,-1.917,-1.9174,-1.9224,-1.9066,-1.8856,0.0,0.0,0.0,0.0,0.0,0.0,0.0,0.0,0.0,0.0,0.0,0.0,0.0,0.0,0.0,0.0,0.0,0.0,0.0,0.0,0.0,0.0,0.0,0.0,0.0,0.0,0.0,0.0,0.0,-1.9731,-1.9943,-1.9492,-1.9338,-1.9555,-1.9118,-1.8782,-1.8566,-1.8132,-1.8037,-1.8327,-1.8327,-1.8374,-1.8527,-1.8234,-1.7994,-1.7721,-1.7721,-1.7574,-1.7326,-1.716,-1.7026,-1.7026,-1.6777,-1.6636,-1.6629,-1.6629,-1.6636,-1.6541,-1.6312,-1.6224,-1.617,-1.5689,-1.554,-1.5499,-1.5239,-1.5348,-1.5573,-1.5852,-1.6126,-1.6399,-1.6607,-1.6677,-1.663,-1.6377,-1.6324,-1.6371,-1.663,-1.6677,-1.663,-1.6371,-1.6324,-1.6217,-1.5998,-1.5939,-1.5939,-1.5939,-1.5939,-1.5939,-1.5939,-1.6158,-1.6324,-1.6324,-1.6577,-1.6895,-1.7226,-1.7226,-1.7483,-1.7996,-1.7996,-1.8094,-1.8349,-1.8401,-1.8408,-1.8422,-1.8447,-1.8842,-1.9679,-1.9357,-1.9315,-1.9575,-1.9231,-1.9071,0.0,0.0,0.0,0.0,0.0,0.0,0.0,0.0,0.0,0.0,0.0,0.0,0.0,0.0,0.0,0.0,0.0,0.0,0.0,0.0,0.0,0.0,0.0,0.0,0.0,0.0,0.0,0.0,0.0,0.0,-1.933,-1.8927,-1.8819,-1.9129,-1.8676,-1.8421,-1.8308,-1.7953,-1.7878,-1.7962,-1.7962,-1.8019,-1.8093,-1.7903,-1.7743,-1.7675,-1.7527,-1.734,-1.7113,-1.7026,-1.6764,-1.6433,-1.6334,-1.6202,-1.6077,-1.6077,-1.6093,-1.6069,-1.5974,-1.5879,-1.5737,-1.554,-1.5356,-1.5172,-1.4933,-1.5025,-1.5251,-1.5381,-1.5442,-1.5606,-1.5878,-1.5785,-1.5571,-1.547,-1.547,-1.5464,-1.5571,-1.5785,-1.5844,-1.5523,-1.547,-1.5464,-1.5357,-1.5303,-1.5303,-1.5303,-1.5303,-1.5416,-1.5636,-1.5743,-1.5903,-1.6271,-1.6377,-1.6583,-1.6842,-1.6895,-1.6948,-1.716,-1.7384,-1.7543,-1.7648,-1.7799,-1.795,-1.8115,-1.8115,-1.8489,-1.9175,-1.9058,-1.9155,-1.9405,-1.9222,-1.9065,0.0,0.0,0.0,0.0,0.0,0.0,0.0,0.0,0.0,0.0,0.0,0.0,0.0,0.0,0.0,0.0,0.0,0.0,0.0,0.0,0.0,0.0,0.0,0.0,0.0,0.0,0.0,0.0,0.0,0.0,-1.8882,-1.8563,-1.8394,-1.8408,-1.8086,-1.7829,-1.7693,-1.7515,-1.7485,-1.7647,-1.7647,-1.7612,-1.7638,-1.7619,-1.7523,-1.7426,-1.7328,-1.72,-1.6972,-1.6818,-1.6462,-1.5982,-1.578,-1.5661,-1.5545,-1.5548,-1.5518,-1.555,-1.5561,-1.5499,-1.5356,-1.5255,-1.5118,-1.4939,-1.464,-1.4624,-1.4722,-1.4795,-1.4855,-1.4902,-1.5176,-1.5144,-1.4987,-1.4987,-1.4987,-1.4987,-1.4874,-1.5095,-1.5261,-1.5041,-1.4987,-1.4987,-1.4987,-1.4987,-1.4987,-1.4987,-1.4987,-1.5095,-1.5315,-1.5315,-1.5476,-1.5844,-1.5951,-1.6164,-1.6418,-1.6524,-1.6577,-1.6677,-1.6902,-1.7008,-1.7008,-1.7325,-1.7543,-1.7753,-1.7806,-1.8122,-1.8608,-1.8705,-1.881,-1.9004,-1.8935,-1.884,0.0,0.0,0.0,0.0,0.0,0.0,0.0,0.0,0.0,0.0,0.0,0.0,0.0,0.0,0.0,0.0,0.0,0.0,0.0,0.0,0.0,0.0,0.0,0.0,0.0,0.0,0.0,0.0,0.0,-1.8461,-1.8647,-1.8465,-1.8063,-1.7392,-1.718,-1.6976,-1.6689,-1.6689,-1.6913,-1.7262,-1.7262,-1.7223,-1.7108,-1.74,-1.7327,-1.6903,-1.7165,-1.7171,-1.6929,-1.6398,-1.6035,-1.5725,-1.5199,-1.4995,-1.4983,-1.4989,-1.4955,-1.5007,-1.5076,-1.5083,-1.5035,-1.479,-1.4688,-1.464,-1.4394,-1.4118,-1.3936,-1.4193,-1.4288,-1.4333,-1.4607,-1.4805,-1.4982,-1.4982,-1.4982,-1.4874,-1.4606,-1.4767,-1.4982,-1.4987,-1.4987,-1.4987,-1.4987,-1.4987,-1.4987,-1.4987,-1.4987,-1.4987,-1.4982,-1.4982,-1.4982,-1.4987,-1.5315,-1.5583,-1.5838,-1.6111,-1.6371,-1.6624,-1.6677,-1.6677,-1.6677,-1.7008,-1.7179,-1.7179,-1.7483,-1.7747,-1.7964,-1.8272,-1.837,-1.8422,-1.8422,-1.8422,-0.8318,0.0,0.0,0.0,0.0,0.0,0.0,0.0,0.0,0.0,0.0,0.0,0.0,0.0,0.0,0.0,0.0,0.0,0.0,0.0,0.0,0.0,0.0,0.0,0.0,0.0,0.0,0.0,-1.7899,-1.7725,-1.7632,-1.757,-1.7399,-1.7172,-1.7139,-1.6976,-1.6689,-1.6689,-1.6745,-1.6881,-1.6881,-1.682,-1.6728,-1.682,-1.6733,-1.6551,-1.6639,-1.6413,-1.6073,-1.6116,-1.5642,-1.4845,-1.4544,-1.4416,-1.4412,-1.4417,-1.4558,-1.4822,-1.5029,-1.4981,-1.479,-1.4736,-1.4592,-1.4346,-1.407,-1.3979,-1.3936,-1.399,-1.3857,-1.3758,-1.3978,-1.4056,-1.4072,-1.4072,-1.391,-1.3748,-1.3694,-1.3743,-1.391,-1.4353,-1.4407,-1.4407,-1.4407,-1.4407,-1.4407,-1.4407,-1.4407,-1.4509,-1.4713,-1.4713,-1.4767,-1.4987,-1.5095,-1.5148,-1.525,-1.5529,-1.5743,-1.585,-1.6217,-1.6424,-1.6424,-1.6683,-1.6955,-1.7179,-1.7279,-1.7437,-1.7694,-1.7957,-1.822,-1.8422,-1.8422,-1.8422,0.0,0.0,0.0,0.0,0.0,0.0,0.0,-1.1882,0.0,0.0,0.0,0.0,0.0,0.0,0.0,0.0,0.0,0.0,0.0,0.0,0.0,0.0,0.0,0.0,0.0,0.0,0.0,-1.755,-1.7273,-1.7083,-1.6968,-1.6921,-1.6875,-1.6871,-1.6895,-1.6853,-1.6689,-1.6689,-1.6689,-1.6689,-1.6689,-1.6601,-1.6392,-1.6537,-1.644,-1.6184,-1.636,-1.6074,-1.5497,-1.5805,-1.5383,-1.4466,-1.4123,-1.4056,-1.4156,-1.4084,-1.4266,-1.4502,-1.469,-1.464,-1.4496,-1.4406,-1.4262,-1.4064,-1.3829,-1.3636,-1.3574,-1.3569,-1.3452,-1.3346,-1.3566,-1.3571,-1.3532,-1.3532,-1.3423,-1.3315,-1.3315,-1.3315,-1.3428,-1.3753,-1.3807,-1.3807,-1.3807,-1.3807,-1.3807,-1.3807,-1.3807,-1.3862,-1.4013,-1.4067,-1.4175,-1.445,-1.4606,-1.4713,-1.4821,-1.5095,-1.5369,-1.5482,-1.5797,-1.601,-1.6105,-1.6371,-1.6636,-1.6808,-1.6908,-1.706,-1.7206,-1.7641,-1.7905,-1.8055,-1.8055,-1.8055,0.0,0.0,0.0,0.0,0.0,0.0,-1.0619,-1.1274,0.0,0.0,0.0,0.0,0.0,0.0,0.0,0.0,0.0,0.0,0.0,0.0,0.0,0.0,0.0,0.0,0.0,-1.6874,-1.6813,-1.6964,-1.6633,-1.6441,-1.6514,-1.6434,-1.6394,-1.6395,-1.6573,-1.6634,-1.6634,-1.6673,-1.6689,-1.6689,-1.6689,-1.6492,-1.6095,-1.64,-1.629,-1.5877,-1.6148,-1.5842,-1.5175,-1.549,-1.5154,-1.4452,-1.3962,-1.3892,-1.4107,-1.3955,-1.4034,-1.4176,-1.4255,-1.4298,-1.425,-1.3979,-1.3883,-1.3835,-1.3539,-1.3292,-1.3098,-1.305,-1.2982,-1.3018,-1.3247,-1.3268,-1.3231,-1.3256,-1.3207,-1.3207,-1.3207,-1.3207,-1.3207,-1.3207,-1.3261,-1.3315,-1.3315,-1.3315,-1.3315,-1.3315,-1.3315,-1.3315,-1.3315,-1.3315,-1.3369,-1.3645,-1.3959,-1.4223,-1.4498,-1.4767,-1.5095,-1.5374,-1.5428,-1.5583,-1.5838,-1.6057,-1.6217,-1.6324,-1.6577,-1.6677,-1.6677,-1.7265,-1.7477,-1.7477,-1.7477,-1.7477,0.0,0.0,0.0,0.0,0.0,0.0,-1.0618,-1.0946,-1.1351,0.0,0.0,0.0,0.0,0.0,0.0,0.0,0.0,0.0,0.0,0.0,0.0,0.0,0.0,0.0,0.0,-1.596,-1.5725,-1.5584,-1.536,-1.5403,-1.5852,-1.5773,-1.5718,-1.5846,-1.6126,-1.6309,-1.6309,-1.6554,-1.6689,-1.6689,-1.6689,-1.6492,-1.6095,-1.6156,-1.5936,-1.5484,-1.5416,-1.5141,-1.481,-1.4966,-1.4838,-1.4449,-1.4217,-1.4136,-1.4174,-1.3961,-1.391,-1.3989,-1.4208,-1.4298,-1.425,-1.3979,-1.3883,-1.3786,-1.334,-1.3147,-1.3001,-1.2662,-1.2662,-1.2774,-1.2751,-1.2723,-1.2782,-1.295,-1.2767,-1.2604,-1.2604,-1.2604,-1.2604,-1.2604,-1.2985,-1.3315,-1.3315,-1.3315,-1.3315,-1.3315,-1.3315,-1.3315,-1.3315,-1.3315,-1.3315,-1.3369,-1.364,-1.3802,-1.3856,-1.439,-1.4713,-1.4767,-1.4987,-1.5256,-1.5583,-1.5642,-1.585,-1.6271,-1.6577,-1.6677,-1.6677,-1.6836,-1.6889,-1.6889,-1.6889,-1.6889,0.0,0.0,0.0,-1.1003,0.0,0.0,0.0,-1.0989,-1.1126,0.0,0.0,0.0,0.0,0.0,0.0,0.0,0.0,0.0,0.0,0.0,0.0,0.0,0.0,0.0,0.0,-1.5246,-1.5008,-1.4952,-1.4663,-1.4703,-1.5196,-1.5097,-1.5173,-1.5457,-1.5761,-1.5944,-1.5944,-1.6293,-1.6468,-1.6436,-1.652,-1.6409,-1.6087,-1.5955,-1.5707,-1.5389,-1.5173,-1.4957,-1.4727,-1.4998,-1.4875,-1.4528,-1.4302,-1.4216,-1.4178,-1.3944,-1.3984,-1.4123,-1.425,-1.4202,-1.407,-1.3786,-1.3588,-1.3443,-1.3055,-1.2856,-1.271,-1.2467,-1.234,-1.2314,-1.2377,-1.2402,-1.2404,-1.2611,-1.2495,-1.2387,-1.2387,-1.2387,-1.2387,-1.2387,-1.2659,-1.2822,-1.2822,-1.2822,-1.2822,-1.2822,-1.2822,-1.2822,-1.2822,-1.2822,-1.2935,-1.3098,-1.3207,-1.3423,-1.3699,-1.3964,-1.4283,-1.4606,-1.4713,-1.4934,-1.5261,-1.5261,-1.5363,-1.563,-1.5779,-1.5832,-1.5832,-1.5832,-1.6152,-1.6677,-1.6677,-1.6677,0.0,0.0,0.0,0.0,0.0,-1.0806,0.0,0.0,0.0,-1.0822,0.0,0.0,0.0,0.0,0.0,0.0,0.0,0.0,0.0,0.0,0.0,0.0,0.0,0.0,0.0,-1.4459,-1.4281,-1.4388,-1.4087,-1.4049,-1.4461,-1.449,-1.4637,-1.4967,-1.5372,-1.5578,-1.5578,-1.5928,-1.6142,-1.6206,-1.629,-1.6216,-1.6087,-1.5824,-1.5575,-1.5389,-1.5124,-1.4915,-1.4734,-1.5007,-1.491,-1.4514,-1.4391,-1.4339,-1.4266,-1.4078,-1.4117,-1.4298,-1.425,-1.407,-1.3835,-1.3539,-1.3244,-1.3001,-1.2813,-1.257,-1.237,-1.2273,-1.2063,-1.1867,-1.2059,-1.2102,-1.2085,-1.2325,-1.2387,-1.2387,-1.2387,-1.2387,-1.2382,-1.2332,-1.2332,-1.2332,-1.2382,-1.2387,-1.2387,-1.2387,-1.2387,-1.2387,-1.2387,-1.2387,-1.2495,-1.2772,-1.2881,-1.3098,-1.3586,-1.3645,-1.3964,-1.4498,-1.4498,-1.4659,-1.4928,-1.4987,-1.4987,-1.4987,-1.4987,-1.4987,-1.4987,-1.4987,-1.5458,-1.6365,-1.6365,-1.6365,0.0,0.0,0.0,0.0,-1.1718,0.0,0.0,0.0,-1.0822,-1.0803,0.0,-1.0458,-1.0488,0.0,0.0,0.0,0.0,0.0,0.0,0.0,0.0,0.0,0.0,0.0,0.0,0.0,-1.3118,-1.3348,-1.3235,-1.3291,-1.3709,-1.4017,-1.4188,-1.4228,-1.4887,-1.5274,-1.5274,-1.5608,-1.5896,-1.6206,-1.6022,-1.6008,-1.6087,-1.5824,-1.5575,-1.5389,-1.495,-1.4734,-1.4678,-1.4602,-1.4464,-1.4294,-1.479,-1.4858,-1.4597,-1.4351,-1.4268,-1.425,-1.4022,-1.3931,-1.3835,-1.3298,-1.3001,-1.2813,-1.2516,-1.2419,-1.2322,-1.1829,-1.1653,-1.1668,-1.1816,-1.1836,-1.1954,-1.2292,-1.2387,-1.2387,-1.2387,-1.2387,-1.2332,-1.2114,-1.206,-1.2114,-1.2387,-1.2387,-1.2387,-1.2387,-1.2387,-1.2387,-1.2387,-1.2387,-1.2387,-1.2441,-1.2718,-1.3044,-1.3315,-1.3586,-1.3862,-1.4245,-1.4245,-1.4347,-1.4654,-1.4874,-1.4987,-1.4987,-1.4987,-1.4987,-1.4987,-1.4987,-1.5095,-1.5196,-1.5196,-1.5196,0.0,0.0,0.0,0.0,0.0,0.0,0.0,0.0,-1.0765,0.0,0.0,0.0,0.0,0.0,0.0,0.0,0.0,0.0,0.0,0.0,0.0,0.0,0.0,0.0,0.0,0.0,0.0,0.0,-1.2464,-1.2662,-1.3209,-1.3244,-1.3489,-1.4093,-1.4403,-1.4665,-1.4863,-1.5213,-1.5429,-1.5457,-1.5637,-1.57,-1.5635,-1.5576,-1.5465,-1.5389,-1.4908,-1.4692,-1.4678,-1.4568,-1.4283,-1.4002,-1.4572,-1.4646,-1.4442,-1.4346,-1.4208,-1.407,-1.3931,-1.369,-1.3394,-1.3055,-1.2861,-1.2764,-1.2467,-1.2273,-1.2078,-1.1731,-1.1487,-1.1412,-1.1567,-1.1728,-1.1893,-1.2142,-1.2302,-1.2387,-1.2387,-1.2278,-1.2114,-1.2001,-1.1896,-1.1787,-1.1896,-1.2055,-1.2169,-1.2169,-1.2273,-1.2387,-1.2387,-1.2387,-1.2387,-1.2387,-1.255,-1.2713,-1.3044,-1.3152,-1.3369,-1.3645,-1.3699,-1.3753,-1.3851,-1.3964,-1.4013,-1.4013,-1.4013,-1.4013,-1.4013,-1.4013,-1.4013,-1.4018,-1.4713,-1.4987,-1.3967,0.0,0.0,0.0,0.0,0.0,0.0,0.0,0.0,0.0,0.0,0.0,0.0,0.0,-1.0059,0.0,0.0,0.0,0.0,0.0,0.0,0.0,0.0,0.0,0.0,0.0,0.0,-1.1607,-1.1718,-1.1969,-1.2356,-1.2556,-1.2972,-1.3664,-1.3966,-1.4236,-1.4462,-1.4819,-1.493,-1.4883,-1.5111,-1.5242,-1.5295,-1.5264,-1.5301,-1.5389,-1.4908,-1.4692,-1.4671,-1.448,-1.4139,-1.3849,-1.4217,-1.4313,-1.4201,-1.4268,-1.4112,-1.3883,-1.3835,-1.3443,-1.3007,-1.2861,-1.2764,-1.2613,-1.237,-1.2127,-1.1829,-1.159,-1.134,-1.1246,-1.1463,-1.1624,-1.1803,-1.2024,-1.2198,-1.2321,-1.2264,-1.2114,-1.1951,-1.1787,-1.1618,-1.1459,-1.135,-1.1678,-1.1896,-1.1896,-1.2114,-1.2278,-1.2278,-1.2327,-1.2387,-1.2387,-1.2387,-1.255,-1.2881,-1.2881,-1.2989,-1.3261,-1.3315,-1.3315,-1.3315,-1.3315,-1.3315,-1.3315,-1.3315,-1.3315,-1.3315,-1.3315,-1.3315,-1.3315,-1.4121,-1.4552,0.0,0.0,0.0,-1.2826,0.0,0.0,0.0,0.0,-1.1674,0.0,0.0,0.0,0.0,-1.0406,-0.9829,-0.8969,0.0,0.0,0.0,0.0,0.0,0.0,0.0,0.0,0.0,0.0,0.0,-1.0552,-1.0972,-1.1124,-1.0869,-1.2102,-1.276,-1.2646,-1.3592,-1.4117,-1.4132,-1.4304,-1.4585,-1.4912,-1.4531,-1.4688,-1.5295,-1.5028,-1.509,-1.5389,-1.4908,-1.4692,-1.4657,-1.4299,-1.4005,-1.3811,-1.383,-1.3859,-1.3948,-1.4201,-1.4112,-1.3883,-1.3588,-1.3201,-1.2813,-1.2813,-1.2613,-1.237,-1.2078,-1.1829,-1.1536,-1.1292,-1.1194,-1.1246,-1.1463,-1.1524,-1.1628,-1.1991,-1.209,-1.2098,-1.2018,-1.2005,-1.1841,-1.1236,-1.1131,-1.1021,-1.0747,-1.124,-1.1623,-1.1623,-1.1841,-1.2005,-1.2005,-1.2223,-1.2387,-1.2387,-1.2387,-1.255,-1.2881,-1.2881,-1.2989,-1.3261,-1.3315,-1.3315,-1.3315,-1.3315,-1.3315,-1.3315,-1.3315,-1.3315,-1.3315,-1.3315,-1.3315,-1.3315,-1.3315,-1.3369,0.0,0.0,-1.37,-1.3402,0.0,0.0,0.0,0.0,0.0,0.0,0.0,0.0,0.0,0.0,-1.0077,-0.898,-0.885,0.0,0.0,0.0,0.0,0.0,0.0,0.0,0.0,0.0,0.0,-0.9706,-0.9938,-1.03,-1.0762,-1.1366,-1.1953,-1.2574,-1.3379,-1.3802,-1.3893,-1.4218,-1.4307,-1.4182,-1.4261,-1.4484,-1.4751,-1.4845,-1.4993,-1.5173,-1.4866,-1.4608,-1.4482,-1.4026,-1.3711,-1.355,-1.3561,-1.3505,-1.3395,-1.3655,-1.3719,-1.3588,-1.3201,-1.291,-1.2813,-1.2813,-1.2619,-1.237,-1.2078,-1.1834,-1.1536,-1.1292,-1.1194,-1.1163,-1.109,-1.1161,-1.1199,-1.1182,-1.1261,-1.1405,-1.15,-1.1384,-1.1257,-1.1105,-1.0966,-1.0802,-1.0692,-1.0857,-1.1076,-1.1236,-1.1514,-1.1732,-1.1732,-1.1951,-1.2114,-1.2114,-1.2278,-1.2441,-1.255,-1.255,-1.2604,-1.2713,-1.2713,-1.2713,-1.2713,-1.2713,-1.2713,-1.2713,-1.2713,-1.2713,-1.2713,-1.2713,-1.2713,-1.2713,-1.2713,-1.293,-1.4543,-1.4276,0.0,-1.3796,-1.3328,0.0,-1.2762,0.0,0.0,0.0,0.0,0.0,0.0,0.0,0.0,-0.9336,-0.8972,-0.8569,0.0,-0.7821,0.0,0.0,0.0,0.0,0.0,0.0,-0.8885,-0.8939,-0.9244,-0.9636,0.0,0.0,-1.1325,-1.203,-1.2759,-1.3276,-1.361,-1.3897,-1.3958,-1.3797,-1.4059,-1.4265,-1.4355,-1.4674,-1.4871,-1.4957,-1.4699,-1.4489,-1.4279,-1.3864,-1.3519,-1.3283,-1.3244,-1.3127,-1.3011,-1.335,-1.3459,-1.3298,-1.291,-1.2764,-1.2667,-1.2667,-1.2419,-1.2078,-1.1927,-1.1683,-1.1389,-1.1145,-1.1051,-1.0998,-1.0708,-1.0753,-1.0824,-1.0694,-1.0804,-1.0944,-1.1037,-1.0973,-1.0898,-1.085,-1.0757,-1.0692,-1.0692,-1.0692,-1.0747,-1.0907,-1.124,-1.1404,-1.1404,-1.1678,-1.1841,-1.1841,-1.2005,-1.2169,-1.2278,-1.2278,-1.2278,-1.2278,-1.2169,-1.2114,-1.2114,-1.2114,-1.2114,-1.2114,-1.2114,-1.2114,-1.2114,-1.2114,-1.2114,-1.2114,-1.2114,-1.2332]}]]